GEFSGL_prec_meanprecacc_186.txt.gz
Total_Precipitation_Accumulation
0.76 0.82 0.81 0.76 0.78 0.83 0.82 0.77 0.70 0.73 0.80 0.92 0.96 1.10 1.25 1.44 1.62 1.77 1.78 1.78 1.83 1.82 1.77 1.87 1.98 2.08 2.20 2.21 2.20 2.09 1.93 1.88 1.80 1.64 1.43 1.31 1.46 1.50 1.44 1.38 1.25 1.18 1.14
0.75 0.78 0.80 0.72 0.67 0.71 0.72 0.75 0.64 0.60 0.63 0.73 0.86 1.06 1.17 1.25 1.30 1.39 1.47 1.51 1.55 1.61 1.60 1.58 1.66 1.76 1.92 2.07 2.16 2.10 2.08 1.97 1.88 1.85 1.67 1.42 1.32 1.40 1.47 1.56 1.47 1.25 1.19
0.90 0.96 0.88 0.74 0.69 0.68 0.66 0.71 0.65 0.61 0.63 0.68 0.81 0.96 1.02 1.06 1.10 1.13 1.23 1.32 1.33 1.32 1.37 1.35 1.37 1.46 1.60 1.74 1.83 1.90 2.01 2.05 2.05 1.95 1.87 1.69 1.44 1.45 1.53 1.56 1.58 1.65 1.40
1.15 1.12 0.95 0.81 0.73 0.66 0.63 0.63 0.64 0.65 0.67 0.72 0.87 0.95 0.96 0.91 1.00 1.04 1.09 1.13 1.10 1.05 1.09 1.10 1.15 1.19 1.28 1.40 1.55 1.76 1.95 2.06 2.13 2.12 2.02 1.80 1.63 1.59 1.57 1.58 1.66 1.75 1.72
1.11 1.00 0.86 0.74 0.62 0.57 0.59 0.57 0.61 0.67 0.68 0.73 0.79 0.89 0.92 0.90 0.93 1.00 0.99 0.94 0.93 0.93 0.88 0.79 0.81 0.88 0.90 0.98 1.03 1.32 1.58 1.81 1.94 2.02 2.00 1.85 1.64 1.53 1.41 1.45 1.59 1.76 1.84
0.99 0.86 0.70 0.62 0.59 0.54 0.52 0.49 0.48 0.51 0.57 0.61 0.66 0.81 0.92 0.83 0.94 0.94 0.86 0.79 0.76 0.81 0.78 0.70 0.69 0.72 0.64 0.61 0.65 0.87 1.17 1.38 1.57 1.75 1.81 1.69 1.55 1.47 1.51 1.51 1.52 1.58 1.61
0.72 0.67 0.55 0.49 0.46 0.44 0.42 0.42 0.44 0.46 0.49 0.54 0.58 0.74 0.84 0.92 0.86 0.71 0.75 0.75 0.75 0.78 0.80 0.82 0.75 0.70 0.77 0.69 0.63 0.70 0.79 0.91 1.07 1.33 1.56 1.55 1.64 1.57 1.48 1.43 1.44 1.48 1.49
0.62 0.63 0.53 0.46 0.43 0.41 0.38 0.38 0.46 0.47 0.46 0.51 0.57 0.60 0.68 0.81 0.75 0.60 0.65 0.64 0.75 0.82 0.85 0.94 0.95 0.88 0.86 0.94 0.89 0.89 0.87 0.80 0.85 0.78 1.00 1.38 1.52 1.58 1.53 1.56 1.65 1.58 1.46
0.40 0.46 0.42 0.35 0.37 0.40 0.38 0.41 0.45 0.46 0.50 0.52 0.56 0.59 0.65 0.69 0.65 0.58 0.62 0.68 0.82 0.84 0.79 0.91 0.95 0.89 0.93 1.00 1.12 1.18 1.10 0.95 1.06 1.07 0.98 1.09 1.23 1.29 1.40 1.50 1.57 1.50 1.45
0.17 0.23 0.25 0.24 0.27 0.34 0.42 0.47 0.45 0.43 0.48 0.50 0.49 0.49 0.53 0.55 0.60 0.52 0.64 0.74 0.80 0.81 0.82 0.87 1.02 0.95 0.92 0.90 0.99 1.13 1.12 0.99 0.87 0.90 0.87 0.77 0.71 0.82 1.02 1.19 1.47 1.59 1.53
0.09 0.11 0.13 0.17 0.23 0.33 0.39 0.36 0.36 0.38 0.42 0.43 0.46 0.45 0.46 0.53 0.64 0.65 0.72 0.74 0.78 0.84 0.93 0.98 0.96 1.04 0.88 0.84 0.86 0.87 0.96 0.95 0.93 0.98 1.05 0.94 0.82 0.77 0.82 0.90 1.11 1.33 1.46
0.08 0.08 0.09 0.11 0.14 0.19 0.26 0.29 0.30 0.33 0.35 0.34 0.35 0.35 0.39 0.50 0.58 0.60 0.63 0.68 0.76 0.77 0.82 0.83 0.79 0.88 0.74 0.66 0.62 0.68 0.75 0.80 0.89 1.01 1.01 0.98 0.96 0.91 0.89 0.91 0.96 1.06 1.16
0.08 0.07 0.07 0.08 0.10 0.13 0.19 0.23 0.26 0.30 0.32 0.31 0.29 0.31 0.34 0.39 0.46 0.49 0.50 0.49 0.52 0.56 0.54 0.63 0.65 0.63 0.59 0.52 0.57 0.62 0.63 0.66 0.77 0.86 0.88 0.85 0.85 0.90 0.90 0.90 0.92 0.96 0.96
0.09 0.08 0.08 0.09 0.09 0.10 0.13 0.19 0.27 0.28 0.25 0.26 0.28 0.31 0.35 0.37 0.37 0.38 0.41 0.42 0.41 0.46 0.45 0.48 0.48 0.48 0.49 0.51 0.54 0.58 0.64 0.68 0.72 0.75 0.75 0.77 0.79 0.86 0.92 0.90 0.89 0.94 0.99
0.08 0.07 0.08 0.08 0.09 0.08 0.08 0.11 0.18 0.20 0.19 0.21 0.25 0.30 0.35 0.38 0.34 0.30 0.31 0.37 0.43 0.49 0.55 0.50 0.47 0.48 0.50 0.57 0.60 0.59 0.63 0.67 0.67 0.66 0.68 0.71 0.70 0.76 0.81 0.82 0.83 0.85 0.86
0.09 0.08 0.08 0.08 0.09 0.08 0.07 0.08 0.10 0.11 0.12 0.11 0.13 0.17 0.17 0.16 0.17 0.17 0.19 0.25 0.32 0.39 0.54 0.61 0.64 0.69 0.72 0.71 0.69 0.61 0.56 0.57 0.63 0.69 0.69 0.69 0.70 0.69 0.73 0.76 0.78 0.82 0.81
0.10 0.10 0.09 0.09 0.08 0.08 0.08 0.10 0.10 0.08 0.05 0.05 0.05 0.07 0.09 0.11 0.13 0.15 0.16 0.20 0.23 0.29 0.50 0.67 0.69 0.67 0.64 0.63 0.60 0.53 0.48 0.45 0.47 0.57 0.67 0.74 0.76 0.76 0.79 0.82 0.80 0.76 0.74
0.13 0.14 0.11 0.10 0.09 0.10 0.11 0.14 0.19 0.22 0.16 0.08 0.05 0.05 0.07 0.08 0.10 0.14 0.21 0.28 0.27 0.30 0.47 0.57 0.60 0.59 0.51 0.46 0.40 0.36 0.35 0.34 0.34 0.39 0.45 0.55 0.71 0.82 0.90 0.91 0.91 0.92 0.89
0.15 0.17 0.15 0.15 0.14 0.14 0.16 0.20 0.23 0.22 0.17 0.11 0.08 0.06 0.06 0.06 0.07 0.09 0.16 0.24 0.25 0.25 0.28 0.29 0.31 0.33 0.33 0.29 0.27 0.27 0.28 0.29 0.30 0.32 0.35 0.40 0.50 0.65 0.83 0.93 0.94 0.97 0.96
0.12 0.14 0.15 0.17 0.17 0.14 0.14 0.16 0.19 0.18 0.14 0.12 0.11 0.10 0.10 0.10 0.11 0.12 0.13 0.17 0.20 0.19 0.17 0.18 0.18 0.18 0.20 0.21 0.21 0.23 0.26 0.28 0.27 0.30 0.36 0.42 0.52 0.58 0.63 0.74 0.86 0.88 0.81
0.10 0.10 0.10 0.13 0.16 0.15 0.13 0.11 0.13 0.16 0.14 0.12 0.11 0.10 0.11 0.15 0.17 0.15 0.13 0.14 0.16 0.17 0.17 0.17 0.17 0.17 0.20 0.26 0.27 0.26 0.26 0.28 0.28 0.30 0.34 0.41 0.50 0.60 0.65 0.67 0.70 0.73 0.76
0.09 0.09 0.09 0.10 0.14 0.15 0.15 0.13 0.14 0.15 0.14 0.13 0.12 0.12 0.13 0.16 0.17 0.18 0.17 0.17 0.19 0.21 0.21 0.22 0.23 0.24 0.26 0.29 0.33 0.33 0.33 0.32 0.31 0.32 0.36 0.38 0.42 0.48 0.56 0.63 0.66 0.66 0.68
0.07 0.08 0.09 0.11 0.13 0.13 0.14 0.13 0.14 0.15 0.15 0.14 0.13 0.13 0.13 0.15 0.16 0.18 0.20 0.20 0.21 0.22 0.24 0.29 0.31 0.31 0.32 0.34 0.36 0.37 0.38 0.38 0.38 0.38 0.42 0.44 0.43 0.44 0.48 0.52 0.54 0.56 0.59
0.09 0.10 0.12 0.14 0.14 0.13 0.14 0.14 0.15 0.14 0.15 0.15 0.16 0.16 0.17 0.18 0.17 0.17 0.17 0.18 0.20 0.22 0.24 0.25 0.28 0.30 0.34 0.38 0.41 0.41 0.41 0.43 0.40 0.39 0.45 0.53 0.52 0.51 0.52 0.54 0.54 0.54 0.60
0.13 0.13 0.14 0.15 0.14 0.14 0.14 0.14 0.14 0.15 0.15 0.17 0.18 0.18 0.18 0.19 0.19 0.19 0.19 0.20 0.21 0.21 0.23 0.24 0.25 0.27 0.32 0.40 0.43 0.43 0.47 0.48 0.45 0.40 0.40 0.48 0.52 0.53 0.56 0.58 0.60 0.64 0.71
0.15 0.15 0.15 0.15 0.15 0.16 0.17 0.17 0.18 0.19 0.20 0.20 0.20 0.20 0.20 0.20 0.20 0.21 0.22 0.22 0.22 0.22 0.23 0.25 0.28 0.28 0.30 0.37 0.44 0.49 0.50 0.47 0.49 0.52 0.47 0.47 0.51 0.54 0.60 0.65 0.68 0.75 0.81

GEFSGL_prec_meanprecacc_192.txt.gz
Total_Precipitation_Accumulation
0.76 0.83 0.82 0.77 0.80 0.84 0.83 0.78 0.71 0.74 0.81 0.92 0.96 1.10 1.26 1.44 1.63 1.78 1.79 1.79 1.83 1.82 1.77 1.88 2.00 2.09 2.21 2.23 2.21 2.09 1.94 1.89 1.80 1.64 1.44 1.32 1.46 1.51 1.45 1.39 1.28 1.21 1.17
0.76 0.79 0.80 0.72 0.68 0.72 0.73 0.76 0.66 0.61 0.64 0.73 0.86 1.06 1.17 1.25 1.30 1.39 1.48 1.52 1.56 1.61 1.61 1.58 1.66 1.77 1.93 2.08 2.16 2.10 2.08 1.98 1.88 1.86 1.68 1.42 1.33 1.42 1.48 1.57 1.49 1.27 1.22
0.91 0.97 0.89 0.74 0.70 0.70 0.69 0.74 0.68 0.63 0.65 0.68 0.81 0.96 1.02 1.07 1.11 1.13 1.23 1.33 1.34 1.32 1.38 1.36 1.38 1.46 1.61 1.75 1.84 1.91 2.01 2.05 2.05 1.96 1.87 1.69 1.45 1.46 1.53 1.57 1.61 1.68 1.43
1.16 1.13 0.96 0.82 0.74 0.69 0.66 0.67 0.67 0.67 0.68 0.72 0.87 0.95 0.96 0.92 1.01 1.04 1.10 1.14 1.11 1.06 1.09 1.10 1.15 1.20 1.28 1.41 1.56 1.77 1.96 2.06 2.13 2.12 2.02 1.80 1.64 1.60 1.57 1.59 1.68 1.76 1.74
1.12 1.01 0.88 0.75 0.65 0.60 0.63 0.60 0.64 0.70 0.70 0.74 0.80 0.89 0.93 0.90 0.94 1.00 1.00 0.94 0.94 0.93 0.89 0.80 0.81 0.89 0.91 1.00 1.04 1.33 1.59 1.81 1.95 2.02 2.00 1.86 1.65 1.54 1.41 1.45 1.60 1.76 1.85
1.01 0.89 0.73 0.65 0.63 0.57 0.55 0.52 0.52 0.55 0.59 0.63 0.67 0.82 0.93 0.83 0.94 0.94 0.87 0.79 0.77 0.81 0.78 0.71 0.69 0.72 0.64 0.61 0.66 0.88 1.18 1.39 1.57 1.75 1.81 1.70 1.56 1.47 1.52 1.52 1.52 1.58 1.62
0.75 0.70 0.59 0.53 0.49 0.46 0.44 0.45 0.47 0.48 0.51 0.56 0.60 0.75 0.84 0.92 0.86 0.72 0.75 0.75 0.76 0.78 0.80 0.83 0.75 0.70 0.77 0.69 0.63 0.70 0.79 0.91 1.07 1.34 1.57 1.56 1.65 1.57 1.48 1.43 1.44 1.48 1.49
0.66 0.66 0.56 0.48 0.44 0.42 0.39 0.41 0.49 0.49 0.48 0.53 0.58 0.61 0.68 0.82 0.76 0.61 0.65 0.64 0.75 0.83 0.86 0.94 0.95 0.88 0.87 0.94 0.89 0.89 0.87 0.80 0.86 0.79 1.00 1.38 1.52 1.58 1.53 1.56 1.65 1.58 1.46
0.44 0.49 0.45 0.37 0.38 0.42 0.40 0.44 0.48 0.48 0.52 0.54 0.57 0.59 0.65 0.69 0.67 0.60 0.63 0.69 0.82 0.84 0.79 0.91 0.95 0.90 0.94 1.00 1.12 1.18 1.10 0.95 1.06 1.07 0.99 1.09 1.23 1.29 1.41 1.51 1.57 1.50 1.46
0.20 0.26 0.28 0.26 0.30 0.36 0.45 0.50 0.48 0.45 0.50 0.52 0.51 0.49 0.54 0.56 0.61 0.52 0.64 0.75 0.80 0.81 0.82 0.88 1.02 0.95 0.93 0.90 0.99 1.13 1.12 0.99 0.87 0.90 0.87 0.77 0.71 0.82 1.02 1.19 1.48 1.59 1.54
0.11 0.13 0.16 0.20 0.25 0.34 0.41 0.39 0.38 0.40 0.43 0.44 0.47 0.46 0.47 0.54 0.65 0.66 0.72 0.74 0.79 0.85 0.94 0.99 0.96 1.05 0.89 0.85 0.86 0.87 0.96 0.95 0.93 0.98 1.05 0.94 0.82 0.78 0.82 0.90 1.11 1.33 1.46
0.09 0.09 0.11 0.13 0.16 0.20 0.28 0.32 0.33 0.35 0.35 0.35 0.36 0.36 0.40 0.51 0.59 0.61 0.63 0.69 0.77 0.77 0.83 0.83 0.80 0.89 0.74 0.66 0.62 0.68 0.75 0.80 0.89 1.01 1.01 0.98 0.96 0.91 0.89 0.91 0.96 1.06 1.16
0.10 0.08 0.09 0.11 0.12 0.15 0.21 0.26 0.30 0.33 0.34 0.32 0.30 0.31 0.35 0.39 0.47 0.50 0.50 0.50 0.53 0.56 0.55 0.64 0.65 0.64 0.59 0.52 0.57 0.62 0.63 0.67 0.77 0.86 0.88 0.85 0.85 0.90 0.90 0.90 0.92 0.96 0.96
0.11 0.10 0.10 0.12 0.12 0.12 0.16 0.23 0.31 0.31 0.27 0.27 0.29 0.31 0.35 0.38 0.38 0.39 0.42 0.42 0.41 0.47 0.46 0.48 0.49 0.48 0.50 0.51 0.54 0.58 0.64 0.68 0.72 0.75 0.75 0.77 0.79 0.86 0.92 0.90 0.89 0.94 0.99
0.10 0.10 0.10 0.11 0.12 0.11 0.11 0.14 0.20 0.23 0.21 0.23 0.27 0.31 0.36 0.39 0.35 0.31 0.31 0.38 0.44 0.49 0.55 0.51 0.47 0.48 0.50 0.57 0.60 0.59 0.63 0.67 0.67 0.66 0.68 0.71 0.70 0.76 0.81 0.82 0.83 0.85 0.86
0.12 0.12 0.12 0.11 0.12 0.10 0.10 0.11 0.13 0.13 0.14 0.14 0.15 0.19 0.18 0.18 0.17 0.17 0.20 0.25 0.32 0.39 0.54 0.62 0.64 0.69 0.72 0.71 0.69 0.61 0.56 0.57 0.63 0.69 0.69 0.69 0.70 0.69 0.74 0.77 0.78 0.82 0.82
0.14 0.14 0.12 0.12 0.11 0.09 0.10 0.12 0.13 0.10 0.07 0.07 0.07 0.08 0.11 0.12 0.14 0.15 0.17 0.20 0.23 0.29 0.50 0.67 0.69 0.67 0.64 0.63 0.60 0.53 0.48 0.45 0.47 0.57 0.67 0.74 0.76 0.76 0.79 0.82 0.80 0.76 0.75
0.17 0.18 0.14 0.12 0.12 0.12 0.13 0.15 0.20 0.24 0.18 0.09 0.07 0.07 0.08 0.09 0.11 0.14 0.21 0.28 0.27 0.30 0.47 0.57 0.60 0.59 0.51 0.46 0.40 0.36 0.35 0.34 0.34 0.39 0.45 0.55 0.71 0.82 0.90 0.91 0.91 0.92 0.90
0.19 0.21 0.19 0.20 0.17 0.15 0.17 0.22 0.24 0.23 0.18 0.13 0.10 0.08 0.07 0.08 0.09 0.11 0.17 0.25 0.26 0.25 0.28 0.29 0.31 0.33 0.33 0.29 0.27 0.27 0.28 0.29 0.30 0.32 0.35 0.40 0.50 0.65 0.83 0.93 0.94 0.98 0.96
0.15 0.19 0.21 0.22 0.20 0.17 0.16 0.17 0.19 0.19 0.16 0.15 0.14 0.12 0.11 0.12 0.13 0.13 0.14 0.18 0.21 0.19 0.17 0.18 0.18 0.18 0.20 0.21 0.21 0.23 0.26 0.28 0.27 0.30 0.36 0.42 0.52 0.58 0.63 0.74 0.86 0.88 0.82
0.12 0.13 0.14 0.16 0.18 0.17 0.16 0.13 0.14 0.17 0.15 0.14 0.13 0.12 0.13 0.17 0.19 0.16 0.14 0.15 0.17 0.18 0.17 0.17 0.17 0.18 0.20 0.26 0.27 0.26 0.26 0.28 0.28 0.30 0.34 0.41 0.50 0.60 0.65 0.67 0.70 0.73 0.76
0.10 0.10 0.10 0.12 0.16 0.18 0.17 0.15 0.15 0.16 0.15 0.14 0.14 0.14 0.14 0.17 0.19 0.20 0.19 0.19 0.20 0.22 0.21 0.23 0.24 0.25 0.26 0.29 0.33 0.33 0.33 0.32 0.31 0.32 0.36 0.38 0.42 0.49 0.57 0.64 0.66 0.67 0.69
0.09 0.09 0.11 0.13 0.15 0.15 0.16 0.16 0.15 0.16 0.16 0.15 0.14 0.14 0.14 0.16 0.17 0.19 0.22 0.22 0.22 0.24 0.26 0.30 0.33 0.33 0.34 0.36 0.38 0.38 0.39 0.39 0.38 0.39 0.42 0.44 0.43 0.45 0.49 0.53 0.55 0.57 0.60
0.11 0.13 0.15 0.17 0.17 0.16 0.16 0.16 0.17 0.15 0.16 0.16 0.16 0.17 0.18 0.18 0.18 0.18 0.18 0.19 0.21 0.23 0.25 0.27 0.29 0.32 0.36 0.40 0.43 0.42 0.42 0.44 0.41 0.39 0.46 0.53 0.53 0.52 0.53 0.55 0.54 0.55 0.61
0.15 0.16 0.16 0.17 0.17 0.17 0.16 0.16 0.16 0.16 0.17 0.19 0.20 0.19 0.19 0.20 0.20 0.20 0.21 0.21 0.22 0.23 0.25 0.26 0.27 0.30 0.35 0.42 0.45 0.45 0.48 0.50 0.46 0.40 0.40 0.48 0.53 0.54 0.57 0.59 0.61 0.65 0.72
0.16 0.16 0.16 0.16 0.17 0.18 0.19 0.20 0.20 0.21 0.21 0.21 0.21 0.21 0.21 0.22 0.22 0.22 0.23 0.23 0.23 0.23 0.24 0.26 0.29 0.30 0.32 0.38 0.45 0.50 0.51 0.48 0.50 0.53 0.48 0.47 0.52 0.56 0.62 0.67 0.70 0.77 0.83

GEFSGL_prec_meanprecacc_198.txt.gz
Total_Precipitation_Accumulation
0.77 0.83 0.83 0.79 0.82 0.86 0.84 0.79 0.73 0.76 0.83 0.95 0.99 1.12 1.26 1.45 1.63 1.78 1.79 1.79 1.84 1.83 1.78 1.89 2.02 2.11 2.22 2.23 2.22 2.10 1.95 1.90 1.82 1.66 1.46 1.33 1.47 1.52 1.45 1.40 1.28 1.22 1.22
0.77 0.79 0.81 0.73 0.69 0.73 0.74 0.77 0.67 0.63 0.66 0.75 0.89 1.08 1.19 1.27 1.31 1.40 1.48 1.53 1.57 1.63 1.62 1.60 1.67 1.78 1.94 2.09 2.17 2.11 2.09 1.99 1.90 1.87 1.69 1.44 1.35 1.44 1.49 1.58 1.50 1.28 1.25
0.92 0.97 0.90 0.75 0.71 0.71 0.69 0.74 0.69 0.64 0.66 0.69 0.82 0.98 1.03 1.08 1.12 1.14 1.24 1.33 1.35 1.34 1.40 1.37 1.38 1.47 1.62 1.77 1.86 1.93 2.04 2.08 2.08 1.97 1.88 1.70 1.45 1.47 1.56 1.60 1.63 1.69 1.44
1.18 1.14 0.97 0.82 0.75 0.70 0.67 0.69 0.68 0.68 0.70 0.73 0.88 0.96 0.97 0.93 1.02 1.06 1.11 1.15 1.12 1.07 1.10 1.11 1.15 1.20 1.29 1.43 1.57 1.79 1.97 2.08 2.14 2.13 2.02 1.80 1.64 1.61 1.61 1.63 1.72 1.79 1.75
1.13 1.03 0.90 0.77 0.67 0.62 0.65 0.62 0.66 0.73 0.72 0.76 0.80 0.90 0.94 0.91 0.95 1.01 1.01 0.95 0.94 0.94 0.90 0.81 0.82 0.90 0.93 1.02 1.06 1.35 1.61 1.83 1.95 2.03 2.00 1.86 1.65 1.54 1.42 1.47 1.61 1.78 1.85
1.03 0.92 0.75 0.67 0.65 0.59 0.57 0.54 0.54 0.57 0.61 0.64 0.68 0.84 0.94 0.84 0.95 0.95 0.87 0.80 0.77 0.82 0.79 0.72 0.70 0.74 0.66 0.63 0.67 0.90 1.19 1.39 1.58 1.76 1.82 1.70 1.56 1.47 1.52 1.52 1.53 1.60 1.63
0.78 0.72 0.60 0.54 0.50 0.47 0.46 0.47 0.48 0.50 0.53 0.58 0.61 0.76 0.85 0.93 0.87 0.73 0.76 0.75 0.76 0.78 0.81 0.83 0.75 0.71 0.79 0.70 0.64 0.71 0.80 0.92 1.08 1.34 1.57 1.56 1.65 1.58 1.49 1.43 1.45 1.49 1.49
0.68 0.67 0.57 0.49 0.45 0.43 0.41 0.42 0.51 0.51 0.50 0.55 0.58 0.61 0.69 0.82 0.77 0.62 0.66 0.65 0.76 0.83 0.86 0.94 0.95 0.89 0.87 0.95 0.89 0.90 0.87 0.80 0.87 0.79 1.00 1.38 1.53 1.59 1.54 1.56 1.66 1.59 1.46
0.45 0.51 0.46 0.38 0.40 0.44 0.42 0.46 0.50 0.50 0.54 0.55 0.58 0.60 0.65 0.70 0.67 0.60 0.63 0.69 0.82 0.84 0.79 0.91 0.95 0.90 0.94 1.00 1.12 1.19 1.11 0.96 1.07 1.07 0.99 1.10 1.24 1.30 1.41 1.51 1.57 1.50 1.46
0.23 0.28 0.31 0.29 0.32 0.38 0.48 0.53 0.50 0.47 0.51 0.53 0.51 0.50 0.54 0.56 0.61 0.53 0.65 0.75 0.80 0.81 0.82 0.88 1.02 0.95 0.93 0.90 0.99 1.13 1.12 0.99 0.87 0.91 0.88 0.78 0.72 0.82 1.02 1.19 1.48 1.59 1.54
0.15 0.17 0.20 0.23 0.28 0.37 0.43 0.41 0.39 0.41 0.44 0.45 0.48 0.47 0.48 0.55 0.65 0.66 0.72 0.74 0.79 0.85 0.94 0.99 0.96 1.05 0.89 0.85 0.86 0.88 0.97 0.96 0.93 0.98 1.05 0.95 0.83 0.78 0.82 0.90 1.11 1.33 1.46
0.11 0.11 0.13 0.15 0.17 0.22 0.29 0.33 0.34 0.36 0.36 0.35 0.36 0.37 0.40 0.51 0.59 0.62 0.64 0.69 0.77 0.77 0.83 0.83 0.80 0.89 0.75 0.67 0.63 0.69 0.76 0.82 0.90 1.02 1.02 0.98 0.97 0.91 0.89 0.91 0.96 1.06 1.16
0.11 0.09 0.10 0.13 0.14 0.16 0.23 0.27 0.31 0.34 0.35 0.32 0.30 0.32 0.35 0.40 0.47 0.51 0.51 0.50 0.53 0.56 0.55 0.64 0.66 0.64 0.60 0.53 0.58 0.63 0.65 0.68 0.79 0.88 0.89 0.86 0.86 0.90 0.90 0.90 0.92 0.96 0.96
0.12 0.11 0.11 0.13 0.14 0.14 0.18 0.25 0.33 0.32 0.28 0.28 0.30 0.32 0.36 0.38 0.38 0.39 0.43 0.43 0.42 0.47 0.46 0.49 0.49 0.49 0.50 0.52 0.55 0.60 0.65 0.70 0.73 0.76 0.76 0.78 0.80 0.87 0.93 0.90 0.89 0.94 0.99
0.12 0.11 0.11 0.12 0.14 0.14 0.14 0.17 0.24 0.27 0.24 0.26 0.29 0.33 0.37 0.40 0.36 0.32 0.32 0.39 0.45 0.49 0.55 0.51 0.47 0.48 0.50 0.57 0.60 0.60 0.63 0.67 0.67 0.66 0.69 0.71 0.71 0.76 0.81 0.82 0.83 0.86 0.87
0.13 0.13 0.13 0.12 0.13 0.12 0.13 0.14 0.17 0.17 0.20 0.19 0.18 0.21 0.20 0.19 0.20 0.19 0.21 0.26 0.33 0.40 0.55 0.62 0.64 0.69 0.72 0.71 0.69 0.61 0.57 0.57 0.63 0.69 0.69 0.70 0.71 0.70 0.74 0.77 0.79 0.84 0.85
0.16 0.15 0.14 0.13 0.12 0.11 0.13 0.16 0.16 0.14 0.11 0.11 0.10 0.10 0.12 0.13 0.15 0.16 0.18 0.21 0.24 0.30 0.51 0.68 0.69 0.67 0.64 0.63 0.60 0.54 0.48 0.46 0.48 0.57 0.67 0.75 0.76 0.76 0.79 0.83 0.81 0.78 0.77
0.19 0.21 0.17 0.14 0.13 0.13 0.15 0.19 0.24 0.26 0.20 0.12 0.10 0.10 0.10 0.10 0.11 0.15 0.22 0.29 0.27 0.31 0.48 0.58 0.60 0.59 0.51 0.46 0.41 0.36 0.35 0.34 0.34 0.39 0.46 0.55 0.71 0.82 0.90 0.91 0.92 0.93 0.92
0.21 0.23 0.21 0.22 0.18 0.17 0.19 0.24 0.27 0.26 0.21 0.16 0.13 0.10 0.09 0.09 0.09 0.11 0.17 0.25 0.26 0.26 0.28 0.30 0.32 0.34 0.33 0.30 0.28 0.28 0.29 0.29 0.30 0.32 0.35 0.41 0.51 0.65 0.83 0.93 0.94 0.98 0.97
0.16 0.21 0.23 0.25 0.23 0.19 0.18 0.19 0.21 0.20 0.17 0.16 0.16 0.14 0.13 0.13 0.13 0.14 0.15 0.18 0.21 0.20 0.19 0.20 0.20 0.21 0.22 0.23 0.23 0.24 0.27 0.29 0.27 0.30 0.36 0.42 0.52 0.58 0.64 0.74 0.86 0.89 0.82
0.13 0.13 0.15 0.18 0.21 0.19 0.18 0.15 0.16 0.19 0.17 0.16 0.15 0.13 0.14 0.18 0.20 0.17 0.15 0.16 0.19 0.20 0.20 0.20 0.20 0.20 0.23 0.28 0.29 0.27 0.27 0.29 0.29 0.30 0.35 0.42 0.50 0.60 0.65 0.68 0.70 0.74 0.77
0.11 0.11 0.11 0.13 0.17 0.20 0.19 0.17 0.17 0.18 0.18 0.17 0.17 0.16 0.17 0.19 0.21 0.22 0.21 0.21 0.22 0.23 0.23 0.25 0.26 0.27 0.28 0.31 0.34 0.34 0.34 0.33 0.32 0.33 0.36 0.39 0.42 0.49 0.57 0.64 0.66 0.67 0.70
0.10 0.10 0.12 0.13 0.16 0.17 0.18 0.18 0.18 0.19 0.19 0.19 0.17 0.17 0.17 0.18 0.19 0.20 0.23 0.23 0.23 0.25 0.26 0.31 0.34 0.34 0.35 0.37 0.39 0.39 0.40 0.40 0.39 0.39 0.43 0.45 0.44 0.45 0.49 0.54 0.56 0.58 0.61
0.13 0.14 0.16 0.18 0.18 0.17 0.17 0.18 0.19 0.19 0.20 0.20 0.20 0.21 0.20 0.21 0.20 0.19 0.20 0.20 0.21 0.24 0.26 0.28 0.30 0.32 0.36 0.41 0.44 0.43 0.43 0.45 0.41 0.40 0.47 0.55 0.54 0.53 0.54 0.56 0.56 0.56 0.62
0.18 0.17 0.18 0.19 0.19 0.19 0.18 0.18 0.19 0.20 0.20 0.22 0.23 0.23 0.22 0.22 0.22 0.21 0.22 0.22 0.23 0.24 0.25 0.27 0.28 0.30 0.35 0.42 0.45 0.45 0.49 0.51 0.47 0.41 0.41 0.50 0.54 0.55 0.58 0.60 0.63 0.67 0.75
0.20 0.18 0.19 0.18 0.19 0.20 0.22 0.22 0.22 0.23 0.23 0.23 0.23 0.23 0.23 0.24 0.24 0.24 0.24 0.24 0.24 0.24 0.25 0.27 0.30 0.30 0.32 0.38 0.45 0.51 0.52 0.49 0.51 0.54 0.49 0.49 0.53 0.58 0.64 0.69 0.73 0.81 0.87

GEFSGL_prec_meanprecacc_204.txt.gz
Total_Precipitation_Accumulation
0.78 0.84 0.85 0.80 0.82 0.87 0.85 0.80 0.75 0.79 0.85 0.96 1.00 1.14 1.30 1.47 1.66 1.80 1.81 1.81 1.85 1.83 1.79 1.89 2.02 2.11 2.23 2.24 2.23 2.11 1.97 1.92 1.84 1.68 1.48 1.35 1.49 1.55 1.48 1.43 1.31 1.24 1.24
0.78 0.80 0.82 0.74 0.70 0.74 0.75 0.78 0.69 0.66 0.68 0.76 0.90 1.09 1.21 1.29 1.33 1.42 1.50 1.54 1.58 1.64 1.63 1.60 1.68 1.78 1.94 2.09 2.18 2.13 2.11 2.01 1.92 1.89 1.70 1.45 1.36 1.46 1.52 1.60 1.51 1.29 1.25
0.93 0.98 0.90 0.76 0.71 0.72 0.71 0.76 0.70 0.66 0.67 0.70 0.83 0.98 1.04 1.09 1.13 1.15 1.25 1.34 1.36 1.35 1.40 1.37 1.39 1.47 1.62 1.77 1.86 1.94 2.05 2.09 2.09 1.99 1.89 1.71 1.47 1.49 1.58 1.61 1.64 1.69 1.45
1.18 1.14 0.97 0.83 0.76 0.71 0.68 0.69 0.68 0.68 0.70 0.74 0.88 0.96 0.98 0.94 1.03 1.06 1.12 1.16 1.12 1.07 1.11 1.11 1.16 1.21 1.29 1.43 1.58 1.80 1.98 2.09 2.15 2.14 2.03 1.81 1.65 1.63 1.62 1.64 1.73 1.79 1.75
1.14 1.04 0.90 0.78 0.68 0.63 0.66 0.63 0.67 0.74 0.73 0.76 0.81 0.90 0.94 0.91 0.96 1.02 1.02 0.96 0.96 0.95 0.90 0.81 0.83 0.90 0.93 1.02 1.07 1.36 1.61 1.84 1.96 2.03 2.01 1.86 1.65 1.56 1.44 1.47 1.62 1.78 1.86
1.04 0.93 0.76 0.69 0.66 0.60 0.58 0.55 0.55 0.58 0.61 0.64 0.69 0.84 0.94 0.84 0.95 0.96 0.88 0.81 0.78 0.83 0.80 0.72 0.70 0.74 0.66 0.63 0.68 0.90 1.20 1.40 1.58 1.76 1.82 1.70 1.56 1.49 1.53 1.53 1.54 1.60 1.63
0.80 0.74 0.62 0.55 0.52 0.48 0.47 0.48 0.49 0.51 0.54 0.59 0.62 0.76 0.85 0.93 0.87 0.73 0.77 0.76 0.77 0.80 0.81 0.84 0.76 0.71 0.79 0.71 0.65 0.72 0.80 0.92 1.08 1.35 1.58 1.56 1.65 1.58 1.49 1.44 1.46 1.49 1.50
0.70 0.68 0.58 0.50 0.46 0.44 0.42 0.43 0.51 0.51 0.51 0.55 0.59 0.61 0.69 0.83 0.77 0.62 0.67 0.66 0.77 0.84 0.87 0.95 0.96 0.89 0.88 0.95 0.89 0.90 0.87 0.80 0.87 0.80 1.01 1.39 1.53 1.59 1.54 1.57 1.66 1.59 1.47
0.48 0.53 0.47 0.40 0.41 0.45 0.43 0.47 0.51 0.51 0.54 0.55 0.58 0.60 0.66 0.70 0.68 0.61 0.64 0.69 0.83 0.84 0.80 0.91 0.96 0.90 0.95 1.01 1.12 1.19 1.11 0.96 1.07 1.08 0.99 1.10 1.24 1.30 1.41 1.51 1.58 1.51 1.47
0.25 0.30 0.32 0.31 0.33 0.39 0.49 0.54 0.51 0.47 0.52 0.54 0.52 0.51 0.55 0.56 0.62 0.54 0.65 0.76 0.81 0.81 0.82 0.88 1.02 0.95 0.93 0.90 0.99 1.14 1.13 1.00 0.87 0.91 0.88 0.78 0.72 0.83 1.02 1.20 1.48 1.60 1.54
0.17 0.20 0.22 0.25 0.29 0.37 0.44 0.42 0.40 0.41 0.44 0.45 0.49 0.48 0.49 0.55 0.66 0.67 0.73 0.75 0.79 0.86 0.95 0.99 0.97 1.06 0.89 0.85 0.86 0.88 0.97 0.96 0.94 0.98 1.05 0.95 0.83 0.78 0.82 0.91 1.11 1.33 1.47
0.14 0.15 0.17 0.17 0.19 0.23 0.29 0.33 0.35 0.36 0.37 0.36 0.37 0.37 0.41 0.52 0.60 0.62 0.65 0.70 0.77 0.78 0.83 0.83 0.80 0.90 0.75 0.67 0.63 0.69 0.77 0.82 0.91 1.03 1.02 0.98 0.97 0.92 0.90 0.92 0.97 1.07 1.17
0.15 0.13 0.14 0.16 0.16 0.18 0.24 0.28 0.32 0.35 0.35 0.33 0.31 0.33 0.36 0.41 0.48 0.51 0.51 0.51 0.54 0.57 0.55 0.64 0.66 0.65 0.60 0.53 0.59 0.63 0.65 0.68 0.79 0.88 0.90 0.87 0.87 0.91 0.92 0.92 0.93 0.97 0.97
0.14 0.13 0.14 0.15 0.17 0.16 0.20 0.27 0.34 0.33 0.29 0.28 0.30 0.33 0.38 0.39 0.38 0.39 0.43 0.43 0.42 0.48 0.47 0.49 0.49 0.49 0.50 0.52 0.55 0.60 0.65 0.70 0.73 0.76 0.76 0.79 0.81 0.88 0.94 0.91 0.91 0.96 1.02
0.12 0.12 0.13 0.14 0.16 0.16 0.15 0.18 0.26 0.28 0.26 0.28 0.31 0.34 0.38 0.40 0.36 0.32 0.32 0.39 0.45 0.50 0.56 0.51 0.47 0.48 0.51 0.57 0.60 0.60 0.64 0.68 0.67 0.67 0.69 0.72 0.71 0.77 0.82 0.83 0.85 0.88 0.91
0.14 0.14 0.14 0.14 0.15 0.14 0.14 0.15 0.19 0.19 0.22 0.22 0.20 0.23 0.21 0.20 0.20 0.20 0.22 0.27 0.34 0.41 0.55 0.62 0.64 0.69 0.72 0.72 0.70 0.62 0.58 0.58 0.64 0.69 0.69 0.70 0.71 0.70 0.75 0.78 0.80 0.86 0.88
0.17 0.17 0.15 0.14 0.13 0.12 0.13 0.17 0.18 0.16 0.14 0.14 0.13 0.12 0.14 0.14 0.16 0.17 0.18 0.22 0.26 0.32 0.52 0.68 0.69 0.68 0.65 0.63 0.60 0.54 0.49 0.46 0.49 0.58 0.68 0.75 0.76 0.76 0.80 0.83 0.83 0.80 0.79
0.20 0.22 0.18 0.14 0.14 0.15 0.17 0.20 0.25 0.28 0.22 0.14 0.13 0.12 0.12 0.12 0.13 0.16 0.23 0.30 0.29 0.32 0.49 0.58 0.61 0.59 0.51 0.46 0.41 0.36 0.36 0.35 0.35 0.40 0.46 0.56 0.71 0.83 0.91 0.92 0.93 0.95 0.94
0.22 0.23 0.22 0.22 0.19 0.17 0.20 0.25 0.28 0.27 0.22 0.18 0.14 0.12 0.11 0.10 0.11 0.12 0.18 0.26 0.27 0.26 0.29 0.30 0.32 0.34 0.34 0.31 0.28 0.29 0.30 0.30 0.31 0.33 0.36 0.41 0.51 0.66 0.84 0.94 0.96 1.00 0.99
0.16 0.21 0.24 0.26 0.24 0.20 0.19 0.20 0.22 0.22 0.19 0.18 0.17 0.15 0.14 0.14 0.14 0.14 0.15 0.19 0.22 0.21 0.19 0.20 0.21 0.21 0.23 0.24 0.24 0.25 0.28 0.30 0.29 0.32 0.37 0.43 0.54 0.60 0.65 0.75 0.88 0.91 0.85
0.13 0.14 0.16 0.19 0.22 0.21 0.20 0.17 0.18 0.20 0.19 0.17 0.16 0.15 0.16 0.19 0.21 0.18 0.16 0.17 0.19 0.21 0.21 0.21 0.21 0.21 0.24 0.29 0.30 0.28 0.29 0.30 0.30 0.32 0.36 0.43 0.52 0.61 0.66 0.69 0.72 0.76 0.79
0.12 0.12 0.11 0.14 0.18 0.21 0.21 0.19 0.20 0.21 0.20 0.18 0.18 0.18 0.19 0.21 0.22 0.22 0.22 0.22 0.24 0.26 0.25 0.26 0.26 0.27 0.29 0.32 0.36 0.36 0.36 0.35 0.33 0.34 0.37 0.40 0.43 0.50 0.59 0.66 0.68 0.69 0.72
0.11 0.11 0.12 0.14 0.16 0.18 0.20 0.20 0.20 0.21 0.21 0.20 0.19 0.18 0.18 0.19 0.20 0.22 0.24 0.25 0.26 0.27 0.28 0.32 0.35 0.35 0.36 0.38 0.40 0.40 0.41 0.41 0.40 0.40 0.44 0.46 0.45 0.46 0.51 0.55 0.57 0.59 0.63
0.15 0.15 0.17 0.19 0.19 0.18 0.18 0.20 0.21 0.20 0.22 0.22 0.22 0.22 0.21 0.22 0.22 0.22 0.22 0.23 0.24 0.26 0.27 0.29 0.31 0.33 0.37 0.42 0.45 0.44 0.44 0.46 0.43 0.41 0.48 0.56 0.55 0.54 0.56 0.57 0.57 0.58 0.64
0.20 0.19 0.20 0.20 0.21 0.20 0.19 0.19 0.20 0.21 0.22 0.24 0.26 0.25 0.24 0.24 0.25 0.24 0.24 0.24 0.25 0.25 0.27 0.28 0.29 0.31 0.35 0.43 0.46 0.46 0.50 0.52 0.48 0.42 0.42 0.51 0.55 0.57 0.60 0.62 0.65 0.69 0.77
0.22 0.21 0.21 0.20 0.20 0.21 0.22 0.23 0.23 0.25 0.25 0.25 0.26 0.27 0.26 0.26 0.27 0.27 0.27 0.27 0.26 0.25 0.26 0.28 0.30 0.30 0.32 0.39 0.45 0.51 0.52 0.49 0.52 0.55 0.50 0.50 0.55 0.59 0.65 0.71 0.74 0.82 0.89

GEFSGL_prec_meanprecacc_210.txt.gz
Total_Precipitation_Accumulation
0.79 0.86 0.87 0.81 0.83 0.88 0.86 0.80 0.76 0.80 0.86 0.97 1.01 1.16 1.31 1.49 1.67 1.81 1.83 1.83 1.87 1.86 1.80 1.90 2.03 2.12 2.23 2.25 2.24 2.13 1.99 1.95 1.86 1.70 1.50 1.37 1.52 1.57 1.50 1.43 1.31 1.24 1.24
0.79 0.81 0.83 0.76 0.70 0.75 0.76 0.80 0.70 0.67 0.69 0.77 0.90 1.10 1.22 1.30 1.34 1.43 1.51 1.55 1.60 1.66 1.65 1.61 1.69 1.79 1.95 2.10 2.20 2.14 2.13 2.03 1.93 1.91 1.73 1.48 1.40 1.49 1.54 1.62 1.53 1.30 1.27
0.94 0.99 0.92 0.78 0.72 0.73 0.72 0.78 0.71 0.66 0.68 0.71 0.84 0.99 1.05 1.10 1.14 1.16 1.26 1.35 1.37 1.36 1.42 1.39 1.40 1.49 1.63 1.78 1.87 1.96 2.07 2.10 2.11 2.01 1.92 1.74 1.50 1.52 1.60 1.63 1.66 1.71 1.47
1.19 1.15 0.99 0.86 0.78 0.73 0.70 0.72 0.70 0.70 0.72 0.75 0.89 0.97 0.98 0.94 1.03 1.07 1.12 1.16 1.13 1.08 1.11 1.12 1.17 1.22 1.31 1.44 1.58 1.80 1.99 2.10 2.17 2.15 2.05 1.83 1.67 1.64 1.63 1.65 1.74 1.81 1.78
1.15 1.05 0.92 0.81 0.71 0.66 0.69 0.66 0.68 0.75 0.74 0.76 0.81 0.91 0.94 0.92 0.96 1.03 1.02 0.97 0.96 0.96 0.91 0.81 0.83 0.92 0.94 1.03 1.07 1.36 1.62 1.85 1.97 2.04 2.02 1.87 1.67 1.57 1.45 1.48 1.62 1.80 1.87
1.06 0.94 0.79 0.71 0.69 0.63 0.60 0.57 0.56 0.59 0.62 0.65 0.69 0.84 0.94 0.84 0.96 0.96 0.88 0.81 0.79 0.84 0.80 0.73 0.71 0.75 0.67 0.64 0.68 0.91 1.20 1.40 1.59 1.77 1.83 1.71 1.57 1.50 1.55 1.54 1.54 1.61 1.64
0.81 0.75 0.63 0.58 0.54 0.51 0.49 0.49 0.51 0.52 0.54 0.59 0.62 0.76 0.86 0.93 0.88 0.73 0.77 0.76 0.77 0.81 0.83 0.85 0.77 0.72 0.80 0.71 0.65 0.72 0.80 0.92 1.08 1.35 1.58 1.57 1.66 1.59 1.50 1.45 1.46 1.50 1.50
0.71 0.70 0.60 0.53 0.48 0.46 0.44 0.45 0.52 0.52 0.51 0.56 0.59 0.62 0.69 0.83 0.77 0.62 0.67 0.66 0.77 0.85 0.89 0.97 0.98 0.92 0.89 0.96 0.90 0.91 0.88 0.80 0.87 0.80 1.01 1.39 1.53 1.59 1.55 1.58 1.67 1.60 1.47
0.49 0.54 0.49 0.41 0.43 0.46 0.45 0.49 0.52 0.53 0.55 0.57 0.59 0.61 0.66 0.70 0.68 0.61 0.64 0.70 0.83 0.85 0.81 0.93 0.97 0.92 0.97 1.02 1.13 1.19 1.12 0.96 1.07 1.08 0.99 1.10 1.25 1.30 1.42 1.52 1.58 1.51 1.47
0.27 0.32 0.34 0.32 0.34 0.41 0.52 0.58 0.54 0.50 0.55 0.56 0.54 0.53 0.56 0.57 0.63 0.54 0.66 0.77 0.82 0.84 0.85 0.91 1.05 0.98 0.95 0.91 0.99 1.14 1.14 1.01 0.88 0.91 0.88 0.78 0.72 0.83 1.02 1.20 1.48 1.61 1.56
0.21 0.22 0.24 0.26 0.30 0.38 0.45 0.44 0.43 0.44 0.47 0.48 0.51 0.50 0.50 0.57 0.67 0.68 0.73 0.75 0.80 0.87 0.96 1.01 0.98 1.07 0.91 0.86 0.87 0.89 0.98 0.97 0.95 1.00 1.07 0.96 0.83 0.78 0.83 0.91 1.12 1.35 1.49
0.17 0.18 0.19 0.19 0.20 0.24 0.31 0.35 0.36 0.37 0.38 0.37 0.39 0.39 0.42 0.54 0.62 0.63 0.65 0.70 0.78 0.78 0.84 0.85 0.82 0.91 0.76 0.67 0.63 0.69 0.77 0.82 0.91 1.04 1.03 0.99 0.98 0.92 0.90 0.92 0.98 1.09 1.19
0.18 0.16 0.16 0.18 0.19 0.20 0.26 0.29 0.33 0.36 0.37 0.34 0.32 0.34 0.38 0.42 0.50 0.52 0.51 0.51 0.54 0.57 0.56 0.66 0.69 0.66 0.61 0.54 0.59 0.64 0.65 0.68 0.80 0.89 0.91 0.88 0.87 0.91 0.92 0.92 0.95 0.99 0.99
0.15 0.15 0.16 0.18 0.19 0.19 0.22 0.28 0.35 0.35 0.30 0.29 0.31 0.34 0.40 0.42 0.41 0.41 0.43 0.44 0.43 0.48 0.47 0.50 0.52 0.50 0.51 0.52 0.55 0.60 0.66 0.70 0.73 0.77 0.77 0.81 0.82 0.88 0.94 0.92 0.93 0.98 1.04
0.14 0.13 0.14 0.16 0.18 0.18 0.17 0.19 0.27 0.29 0.27 0.29 0.32 0.36 0.40 0.42 0.39 0.34 0.34 0.39 0.45 0.51 0.56 0.52 0.50 0.50 0.51 0.57 0.60 0.60 0.64 0.68 0.68 0.67 0.70 0.72 0.72 0.78 0.83 0.84 0.87 0.91 0.93
0.15 0.15 0.16 0.15 0.17 0.16 0.15 0.17 0.20 0.20 0.23 0.23 0.23 0.25 0.23 0.22 0.22 0.22 0.23 0.28 0.35 0.42 0.56 0.63 0.66 0.70 0.72 0.72 0.70 0.62 0.58 0.59 0.64 0.70 0.70 0.70 0.71 0.71 0.75 0.79 0.82 0.89 0.90
0.18 0.18 0.16 0.16 0.15 0.13 0.15 0.18 0.20 0.17 0.15 0.15 0.15 0.14 0.15 0.16 0.17 0.18 0.20 0.23 0.27 0.33 0.53 0.69 0.71 0.68 0.65 0.64 0.61 0.55 0.50 0.47 0.49 0.59 0.69 0.76 0.77 0.77 0.81 0.85 0.84 0.82 0.82
0.22 0.23 0.19 0.16 0.16 0.17 0.18 0.21 0.27 0.29 0.23 0.15 0.14 0.13 0.13 0.13 0.14 0.18 0.25 0.31 0.30 0.33 0.50 0.60 0.62 0.61 0.53 0.47 0.42 0.37 0.36 0.35 0.35 0.41 0.47 0.57 0.72 0.84 0.92 0.94 0.95 0.97 0.96
0.24 0.25 0.23 0.23 0.20 0.19 0.21 0.26 0.30 0.29 0.23 0.19 0.16 0.14 0.12 0.12 0.12 0.14 0.19 0.27 0.28 0.28 0.30 0.32 0.33 0.35 0.35 0.31 0.29 0.29 0.30 0.30 0.31 0.33 0.37 0.42 0.53 0.68 0.86 0.96 0.98 1.03 1.02
0.18 0.22 0.25 0.27 0.25 0.21 0.20 0.22 0.24 0.24 0.20 0.19 0.18 0.16 0.15 0.15 0.15 0.15 0.16 0.19 0.23 0.23 0.21 0.22 0.22 0.22 0.23 0.24 0.24 0.25 0.29 0.30 0.29 0.32 0.38 0.44 0.55 0.61 0.66 0.78 0.91 0.95 0.89
0.14 0.15 0.17 0.21 0.23 0.22 0.20 0.18 0.19 0.22 0.20 0.19 0.18 0.16 0.17 0.20 0.21 0.19 0.17 0.18 0.20 0.23 0.23 0.23 0.23 0.23 0.25 0.30 0.30 0.29 0.29 0.31 0.31 0.32 0.37 0.44 0.53 0.62 0.68 0.71 0.74 0.78 0.82
0.12 0.12 0.12 0.15 0.19 0.21 0.22 0.20 0.20 0.22 0.21 0.19 0.19 0.19 0.20 0.22 0.23 0.24 0.24 0.23 0.25 0.27 0.28 0.30 0.30 0.30 0.30 0.33 0.36 0.37 0.36 0.36 0.34 0.35 0.39 0.41 0.45 0.51 0.60 0.67 0.70 0.71 0.74
0.11 0.11 0.13 0.15 0.17 0.19 0.21 0.21 0.21 0.22 0.23 0.22 0.20 0.19 0.19 0.20 0.22 0.24 0.27 0.27 0.28 0.30 0.32 0.38 0.39 0.37 0.37 0.39 0.41 0.41 0.42 0.42 0.41 0.41 0.46 0.48 0.47 0.48 0.52 0.57 0.59 0.62 0.66
0.16 0.16 0.18 0.20 0.20 0.19 0.19 0.21 0.22 0.22 0.23 0.24 0.23 0.23 0.22 0.23 0.23 0.23 0.25 0.25 0.26 0.28 0.30 0.33 0.36 0.36 0.39 0.43 0.46 0.45 0.45 0.47 0.44 0.42 0.49 0.57 0.56 0.55 0.57 0.59 0.59 0.61 0.67
0.21 0.20 0.20 0.21 0.22 0.21 0.20 0.20 0.21 0.22 0.23 0.26 0.28 0.27 0.26 0.26 0.26 0.26 0.26 0.26 0.27 0.27 0.29 0.31 0.32 0.33 0.37 0.44 0.47 0.47 0.51 0.53 0.49 0.43 0.43 0.52 0.56 0.57 0.61 0.63 0.66 0.72 0.81
0.23 0.23 0.23 0.22 0.22 0.22 0.23 0.24 0.24 0.26 0.26 0.26 0.27 0.28 0.27 0.27 0.28 0.30 0.30 0.30 0.29 0.28 0.29 0.31 0.34 0.34 0.35 0.41 0.46 0.52 0.53 0.50 0.52 0.55 0.50 0.50 0.55 0.59 0.66 0.72 0.76 0.84 0.91

GEFSGL_prec_meanprecacc_216.txt.gz
Total_Precipitation_Accumulation
0.82 0.90 0.91 0.84 0.85 0.90 0.88 0.81 0.76 0.80 0.86 0.98 1.02 1.17 1.32 1.50 1.68 1.82 1.84 1.85 1.89 1.88 1.82 1.92 2.04 2.13 2.25 2.27 2.25 2.13 2.00 1.95 1.87 1.73 1.53 1.42 1.57 1.58 1.50 1.44 1.32 1.25 1.24
0.82 0.84 0.86 0.78 0.73 0.78 0.79 0.81 0.71 0.68 0.70 0.77 0.91 1.11 1.23 1.31 1.36 1.44 1.52 1.58 1.63 1.69 1.67 1.64 1.71 1.81 1.97 2.12 2.21 2.15 2.14 2.03 1.94 1.94 1.77 1.53 1.44 1.52 1.56 1.64 1.54 1.30 1.27
0.96 1.02 0.94 0.81 0.76 0.76 0.75 0.80 0.73 0.68 0.69 0.72 0.85 1.00 1.06 1.12 1.16 1.17 1.28 1.37 1.38 1.38 1.45 1.41 1.42 1.50 1.65 1.80 1.90 1.98 2.09 2.11 2.11 2.02 1.94 1.77 1.54 1.55 1.62 1.64 1.67 1.72 1.48
1.20 1.18 1.02 0.90 0.81 0.74 0.72 0.74 0.72 0.72 0.73 0.75 0.90 0.98 1.00 0.96 1.05 1.08 1.14 1.17 1.14 1.09 1.14 1.15 1.19 1.24 1.33 1.47 1.62 1.83 2.01 2.11 2.18 2.16 2.06 1.84 1.68 1.66 1.64 1.66 1.75 1.82 1.79
1.17 1.07 0.96 0.86 0.74 0.68 0.71 0.68 0.71 0.77 0.76 0.78 0.83 0.93 0.97 0.95 0.99 1.05 1.04 0.98 0.98 0.97 0.92 0.83 0.85 0.93 0.97 1.06 1.10 1.39 1.64 1.86 1.98 2.05 2.03 1.88 1.68 1.58 1.46 1.49 1.63 1.81 1.88
1.08 0.97 0.82 0.74 0.72 0.66 0.63 0.59 0.59 0.62 0.64 0.66 0.70 0.86 0.97 0.87 0.98 0.98 0.90 0.83 0.80 0.85 0.81 0.74 0.72 0.76 0.69 0.67 0.71 0.93 1.22 1.42 1.59 1.78 1.84 1.72 1.58 1.51 1.56 1.55 1.55 1.61 1.65
0.83 0.77 0.67 0.62 0.59 0.54 0.51 0.52 0.54 0.55 0.56 0.60 0.63 0.78 0.87 0.95 0.89 0.74 0.78 0.77 0.78 0.82 0.84 0.86 0.78 0.73 0.82 0.73 0.67 0.74 0.82 0.93 1.09 1.36 1.59 1.57 1.66 1.60 1.51 1.45 1.46 1.50 1.50
0.73 0.72 0.64 0.58 0.53 0.48 0.45 0.47 0.56 0.57 0.54 0.57 0.60 0.63 0.71 0.84 0.78 0.63 0.67 0.66 0.77 0.86 0.90 0.97 0.99 0.93 0.91 0.98 0.92 0.92 0.89 0.81 0.89 0.81 1.02 1.39 1.53 1.60 1.55 1.58 1.67 1.60 1.48
0.53 0.57 0.51 0.44 0.46 0.50 0.48 0.52 0.55 0.56 0.58 0.58 0.61 0.62 0.67 0.72 0.69 0.62 0.64 0.70 0.84 0.86 0.82 0.93 0.98 0.94 1.00 1.06 1.16 1.22 1.15 0.99 1.10 1.10 1.00 1.11 1.25 1.31 1.42 1.52 1.59 1.52 1.48
0.30 0.36 0.36 0.34 0.37 0.44 0.55 0.61 0.57 0.53 0.57 0.58 0.56 0.54 0.56 0.58 0.64 0.56 0.67 0.77 0.82 0.84 0.85 0.91 1.06 0.99 0.97 0.94 1.02 1.16 1.14 1.01 0.89 0.92 0.89 0.78 0.72 0.83 1.03 1.20 1.49 1.61 1.56
0.23 0.25 0.26 0.29 0.32 0.41 0.47 0.45 0.44 0.46 0.48 0.50 0.53 0.51 0.51 0.58 0.70 0.70 0.75 0.76 0.81 0.87 0.96 1.01 0.99 1.08 0.92 0.88 0.89 0.90 0.99 0.98 0.95 1.00 1.07 0.96 0.83 0.78 0.83 0.91 1.12 1.35 1.49
0.21 0.21 0.22 0.22 0.22 0.26 0.32 0.36 0.38 0.39 0.39 0.39 0.41 0.40 0.43 0.55 0.63 0.65 0.68 0.72 0.79 0.79 0.85 0.86 0.83 0.93 0.79 0.70 0.64 0.70 0.77 0.83 0.91 1.04 1.03 0.99 0.98 0.92 0.90 0.93 0.98 1.09 1.20
0.23 0.20 0.19 0.20 0.20 0.22 0.27 0.31 0.34 0.37 0.38 0.35 0.33 0.35 0.39 0.43 0.51 0.54 0.54 0.53 0.55 0.58 0.57 0.67 0.70 0.68 0.63 0.56 0.60 0.64 0.66 0.69 0.80 0.89 0.91 0.88 0.88 0.92 0.93 0.93 0.95 1.00 1.00
0.19 0.19 0.19 0.20 0.21 0.20 0.24 0.30 0.36 0.36 0.32 0.31 0.33 0.35 0.40 0.43 0.43 0.43 0.45 0.45 0.44 0.49 0.48 0.51 0.53 0.51 0.52 0.54 0.56 0.60 0.66 0.70 0.73 0.77 0.78 0.81 0.82 0.88 0.95 0.92 0.93 0.99 1.05
0.17 0.16 0.17 0.18 0.20 0.20 0.19 0.21 0.27 0.30 0.28 0.30 0.33 0.36 0.40 0.43 0.40 0.36 0.36 0.41 0.46 0.51 0.57 0.53 0.51 0.52 0.53 0.59 0.61 0.60 0.64 0.68 0.68 0.67 0.70 0.72 0.72 0.78 0.83 0.84 0.87 0.92 0.95
0.18 0.17 0.18 0.18 0.19 0.17 0.17 0.18 0.21 0.21 0.24 0.24 0.23 0.25 0.24 0.23 0.25 0.24 0.25 0.29 0.36 0.42 0.56 0.64 0.67 0.73 0.75 0.73 0.71 0.62 0.58 0.59 0.64 0.70 0.70 0.71 0.72 0.71 0.75 0.79 0.83 0.90 0.92
0.21 0.20 0.18 0.18 0.16 0.16 0.17 0.20 0.22 0.20 0.17 0.16 0.16 0.15 0.17 0.18 0.20 0.20 0.21 0.24 0.28 0.34 0.54 0.71 0.73 0.70 0.67 0.65 0.61 0.55 0.50 0.47 0.50 0.59 0.69 0.76 0.77 0.78 0.81 0.85 0.85 0.83 0.83
0.25 0.26 0.22 0.18 0.18 0.19 0.20 0.23 0.29 0.31 0.26 0.18 0.16 0.15 0.15 0.15 0.16 0.19 0.25 0.32 0.31 0.34 0.51 0.62 0.64 0.62 0.54 0.48 0.42 0.37 0.37 0.35 0.35 0.41 0.47 0.57 0.73 0.84 0.92 0.95 0.96 0.98 0.97
0.26 0.27 0.26 0.26 0.23 0.21 0.23 0.27 0.31 0.30 0.25 0.20 0.18 0.17 0.16 0.15 0.14 0.15 0.20 0.27 0.28 0.28 0.31 0.34 0.36 0.38 0.36 0.32 0.30 0.30 0.31 0.31 0.31 0.33 0.37 0.42 0.53 0.69 0.87 0.97 1.00 1.04 1.03
0.19 0.25 0.27 0.29 0.27 0.23 0.22 0.23 0.26 0.25 0.21 0.21 0.20 0.18 0.17 0.17 0.17 0.17 0.17 0.20 0.23 0.23 0.22 0.23 0.26 0.26 0.25 0.26 0.26 0.27 0.31 0.32 0.30 0.33 0.38 0.45 0.55 0.62 0.68 0.80 0.93 0.97 0.90
0.14 0.16 0.19 0.23 0.25 0.24 0.22 0.19 0.21 0.24 0.22 0.20 0.20 0.19 0.19 0.21 0.23 0.20 0.18 0.19 0.21 0.24 0.24 0.26 0.28 0.28 0.28 0.32 0.32 0.32 0.32 0.34 0.33 0.34 0.37 0.45 0.54 0.64 0.70 0.73 0.76 0.80 0.84
0.13 0.13 0.13 0.16 0.21 0.24 0.23 0.21 0.21 0.23 0.23 0.21 0.21 0.21 0.23 0.23 0.25 0.26 0.25 0.25 0.27 0.29 0.30 0.33 0.35 0.34 0.33 0.35 0.38 0.38 0.39 0.38 0.37 0.37 0.40 0.42 0.46 0.53 0.62 0.70 0.73 0.74 0.76
0.12 0.12 0.14 0.16 0.18 0.21 0.23 0.22 0.22 0.23 0.24 0.24 0.22 0.21 0.21 0.23 0.25 0.26 0.29 0.30 0.31 0.33 0.36 0.42 0.43 0.42 0.41 0.42 0.43 0.42 0.43 0.43 0.42 0.43 0.47 0.49 0.48 0.49 0.55 0.60 0.62 0.64 0.67
0.16 0.17 0.19 0.20 0.21 0.20 0.20 0.22 0.23 0.23 0.24 0.25 0.26 0.26 0.26 0.25 0.25 0.25 0.26 0.28 0.29 0.31 0.33 0.37 0.40 0.42 0.45 0.48 0.49 0.47 0.47 0.49 0.45 0.44 0.51 0.58 0.58 0.57 0.59 0.61 0.61 0.62 0.68
0.21 0.20 0.21 0.22 0.22 0.22 0.21 0.21 0.22 0.23 0.24 0.27 0.30 0.29 0.28 0.28 0.28 0.28 0.28 0.29 0.30 0.30 0.31 0.32 0.34 0.38 0.43 0.50 0.52 0.49 0.53 0.55 0.52 0.46 0.45 0.53 0.57 0.59 0.62 0.65 0.68 0.74 0.82
0.23 0.23 0.23 0.22 0.22 0.23 0.24 0.24 0.25 0.27 0.27 0.27 0.29 0.29 0.29 0.30 0.31 0.32 0.33 0.32 0.32 0.30 0.30 0.32 0.35 0.35 0.37 0.44 0.51 0.56 0.55 0.52 0.54 0.58 0.53 0.53 0.57 0.61 0.68 0.74 0.78 0.86 0.93

GEFSGL_prec_meanprecacc_222.txt.gz
Total_Precipitation_Accumulation
0.85 0.94 0.94 0.87 0.90 0.94 0.91 0.83 0.79 0.82 0.88 0.99 1.03 1.18 1.33 1.51 1.70 1.84 1.87 1.88 1.90 1.89 1.83 1.93 2.06 2.15 2.26 2.28 2.27 2.15 2.01 1.97 1.88 1.74 1.55 1.44 1.58 1.59 1.51 1.44 1.32 1.25 1.25
0.84 0.88 0.90 0.82 0.78 0.82 0.82 0.84 0.73 0.69 0.72 0.79 0.93 1.12 1.24 1.32 1.37 1.46 1.54 1.60 1.66 1.72 1.71 1.67 1.75 1.85 2.00 2.15 2.24 2.18 2.17 2.06 1.96 1.96 1.80 1.56 1.47 1.53 1.58 1.65 1.54 1.31 1.27
0.98 1.06 0.97 0.84 0.80 0.82 0.78 0.83 0.75 0.69 0.71 0.74 0.88 1.02 1.08 1.13 1.17 1.18 1.29 1.39 1.42 1.42 1.49 1.45 1.46 1.54 1.69 1.84 1.94 2.01 2.12 2.14 2.14 2.06 1.99 1.81 1.57 1.58 1.64 1.65 1.67 1.72 1.49
1.22 1.21 1.05 0.93 0.84 0.79 0.77 0.78 0.76 0.75 0.76 0.79 0.93 1.01 1.03 0.99 1.08 1.10 1.15 1.19 1.17 1.13 1.17 1.18 1.21 1.26 1.36 1.51 1.66 1.87 2.05 2.14 2.20 2.18 2.08 1.87 1.70 1.67 1.65 1.66 1.75 1.82 1.80
1.18 1.09 1.00 0.89 0.77 0.71 0.74 0.71 0.75 0.82 0.81 0.83 0.86 0.96 1.00 0.97 1.02 1.08 1.06 1.00 1.00 0.99 0.95 0.85 0.87 0.95 0.99 1.09 1.13 1.42 1.67 1.89 2.01 2.07 2.04 1.90 1.70 1.59 1.46 1.49 1.63 1.81 1.89
1.10 0.98 0.85 0.77 0.75 0.68 0.65 0.62 0.62 0.65 0.68 0.71 0.75 0.90 1.00 0.89 1.00 0.99 0.91 0.84 0.82 0.87 0.83 0.75 0.73 0.78 0.72 0.69 0.72 0.95 1.25 1.44 1.62 1.80 1.86 1.74 1.60 1.52 1.56 1.55 1.55 1.62 1.65
0.86 0.79 0.69 0.63 0.61 0.56 0.53 0.54 0.57 0.58 0.60 0.63 0.66 0.80 0.90 0.97 0.90 0.75 0.80 0.79 0.80 0.84 0.86 0.87 0.78 0.74 0.83 0.74 0.68 0.75 0.83 0.95 1.11 1.38 1.61 1.60 1.69 1.62 1.52 1.46 1.47 1.50 1.51
0.76 0.74 0.66 0.59 0.54 0.50 0.47 0.49 0.59 0.60 0.56 0.59 0.62 0.64 0.72 0.86 0.80 0.65 0.69 0.67 0.79 0.88 0.91 0.98 0.99 0.93 0.92 0.99 0.92 0.93 0.89 0.83 0.90 0.82 1.03 1.40 1.55 1.61 1.57 1.59 1.68 1.61 1.48
0.55 0.60 0.54 0.46 0.48 0.53 0.49 0.54 0.57 0.58 0.60 0.60 0.62 0.63 0.68 0.73 0.70 0.63 0.66 0.71 0.85 0.87 0.83 0.94 0.99 0.94 1.00 1.06 1.16 1.22 1.15 1.00 1.11 1.11 1.02 1.13 1.27 1.33 1.44 1.54 1.61 1.54 1.49
0.34 0.39 0.39 0.36 0.39 0.48 0.57 0.63 0.59 0.55 0.59 0.61 0.58 0.55 0.58 0.59 0.65 0.57 0.68 0.78 0.83 0.85 0.86 0.92 1.06 0.99 0.97 0.95 1.02 1.16 1.15 1.02 0.89 0.92 0.89 0.79 0.73 0.84 1.04 1.21 1.50 1.62 1.57
0.27 0.29 0.30 0.30 0.34 0.43 0.49 0.48 0.47 0.49 0.52 0.53 0.54 0.52 0.52 0.59 0.71 0.71 0.76 0.77 0.82 0.88 0.97 1.02 1.00 1.09 0.92 0.88 0.89 0.90 1.00 0.98 0.96 1.00 1.07 0.96 0.84 0.79 0.83 0.92 1.14 1.37 1.51
0.24 0.25 0.25 0.23 0.24 0.27 0.34 0.38 0.40 0.42 0.42 0.41 0.43 0.42 0.45 0.56 0.65 0.67 0.69 0.74 0.81 0.81 0.86 0.87 0.85 0.94 0.79 0.70 0.65 0.72 0.79 0.83 0.91 1.04 1.03 0.99 0.98 0.92 0.91 0.94 1.00 1.11 1.21
0.25 0.23 0.22 0.22 0.22 0.24 0.29 0.33 0.36 0.39 0.40 0.38 0.35 0.36 0.41 0.45 0.53 0.56 0.56 0.55 0.57 0.60 0.58 0.68 0.71 0.69 0.64 0.58 0.62 0.66 0.67 0.69 0.80 0.89 0.91 0.88 0.88 0.92 0.93 0.94 0.97 1.01 1.01
0.21 0.21 0.21 0.22 0.23 0.23 0.26 0.32 0.38 0.37 0.33 0.32 0.34 0.37 0.42 0.45 0.45 0.45 0.47 0.47 0.46 0.50 0.49 0.52 0.54 0.52 0.53 0.55 0.58 0.61 0.67 0.70 0.74 0.77 0.78 0.81 0.82 0.89 0.95 0.93 0.94 1.01 1.08
0.19 0.18 0.19 0.20 0.22 0.23 0.21 0.23 0.29 0.31 0.29 0.31 0.34 0.38 0.42 0.44 0.42 0.39 0.38 0.43 0.48 0.52 0.58 0.54 0.52 0.52 0.53 0.59 0.62 0.61 0.64 0.69 0.68 0.67 0.70 0.72 0.72 0.78 0.83 0.85 0.88 0.93 0.97
0.20 0.20 0.20 0.20 0.21 0.20 0.20 0.21 0.23 0.22 0.25 0.25 0.24 0.26 0.24 0.25 0.28 0.27 0.28 0.31 0.38 0.44 0.57 0.65 0.68 0.74 0.75 0.74 0.72 0.64 0.59 0.59 0.65 0.70 0.71 0.71 0.72 0.71 0.76 0.80 0.83 0.91 0.94
0.24 0.23 0.21 0.21 0.19 0.18 0.19 0.22 0.24 0.21 0.18 0.17 0.17 0.16 0.18 0.20 0.22 0.22 0.22 0.26 0.29 0.35 0.54 0.71 0.73 0.71 0.68 0.66 0.63 0.56 0.51 0.48 0.50 0.60 0.70 0.77 0.78 0.78 0.81 0.85 0.85 0.84 0.84
0.30 0.31 0.26 0.22 0.21 0.21 0.22 0.25 0.31 0.33 0.27 0.19 0.18 0.17 0.17 0.17 0.18 0.21 0.27 0.33 0.31 0.34 0.52 0.63 0.65 0.64 0.56 0.50 0.44 0.38 0.38 0.37 0.37 0.42 0.48 0.58 0.73 0.84 0.92 0.95 0.97 0.99 0.98
0.31 0.33 0.33 0.32 0.28 0.26 0.26 0.30 0.33 0.31 0.26 0.21 0.18 0.18 0.17 0.17 0.17 0.18 0.22 0.28 0.28 0.29 0.33 0.36 0.37 0.39 0.38 0.34 0.31 0.31 0.32 0.32 0.33 0.35 0.39 0.44 0.54 0.70 0.87 0.98 1.00 1.05 1.05
0.22 0.28 0.31 0.33 0.32 0.29 0.27 0.27 0.29 0.27 0.23 0.21 0.21 0.19 0.19 0.20 0.20 0.19 0.19 0.22 0.25 0.25 0.25 0.27 0.28 0.27 0.27 0.27 0.27 0.29 0.32 0.33 0.32 0.35 0.41 0.47 0.58 0.64 0.70 0.81 0.95 0.99 0.92
0.16 0.18 0.21 0.25 0.28 0.27 0.26 0.23 0.26 0.28 0.24 0.22 0.21 0.21 0.21 0.24 0.26 0.23 0.21 0.22 0.24 0.26 0.27 0.29 0.31 0.31 0.30 0.34 0.34 0.34 0.34 0.36 0.35 0.36 0.40 0.47 0.56 0.67 0.73 0.76 0.79 0.82 0.86
0.15 0.14 0.15 0.18 0.23 0.26 0.26 0.24 0.24 0.27 0.27 0.25 0.25 0.25 0.26 0.25 0.27 0.27 0.27 0.27 0.29 0.31 0.33 0.36 0.39 0.37 0.35 0.37 0.40 0.41 0.40 0.40 0.39 0.40 0.43 0.46 0.50 0.57 0.67 0.75 0.76 0.77 0.78
0.13 0.13 0.15 0.18 0.20 0.23 0.25 0.24 0.24 0.25 0.26 0.27 0.26 0.25 0.24 0.25 0.26 0.27 0.31 0.32 0.33 0.35 0.38 0.45 0.47 0.45 0.43 0.44 0.45 0.44 0.44 0.44 0.44 0.44 0.48 0.50 0.50 0.53 0.59 0.64 0.65 0.67 0.70
0.17 0.18 0.20 0.22 0.22 0.22 0.22 0.24 0.25 0.24 0.25 0.26 0.28 0.28 0.28 0.27 0.27 0.27 0.28 0.29 0.31 0.33 0.36 0.39 0.43 0.45 0.48 0.50 0.51 0.49 0.49 0.51 0.47 0.45 0.52 0.60 0.60 0.59 0.62 0.65 0.65 0.66 0.72
0.21 0.21 0.22 0.23 0.24 0.24 0.23 0.23 0.24 0.25 0.26 0.29 0.31 0.30 0.30 0.30 0.30 0.30 0.30 0.30 0.32 0.32 0.33 0.35 0.37 0.40 0.45 0.52 0.53 0.51 0.55 0.57 0.53 0.46 0.46 0.54 0.59 0.61 0.65 0.68 0.71 0.77 0.86
0.24 0.23 0.24 0.23 0.23 0.24 0.26 0.27 0.27 0.29 0.29 0.30 0.30 0.31 0.30 0.31 0.32 0.34 0.35 0.34 0.33 0.32 0.32 0.35 0.38 0.38 0.39 0.46 0.53 0.57 0.56 0.52 0.54 0.58 0.53 0.53 0.58 0.63 0.70 0.76 0.80 0.89 0.96

GEFSGL_prec_meanprecacc_228.txt.gz
Total_Precipitation_Accumulation
0.90 0.99 0.99 0.91 0.94 0.98 0.95 0.89 0.84 0.87 0.92 1.00 1.04 1.19 1.34 1.52 1.71 1.86 1.89 1.90 1.92 1.91 1.84 1.95 2.07 2.16 2.28 2.30 2.30 2.19 2.05 1.98 1.90 1.76 1.57 1.46 1.59 1.60 1.51 1.45 1.32 1.25 1.25
0.90 0.93 0.95 0.85 0.83 0.87 0.86 0.89 0.78 0.73 0.74 0.81 0.94 1.14 1.25 1.34 1.39 1.47 1.55 1.62 1.67 1.73 1.72 1.69 1.76 1.86 2.02 2.17 2.26 2.21 2.20 2.08 1.99 1.99 1.83 1.59 1.49 1.56 1.59 1.66 1.56 1.32 1.28
1.02 1.09 1.01 0.86 0.85 0.88 0.83 0.88 0.80 0.72 0.72 0.76 0.89 1.04 1.10 1.15 1.18 1.20 1.31 1.41 1.43 1.44 1.50 1.47 1.47 1.55 1.70 1.85 1.95 2.02 2.14 2.16 2.17 2.10 2.04 1.87 1.63 1.62 1.67 1.68 1.69 1.73 1.50
1.26 1.23 1.08 0.96 0.88 0.84 0.82 0.84 0.80 0.77 0.78 0.80 0.95 1.03 1.05 1.02 1.11 1.14 1.20 1.23 1.19 1.15 1.19 1.19 1.22 1.27 1.37 1.52 1.67 1.88 2.06 2.15 2.22 2.20 2.11 1.90 1.74 1.71 1.68 1.69 1.77 1.84 1.81
1.20 1.12 1.03 0.93 0.81 0.75 0.78 0.75 0.78 0.83 0.82 0.84 0.88 0.99 1.02 1.00 1.05 1.12 1.10 1.03 1.03 1.02 0.96 0.86 0.88 0.96 1.00 1.10 1.14 1.43 1.68 1.90 2.02 2.08 2.06 1.92 1.72 1.63 1.50 1.53 1.66 1.83 1.90
1.11 0.99 0.87 0.80 0.79 0.72 0.68 0.65 0.65 0.68 0.70 0.72 0.77 0.93 1.03 0.91 1.02 1.01 0.93 0.86 0.83 0.88 0.85 0.77 0.74 0.79 0.73 0.70 0.74 0.96 1.25 1.44 1.62 1.80 1.87 1.75 1.61 1.55 1.60 1.59 1.59 1.64 1.67
0.88 0.81 0.71 0.66 0.64 0.58 0.55 0.56 0.59 0.61 0.62 0.65 0.67 0.82 0.91 0.97 0.91 0.76 0.81 0.80 0.81 0.85 0.87 0.89 0.80 0.75 0.85 0.75 0.69 0.76 0.84 0.95 1.11 1.38 1.61 1.60 1.70 1.63 1.54 1.49 1.51 1.55 1.54
0.78 0.76 0.68 0.61 0.56 0.52 0.48 0.50 0.60 0.62 0.59 0.61 0.63 0.65 0.73 0.87 0.81 0.66 0.70 0.69 0.80 0.89 0.92 1.00 1.00 0.94 0.92 0.99 0.92 0.93 0.90 0.83 0.91 0.83 1.03 1.41 1.56 1.62 1.58 1.62 1.72 1.66 1.52
0.57 0.62 0.56 0.47 0.50 0.54 0.51 0.55 0.59 0.59 0.62 0.61 0.63 0.64 0.69 0.74 0.72 0.65 0.67 0.72 0.85 0.88 0.84 0.96 1.00 0.95 1.01 1.06 1.17 1.23 1.15 1.00 1.11 1.11 1.02 1.13 1.28 1.34 1.45 1.56 1.63 1.57 1.52
0.36 0.41 0.41 0.38 0.41 0.49 0.58 0.64 0.60 0.56 0.61 0.62 0.59 0.56 0.59 0.60 0.67 0.59 0.69 0.79 0.84 0.85 0.86 0.92 1.07 1.00 0.98 0.95 1.03 1.17 1.16 1.02 0.90 0.93 0.90 0.80 0.74 0.85 1.05 1.23 1.52 1.64 1.59
0.30 0.32 0.32 0.32 0.35 0.44 0.50 0.48 0.48 0.50 0.53 0.54 0.56 0.54 0.53 0.60 0.72 0.72 0.78 0.79 0.83 0.89 0.97 1.02 1.00 1.09 0.93 0.89 0.89 0.91 1.00 0.99 0.96 1.01 1.08 0.97 0.84 0.80 0.84 0.93 1.15 1.39 1.54
0.26 0.28 0.27 0.25 0.25 0.28 0.35 0.39 0.42 0.43 0.45 0.44 0.45 0.44 0.47 0.58 0.66 0.68 0.71 0.75 0.83 0.82 0.87 0.88 0.85 0.94 0.80 0.71 0.66 0.72 0.79 0.84 0.92 1.05 1.04 1.00 0.98 0.93 0.91 0.95 1.01 1.13 1.24
0.27 0.26 0.25 0.24 0.24 0.26 0.30 0.34 0.37 0.41 0.43 0.41 0.38 0.39 0.43 0.47 0.55 0.58 0.58 0.57 0.60 0.62 0.59 0.70 0.72 0.70 0.65 0.58 0.62 0.67 0.68 0.70 0.81 0.90 0.92 0.89 0.88 0.92 0.93 0.94 0.98 1.03 1.03
0.23 0.23 0.23 0.24 0.25 0.25 0.28 0.33 0.39 0.39 0.36 0.35 0.37 0.39 0.44 0.47 0.47 0.47 0.49 0.49 0.48 0.52 0.51 0.54 0.56 0.54 0.54 0.56 0.59 0.63 0.68 0.72 0.75 0.78 0.79 0.82 0.83 0.89 0.95 0.94 0.95 1.02 1.10
0.20 0.19 0.20 0.21 0.24 0.24 0.22 0.23 0.30 0.33 0.31 0.33 0.35 0.39 0.43 0.46 0.44 0.41 0.40 0.45 0.50 0.54 0.60 0.56 0.53 0.54 0.55 0.62 0.65 0.64 0.66 0.70 0.69 0.69 0.71 0.73 0.73 0.79 0.84 0.85 0.89 0.95 1.00
0.21 0.20 0.21 0.21 0.22 0.22 0.22 0.22 0.25 0.25 0.27 0.28 0.26 0.27 0.26 0.26 0.29 0.29 0.30 0.34 0.40 0.46 0.60 0.67 0.69 0.75 0.78 0.78 0.75 0.66 0.60 0.60 0.65 0.71 0.71 0.72 0.73 0.72 0.76 0.80 0.84 0.92 0.97
0.25 0.24 0.22 0.22 0.20 0.20 0.22 0.25 0.27 0.24 0.20 0.20 0.19 0.17 0.19 0.21 0.23 0.24 0.24 0.28 0.31 0.38 0.58 0.74 0.76 0.75 0.71 0.69 0.65 0.58 0.52 0.49 0.51 0.60 0.70 0.77 0.79 0.79 0.82 0.87 0.87 0.86 0.87
0.31 0.32 0.27 0.23 0.23 0.23 0.24 0.28 0.34 0.36 0.30 0.22 0.20 0.19 0.18 0.19 0.20 0.22 0.29 0.36 0.34 0.37 0.55 0.65 0.68 0.66 0.59 0.53 0.46 0.41 0.39 0.38 0.37 0.42 0.49 0.58 0.74 0.86 0.94 0.97 0.99 1.01 1.00
0.32 0.35 0.34 0.34 0.31 0.29 0.30 0.33 0.37 0.36 0.29 0.25 0.22 0.20 0.19 0.19 0.19 0.20 0.24 0.30 0.31 0.33 0.36 0.38 0.40 0.42 0.41 0.36 0.33 0.33 0.34 0.33 0.34 0.36 0.40 0.45 0.56 0.71 0.89 0.99 1.02 1.07 1.07
0.23 0.30 0.34 0.37 0.36 0.33 0.34 0.34 0.36 0.34 0.28 0.25 0.24 0.21 0.21 0.21 0.21 0.21 0.22 0.26 0.29 0.30 0.29 0.29 0.31 0.32 0.31 0.30 0.29 0.31 0.34 0.35 0.33 0.36 0.42 0.48 0.59 0.65 0.71 0.82 0.97 1.00 0.94
0.16 0.19 0.23 0.28 0.32 0.31 0.30 0.30 0.34 0.36 0.30 0.27 0.25 0.24 0.25 0.26 0.28 0.25 0.23 0.25 0.27 0.29 0.30 0.32 0.34 0.34 0.33 0.36 0.36 0.36 0.36 0.38 0.37 0.38 0.42 0.49 0.58 0.68 0.74 0.77 0.80 0.84 0.89
0.15 0.16 0.17 0.20 0.25 0.28 0.28 0.26 0.29 0.33 0.33 0.30 0.29 0.29 0.30 0.29 0.30 0.30 0.30 0.29 0.30 0.32 0.34 0.38 0.41 0.40 0.37 0.39 0.42 0.43 0.43 0.43 0.42 0.43 0.46 0.48 0.51 0.58 0.67 0.75 0.78 0.79 0.81
0.14 0.14 0.16 0.19 0.22 0.25 0.27 0.26 0.26 0.29 0.31 0.31 0.29 0.29 0.28 0.28 0.29 0.30 0.33 0.33 0.34 0.36 0.39 0.46 0.48 0.46 0.45 0.45 0.46 0.45 0.46 0.47 0.47 0.47 0.51 0.53 0.52 0.54 0.60 0.65 0.66 0.69 0.72
0.17 0.19 0.21 0.23 0.23 0.22 0.23 0.25 0.27 0.27 0.29 0.30 0.31 0.31 0.31 0.30 0.29 0.29 0.30 0.31 0.32 0.34 0.37 0.40 0.44 0.46 0.49 0.52 0.53 0.51 0.51 0.53 0.49 0.48 0.55 0.63 0.63 0.61 0.63 0.66 0.66 0.68 0.74
0.22 0.22 0.22 0.24 0.25 0.24 0.24 0.24 0.25 0.27 0.28 0.31 0.33 0.34 0.33 0.32 0.33 0.32 0.31 0.32 0.33 0.33 0.34 0.36 0.37 0.41 0.46 0.53 0.54 0.53 0.58 0.60 0.57 0.50 0.49 0.57 0.61 0.63 0.67 0.70 0.73 0.79 0.88
0.24 0.24 0.25 0.24 0.24 0.25 0.26 0.28 0.28 0.31 0.31 0.32 0.33 0.33 0.33 0.34 0.35 0.36 0.37 0.36 0.35 0.33 0.33 0.35 0.38 0.38 0.40 0.47 0.54 0.59 0.60 0.56 0.59 0.62 0.56 0.56 0.61 0.65 0.72 0.79 0.83 0.91 0.98

GEFSGL_prec_meanprecacc_234.txt.gz
Total_Precipitation_Accumulation
0.93 1.01 1.03 0.95 0.98 1.01 0.99 0.92 0.88 0.89 0.94 1.03 1.07 1.22 1.37 1.56 1.74 1.88 1.92 1.92 1.95 1.94 1.86 1.97 2.10 2.18 2.29 2.33 2.35 2.25 2.10 2.03 1.95 1.80 1.60 1.47 1.60 1.61 1.52 1.46 1.33 1.26 1.26
0.93 0.96 0.99 0.89 0.86 0.91 0.90 0.93 0.82 0.76 0.78 0.84 0.97 1.17 1.28 1.36 1.41 1.50 1.59 1.65 1.70 1.76 1.75 1.72 1.79 1.88 2.04 2.19 2.29 2.26 2.25 2.13 2.03 2.03 1.86 1.61 1.51 1.57 1.61 1.68 1.57 1.34 1.30
1.05 1.15 1.07 0.91 0.89 0.91 0.86 0.92 0.85 0.79 0.78 0.80 0.92 1.07 1.12 1.18 1.21 1.24 1.36 1.46 1.47 1.47 1.53 1.49 1.49 1.57 1.72 1.87 1.96 2.05 2.18 2.21 2.22 2.16 2.09 1.92 1.67 1.65 1.70 1.70 1.71 1.75 1.52
1.28 1.29 1.15 1.02 0.91 0.87 0.85 0.88 0.86 0.85 0.85 0.87 0.99 1.06 1.08 1.06 1.15 1.19 1.25 1.27 1.21 1.17 1.21 1.20 1.23 1.28 1.38 1.53 1.69 1.90 2.07 2.18 2.24 2.23 2.15 1.95 1.78 1.74 1.70 1.71 1.79 1.86 1.83
1.22 1.16 1.08 0.97 0.84 0.78 0.82 0.81 0.85 0.89 0.88 0.90 0.94 1.04 1.07 1.05 1.10 1.17 1.14 1.07 1.05 1.03 0.98 0.88 0.90 0.98 1.01 1.11 1.15 1.44 1.70 1.91 2.03 2.09 2.07 1.93 1.74 1.64 1.51 1.54 1.67 1.85 1.92
1.13 1.02 0.90 0.84 0.82 0.76 0.73 0.70 0.71 0.74 0.75 0.77 0.82 0.98 1.07 0.97 1.08 1.06 0.97 0.89 0.85 0.90 0.86 0.78 0.77 0.82 0.75 0.72 0.75 0.97 1.26 1.45 1.64 1.82 1.88 1.77 1.63 1.56 1.61 1.60 1.60 1.66 1.69
0.89 0.83 0.74 0.71 0.68 0.62 0.60 0.61 0.65 0.67 0.68 0.70 0.72 0.86 0.96 1.02 0.95 0.79 0.84 0.83 0.83 0.86 0.89 0.90 0.81 0.77 0.86 0.76 0.70 0.77 0.85 0.96 1.12 1.39 1.62 1.61 1.71 1.64 1.56 1.50 1.52 1.56 1.56
0.79 0.78 0.72 0.65 0.60 0.55 0.51 0.53 0.64 0.66 0.63 0.64 0.66 0.68 0.76 0.90 0.85 0.68 0.72 0.71 0.82 0.91 0.94 1.01 1.01 0.95 0.93 1.00 0.93 0.94 0.90 0.84 0.92 0.84 1.04 1.42 1.57 1.63 1.59 1.63 1.73 1.67 1.54
0.58 0.64 0.60 0.51 0.53 0.56 0.53 0.57 0.62 0.63 0.66 0.64 0.65 0.66 0.71 0.76 0.74 0.67 0.69 0.74 0.86 0.89 0.85 0.97 1.01 0.97 1.02 1.08 1.17 1.23 1.15 1.00 1.11 1.12 1.02 1.14 1.29 1.34 1.46 1.56 1.63 1.57 1.53
0.37 0.43 0.45 0.41 0.44 0.51 0.60 0.66 0.63 0.60 0.64 0.65 0.61 0.58 0.61 0.62 0.68 0.60 0.71 0.81 0.86 0.86 0.87 0.93 1.09 1.01 0.98 0.96 1.03 1.17 1.16 1.02 0.90 0.93 0.90 0.80 0.75 0.86 1.06 1.23 1.52 1.65 1.60
0.32 0.34 0.36 0.35 0.37 0.46 0.51 0.50 0.50 0.53 0.56 0.57 0.58 0.56 0.55 0.62 0.74 0.74 0.80 0.81 0.85 0.91 0.99 1.03 1.01 1.10 0.94 0.89 0.90 0.91 1.00 0.99 0.97 1.01 1.08 0.97 0.85 0.81 0.85 0.94 1.16 1.40 1.55
0.28 0.31 0.31 0.28 0.27 0.30 0.36 0.40 0.43 0.44 0.46 0.45 0.46 0.46 0.49 0.60 0.68 0.69 0.72 0.77 0.85 0.84 0.89 0.89 0.86 0.96 0.81 0.72 0.66 0.73 0.80 0.85 0.93 1.05 1.05 1.00 0.99 0.93 0.92 0.95 1.02 1.14 1.25
0.29 0.29 0.29 0.27 0.26 0.27 0.32 0.35 0.39 0.43 0.45 0.43 0.40 0.40 0.45 0.50 0.57 0.59 0.59 0.59 0.63 0.64 0.61 0.72 0.74 0.72 0.67 0.59 0.63 0.67 0.69 0.71 0.82 0.91 0.93 0.89 0.88 0.93 0.94 0.95 0.99 1.04 1.04
0.26 0.26 0.26 0.27 0.28 0.27 0.30 0.35 0.41 0.41 0.38 0.37 0.38 0.40 0.45 0.49 0.49 0.49 0.51 0.51 0.50 0.54 0.53 0.56 0.59 0.56 0.56 0.57 0.60 0.64 0.69 0.73 0.76 0.79 0.80 0.83 0.83 0.89 0.96 0.94 0.96 1.03 1.10
0.23 0.22 0.22 0.23 0.26 0.26 0.24 0.26 0.33 0.36 0.34 0.36 0.37 0.41 0.45 0.48 0.46 0.43 0.42 0.47 0.51 0.56 0.62 0.58 0.55 0.56 0.56 0.63 0.66 0.65 0.68 0.71 0.70 0.70 0.72 0.74 0.74 0.80 0.85 0.86 0.90 0.96 1.01
0.23 0.22 0.23 0.23 0.24 0.24 0.23 0.24 0.27 0.27 0.31 0.32 0.29 0.29 0.28 0.28 0.32 0.32 0.33 0.37 0.44 0.49 0.62 0.69 0.72 0.77 0.79 0.79 0.76 0.67 0.61 0.61 0.67 0.73 0.73 0.73 0.75 0.74 0.77 0.81 0.85 0.93 0.98
0.27 0.26 0.24 0.24 0.22 0.21 0.24 0.26 0.28 0.26 0.22 0.23 0.22 0.21 0.22 0.24 0.26 0.27 0.28 0.31 0.35 0.41 0.60 0.77 0.80 0.77 0.73 0.70 0.66 0.59 0.53 0.50 0.53 0.62 0.72 0.79 0.80 0.80 0.83 0.88 0.88 0.87 0.88
0.34 0.35 0.29 0.25 0.25 0.25 0.26 0.30 0.35 0.37 0.32 0.24 0.22 0.22 0.21 0.22 0.23 0.26 0.33 0.39 0.37 0.40 0.57 0.68 0.70 0.69 0.61 0.55 0.48 0.42 0.41 0.39 0.39 0.45 0.51 0.60 0.75 0.87 0.95 0.98 1.00 1.03 1.02
0.34 0.37 0.37 0.37 0.33 0.31 0.32 0.35 0.38 0.37 0.30 0.26 0.25 0.23 0.22 0.22 0.22 0.23 0.27 0.33 0.33 0.34 0.39 0.40 0.41 0.43 0.42 0.38 0.35 0.35 0.35 0.35 0.37 0.39 0.41 0.47 0.57 0.72 0.90 1.01 1.04 1.10 1.09
0.26 0.32 0.37 0.39 0.39 0.36 0.36 0.37 0.38 0.36 0.30 0.27 0.26 0.25 0.24 0.23 0.22 0.23 0.24 0.27 0.31 0.32 0.32 0.32 0.32 0.33 0.32 0.31 0.31 0.33 0.36 0.36 0.35 0.38 0.43 0.50 0.60 0.67 0.73 0.86 1.00 1.03 0.97
0.20 0.22 0.27 0.31 0.34 0.33 0.32 0.32 0.37 0.40 0.35 0.31 0.28 0.28 0.28 0.28 0.29 0.26 0.24 0.26 0.29 0.31 0.32 0.34 0.36 0.36 0.35 0.39 0.38 0.37 0.38 0.39 0.38 0.39 0.42 0.49 0.59 0.70 0.77 0.80 0.84 0.88 0.92
0.18 0.19 0.20 0.23 0.28 0.30 0.29 0.28 0.31 0.37 0.37 0.35 0.34 0.33 0.33 0.31 0.32 0.32 0.33 0.33 0.34 0.35 0.36 0.39 0.42 0.40 0.38 0.40 0.43 0.44 0.44 0.43 0.43 0.44 0.47 0.49 0.53 0.60 0.70 0.78 0.81 0.82 0.84
0.16 0.16 0.18 0.21 0.24 0.27 0.28 0.27 0.28 0.30 0.33 0.33 0.32 0.33 0.32 0.31 0.31 0.33 0.36 0.37 0.37 0.39 0.41 0.48 0.49 0.47 0.45 0.46 0.47 0.46 0.47 0.48 0.48 0.48 0.52 0.54 0.54 0.57 0.63 0.68 0.70 0.72 0.75
0.20 0.21 0.23 0.25 0.25 0.24 0.24 0.26 0.27 0.28 0.31 0.32 0.34 0.35 0.35 0.33 0.32 0.32 0.33 0.34 0.35 0.37 0.39 0.42 0.46 0.47 0.50 0.53 0.53 0.52 0.51 0.54 0.50 0.49 0.56 0.64 0.64 0.63 0.66 0.69 0.69 0.71 0.77
0.24 0.23 0.23 0.25 0.26 0.25 0.25 0.25 0.26 0.28 0.30 0.34 0.36 0.37 0.37 0.37 0.36 0.36 0.35 0.36 0.37 0.37 0.37 0.38 0.39 0.43 0.47 0.54 0.55 0.53 0.59 0.61 0.58 0.51 0.50 0.59 0.63 0.65 0.69 0.72 0.76 0.82 0.92
0.26 0.25 0.25 0.24 0.25 0.25 0.27 0.28 0.29 0.32 0.32 0.34 0.35 0.37 0.37 0.39 0.41 0.42 0.43 0.41 0.39 0.37 0.36 0.38 0.40 0.40 0.41 0.48 0.56 0.61 0.62 0.58 0.60 0.63 0.58 0.57 0.62 0.67 0.74 0.81 0.85 0.94 1.01

GEFSGL_prec_meanprecacc_240.txt.gz
Total_Precipitation_Accumulation
0.99 1.08 1.10 1.03 1.05 1.07 1.04 0.97 0.93 0.92 0.97 1.06 1.10 1.24 1.41 1.59 1.78 1.93 1.97 1.97 1.99 1.97 1.90 1.99 2.12 2.19 2.30 2.34 2.36 2.27 2.12 2.07 2.01 1.83 1.62 1.51 1.67 1.67 1.56 1.48 1.35 1.28 1.28
0.96 1.01 1.06 0.97 0.94 0.98 0.96 0.98 0.88 0.81 0.81 0.87 1.00 1.20 1.32 1.41 1.47 1.57 1.64 1.70 1.75 1.81 1.78 1.75 1.81 1.89 2.04 2.20 2.30 2.28 2.27 2.16 2.08 2.08 1.89 1.64 1.54 1.60 1.63 1.69 1.59 1.35 1.31
1.07 1.18 1.13 0.99 0.95 0.96 0.91 0.98 0.90 0.84 0.83 0.84 0.96 1.11 1.16 1.22 1.27 1.31 1.42 1.54 1.55 1.52 1.57 1.51 1.50 1.58 1.73 1.88 1.97 2.06 2.20 2.23 2.25 2.21 2.13 1.95 1.69 1.66 1.71 1.72 1.73 1.78 1.54
1.30 1.32 1.20 1.08 0.97 0.91 0.88 0.92 0.92 0.90 0.89 0.91 1.03 1.11 1.12 1.12 1.23 1.25 1.30 1.32 1.26 1.21 1.23 1.21 1.24 1.29 1.39 1.54 1.69 1.90 2.08 2.19 2.26 2.27 2.22 2.00 1.83 1.77 1.72 1.72 1.81 1.88 1.85
1.25 1.21 1.15 1.03 0.89 0.82 0.85 0.84 0.88 0.94 0.92 0.96 1.01 1.11 1.14 1.12 1.17 1.23 1.19 1.11 1.07 1.05 1.00 0.89 0.91 0.99 1.02 1.11 1.15 1.44 1.70 1.92 2.04 2.11 2.11 1.97 1.77 1.67 1.53 1.55 1.68 1.86 1.93
1.15 1.07 0.96 0.89 0.87 0.79 0.76 0.74 0.76 0.80 0.82 0.84 0.88 1.04 1.14 1.03 1.13 1.12 1.02 0.92 0.88 0.92 0.88 0.80 0.78 0.83 0.76 0.73 0.76 0.98 1.28 1.46 1.64 1.83 1.89 1.78 1.64 1.57 1.62 1.61 1.61 1.67 1.70
0.92 0.87 0.79 0.75 0.73 0.66 0.64 0.67 0.72 0.74 0.76 0.77 0.77 0.92 1.00 1.06 1.00 0.84 0.89 0.86 0.86 0.89 0.91 0.92 0.83 0.79 0.87 0.77 0.71 0.78 0.87 0.97 1.13 1.40 1.63 1.62 1.71 1.65 1.56 1.50 1.52 1.57 1.57
0.82 0.81 0.76 0.70 0.65 0.60 0.56 0.59 0.70 0.73 0.70 0.70 0.71 0.73 0.79 0.94 0.89 0.72 0.77 0.75 0.86 0.93 0.96 1.04 1.04 0.97 0.95 1.01 0.95 0.95 0.91 0.84 0.92 0.84 1.05 1.42 1.57 1.64 1.60 1.63 1.73 1.67 1.54
0.61 0.68 0.64 0.56 0.58 0.61 0.58 0.63 0.67 0.67 0.69 0.67 0.69 0.69 0.73 0.79 0.78 0.70 0.72 0.77 0.90 0.91 0.87 0.99 1.04 0.99 1.04 1.10 1.19 1.24 1.16 1.01 1.12 1.12 1.03 1.14 1.29 1.35 1.47 1.56 1.63 1.57 1.53
0.39 0.45 0.48 0.45 0.48 0.54 0.63 0.69 0.67 0.63 0.68 0.69 0.65 0.62 0.63 0.65 0.72 0.64 0.74 0.83 0.87 0.88 0.89 0.95 1.11 1.04 1.01 0.98 1.05 1.18 1.16 1.03 0.91 0.94 0.91 0.81 0.75 0.87 1.07 1.24 1.53 1.65 1.60
0.34 0.35 0.37 0.37 0.40 0.48 0.53 0.51 0.52 0.55 0.60 0.60 0.61 0.59 0.58 0.64 0.77 0.77 0.82 0.82 0.86 0.93 1.01 1.05 1.03 1.13 0.97 0.92 0.92 0.92 1.01 1.00 0.98 1.02 1.09 0.98 0.86 0.81 0.86 0.94 1.16 1.40 1.55
0.30 0.32 0.32 0.29 0.30 0.32 0.37 0.42 0.44 0.46 0.48 0.47 0.48 0.48 0.52 0.62 0.71 0.72 0.74 0.78 0.86 0.86 0.90 0.91 0.88 0.97 0.83 0.74 0.68 0.74 0.81 0.86 0.94 1.06 1.05 1.00 0.99 0.93 0.92 0.96 1.03 1.14 1.25
0.30 0.30 0.30 0.29 0.28 0.30 0.33 0.36 0.41 0.45 0.48 0.45 0.42 0.42 0.47 0.51 0.58 0.62 0.61 0.61 0.65 0.66 0.63 0.74 0.77 0.74 0.69 0.62 0.65 0.69 0.71 0.72 0.83 0.91 0.93 0.89 0.89 0.93 0.94 0.96 0.99 1.04 1.05
0.26 0.27 0.27 0.28 0.30 0.30 0.33 0.38 0.44 0.44 0.40 0.38 0.40 0.42 0.47 0.51 0.51 0.50 0.52 0.52 0.52 0.57 0.55 0.59 0.62 0.59 0.58 0.59 0.62 0.66 0.71 0.74 0.77 0.80 0.80 0.83 0.84 0.90 0.96 0.95 0.97 1.04 1.11
0.24 0.23 0.23 0.26 0.28 0.29 0.27 0.29 0.36 0.38 0.36 0.38 0.39 0.43 0.46 0.49 0.48 0.45 0.44 0.49 0.53 0.59 0.65 0.60 0.58 0.58 0.58 0.64 0.67 0.66 0.69 0.72 0.72 0.71 0.73 0.75 0.75 0.81 0.86 0.87 0.91 0.96 1.01
0.24 0.23 0.24 0.25 0.27 0.27 0.26 0.26 0.29 0.30 0.34 0.34 0.32 0.32 0.30 0.30 0.34 0.35 0.35 0.40 0.47 0.53 0.65 0.72 0.74 0.80 0.81 0.80 0.77 0.68 0.62 0.63 0.69 0.74 0.75 0.75 0.76 0.75 0.79 0.82 0.86 0.95 0.99
0.28 0.26 0.26 0.26 0.25 0.24 0.26 0.29 0.30 0.28 0.25 0.25 0.26 0.25 0.25 0.26 0.28 0.29 0.31 0.35 0.38 0.45 0.62 0.79 0.82 0.80 0.76 0.73 0.68 0.61 0.55 0.52 0.55 0.65 0.75 0.82 0.82 0.81 0.84 0.88 0.89 0.88 0.89
0.36 0.37 0.31 0.27 0.27 0.27 0.28 0.33 0.38 0.39 0.34 0.26 0.24 0.25 0.24 0.24 0.26 0.29 0.36 0.42 0.39 0.41 0.58 0.69 0.72 0.71 0.64 0.58 0.50 0.44 0.43 0.42 0.43 0.48 0.53 0.61 0.76 0.88 0.96 0.99 1.01 1.04 1.03
0.37 0.39 0.38 0.38 0.35 0.33 0.34 0.38 0.41 0.39 0.32 0.28 0.27 0.26 0.24 0.24 0.25 0.26 0.30 0.35 0.35 0.36 0.40 0.41 0.43 0.45 0.44 0.41 0.37 0.37 0.38 0.39 0.40 0.42 0.44 0.49 0.59 0.74 0.92 1.02 1.06 1.11 1.11
0.27 0.34 0.38 0.41 0.41 0.37 0.38 0.40 0.40 0.38 0.31 0.29 0.28 0.26 0.25 0.25 0.24 0.24 0.25 0.28 0.33 0.34 0.33 0.33 0.34 0.35 0.34 0.33 0.33 0.35 0.38 0.39 0.38 0.41 0.46 0.52 0.63 0.69 0.75 0.87 1.01 1.04 0.99
0.22 0.24 0.29 0.34 0.36 0.36 0.35 0.35 0.39 0.41 0.37 0.33 0.31 0.30 0.30 0.29 0.30 0.28 0.26 0.27 0.30 0.32 0.33 0.35 0.38 0.38 0.37 0.40 0.40 0.39 0.40 0.42 0.42 0.42 0.45 0.52 0.61 0.72 0.79 0.82 0.85 0.89 0.94
0.21 0.22 0.22 0.26 0.30 0.32 0.32 0.31 0.34 0.39 0.40 0.37 0.37 0.36 0.36 0.34 0.33 0.34 0.34 0.35 0.36 0.37 0.38 0.41 0.44 0.42 0.40 0.42 0.45 0.46 0.46 0.46 0.45 0.46 0.50 0.52 0.56 0.63 0.73 0.80 0.83 0.85 0.87
0.18 0.19 0.21 0.24 0.27 0.29 0.30 0.29 0.30 0.33 0.35 0.35 0.34 0.35 0.35 0.34 0.33 0.34 0.37 0.38 0.39 0.42 0.45 0.51 0.52 0.49 0.47 0.48 0.48 0.48 0.49 0.51 0.51 0.51 0.55 0.57 0.57 0.59 0.65 0.71 0.72 0.74 0.76
0.21 0.23 0.25 0.27 0.27 0.26 0.26 0.28 0.29 0.30 0.32 0.34 0.35 0.37 0.37 0.36 0.34 0.33 0.34 0.36 0.37 0.39 0.41 0.45 0.48 0.50 0.53 0.55 0.56 0.53 0.53 0.56 0.53 0.52 0.58 0.67 0.66 0.65 0.68 0.71 0.71 0.72 0.79
0.26 0.25 0.26 0.27 0.28 0.28 0.27 0.27 0.28 0.29 0.31 0.35 0.38 0.40 0.40 0.39 0.38 0.37 0.37 0.38 0.40 0.39 0.40 0.41 0.42 0.45 0.50 0.57 0.58 0.56 0.62 0.64 0.60 0.53 0.52 0.60 0.65 0.66 0.71 0.74 0.78 0.84 0.93
0.28 0.27 0.28 0.27 0.27 0.28 0.30 0.31 0.31 0.34 0.35 0.36 0.37 0.38 0.39 0.41 0.42 0.44 0.45 0.44 0.43 0.40 0.39 0.41 0.43 0.43 0.44 0.51 0.58 0.64 0.65 0.61 0.63 0.66 0.60 0.59 0.64 0.69 0.76 0.83 0.87 0.96 1.03

GEFSGL_prec_meanprecacc_246.txt.gz
Total_Precipitation_Accumulation
1.00 1.09 1.13 1.08 1.11 1.12 1.09 1.04 1.00 0.97 0.99 1.07 1.11 1.27 1.44 1.62 1.81 1.96 2.00 2.02 2.03 2.00 1.92 2.02 2.15 2.21 2.31 2.35 2.37 2.27 2.13 2.07 2.02 1.85 1.65 1.54 1.70 1.69 1.57 1.49 1.37 1.30 1.29
0.98 1.03 1.09 1.00 0.98 1.03 1.01 1.05 0.96 0.87 0.84 0.89 1.03 1.23 1.34 1.43 1.49 1.59 1.67 1.72 1.78 1.85 1.83 1.78 1.84 1.91 2.06 2.21 2.31 2.28 2.28 2.16 2.09 2.10 1.93 1.69 1.59 1.63 1.65 1.71 1.60 1.37 1.33
1.10 1.20 1.15 1.02 1.00 1.02 0.97 1.03 0.96 0.90 0.86 0.86 0.98 1.12 1.18 1.24 1.29 1.34 1.44 1.57 1.60 1.58 1.61 1.54 1.53 1.60 1.75 1.89 1.98 2.07 2.20 2.23 2.26 2.24 2.18 1.99 1.73 1.70 1.74 1.74 1.76 1.80 1.56
1.32 1.34 1.24 1.12 1.02 0.97 0.94 0.97 0.95 0.94 0.93 0.94 1.06 1.12 1.14 1.13 1.25 1.27 1.33 1.36 1.30 1.25 1.26 1.24 1.26 1.31 1.40 1.55 1.70 1.92 2.10 2.21 2.27 2.30 2.26 2.05 1.87 1.80 1.74 1.75 1.83 1.90 1.88
1.27 1.23 1.18 1.07 0.93 0.86 0.88 0.87 0.91 0.97 0.96 0.99 1.04 1.13 1.16 1.15 1.19 1.25 1.22 1.14 1.11 1.08 1.03 0.91 0.93 1.01 1.04 1.13 1.17 1.46 1.72 1.94 2.06 2.13 2.13 2.00 1.81 1.70 1.55 1.57 1.70 1.88 1.96
1.17 1.10 0.99 0.92 0.91 0.83 0.79 0.77 0.80 0.83 0.86 0.88 0.92 1.07 1.17 1.05 1.16 1.16 1.05 0.95 0.90 0.94 0.90 0.82 0.80 0.85 0.78 0.75 0.78 1.01 1.30 1.48 1.66 1.85 1.91 1.80 1.66 1.59 1.64 1.62 1.61 1.67 1.71
0.94 0.89 0.81 0.79 0.77 0.70 0.68 0.70 0.75 0.77 0.81 0.83 0.81 0.95 1.03 1.08 1.03 0.87 0.92 0.89 0.89 0.91 0.93 0.94 0.85 0.81 0.90 0.79 0.73 0.81 0.89 1.00 1.16 1.42 1.64 1.63 1.73 1.67 1.57 1.51 1.52 1.57 1.57
0.84 0.85 0.79 0.73 0.68 0.64 0.61 0.63 0.74 0.76 0.74 0.76 0.77 0.76 0.82 0.96 0.92 0.76 0.80 0.78 0.89 0.96 1.00 1.07 1.06 0.99 0.97 1.03 0.96 0.97 0.93 0.87 0.95 0.86 1.06 1.43 1.59 1.65 1.61 1.64 1.74 1.68 1.55
0.63 0.69 0.66 0.59 0.61 0.65 0.62 0.67 0.71 0.70 0.72 0.70 0.73 0.74 0.77 0.81 0.81 0.73 0.75 0.79 0.92 0.94 0.90 1.02 1.06 1.01 1.06 1.12 1.21 1.26 1.18 1.03 1.15 1.15 1.05 1.16 1.32 1.37 1.49 1.58 1.64 1.58 1.53
0.40 0.46 0.49 0.47 0.50 0.57 0.65 0.72 0.70 0.66 0.71 0.71 0.68 0.65 0.67 0.68 0.75 0.67 0.78 0.85 0.89 0.90 0.91 0.98 1.14 1.06 1.03 1.01 1.07 1.19 1.18 1.05 0.93 0.96 0.93 0.83 0.77 0.89 1.10 1.25 1.54 1.66 1.61
0.34 0.36 0.38 0.39 0.42 0.50 0.55 0.54 0.54 0.57 0.63 0.65 0.67 0.62 0.60 0.66 0.79 0.80 0.85 0.85 0.89 0.95 1.03 1.07 1.05 1.15 0.99 0.94 0.94 0.94 1.03 1.03 1.00 1.04 1.10 0.99 0.87 0.82 0.87 0.96 1.17 1.41 1.56
0.30 0.33 0.33 0.31 0.31 0.33 0.38 0.42 0.44 0.47 0.49 0.50 0.51 0.50 0.53 0.64 0.72 0.73 0.76 0.80 0.89 0.88 0.92 0.93 0.90 0.99 0.85 0.76 0.70 0.76 0.84 0.89 0.96 1.08 1.07 1.02 1.00 0.94 0.93 0.97 1.04 1.16 1.26
0.31 0.31 0.31 0.30 0.29 0.30 0.34 0.37 0.41 0.45 0.49 0.47 0.43 0.42 0.47 0.52 0.60 0.63 0.62 0.63 0.67 0.68 0.65 0.76 0.80 0.77 0.71 0.63 0.67 0.71 0.73 0.74 0.84 0.93 0.95 0.91 0.91 0.95 0.96 0.97 1.00 1.05 1.05
0.27 0.28 0.29 0.30 0.31 0.31 0.34 0.38 0.44 0.45 0.41 0.40 0.41 0.43 0.48 0.51 0.52 0.51 0.54 0.54 0.54 0.59 0.57 0.62 0.65 0.62 0.61 0.61 0.64 0.68 0.73 0.76 0.79 0.82 0.83 0.86 0.87 0.93 0.99 0.97 0.98 1.05 1.11
0.26 0.26 0.26 0.28 0.30 0.31 0.28 0.30 0.36 0.39 0.37 0.39 0.40 0.44 0.48 0.50 0.48 0.47 0.46 0.51 0.56 0.61 0.67 0.62 0.60 0.60 0.60 0.66 0.69 0.68 0.71 0.76 0.75 0.74 0.77 0.78 0.77 0.83 0.88 0.89 0.92 0.97 1.02
0.25 0.25 0.26 0.26 0.29 0.29 0.27 0.28 0.30 0.31 0.35 0.35 0.33 0.34 0.31 0.31 0.36 0.36 0.37 0.42 0.50 0.56 0.67 0.73 0.76 0.81 0.83 0.82 0.78 0.69 0.65 0.67 0.72 0.78 0.79 0.79 0.79 0.77 0.80 0.84 0.88 0.96 1.00
0.31 0.29 0.28 0.27 0.26 0.26 0.28 0.30 0.32 0.29 0.25 0.26 0.27 0.26 0.26 0.28 0.30 0.31 0.32 0.37 0.41 0.47 0.64 0.81 0.84 0.82 0.78 0.74 0.69 0.62 0.57 0.55 0.58 0.68 0.78 0.85 0.85 0.84 0.87 0.90 0.91 0.89 0.90
0.40 0.40 0.34 0.29 0.28 0.28 0.30 0.35 0.39 0.41 0.35 0.27 0.25 0.26 0.26 0.26 0.27 0.31 0.38 0.45 0.42 0.44 0.60 0.71 0.74 0.72 0.65 0.59 0.52 0.46 0.47 0.46 0.46 0.52 0.57 0.65 0.79 0.90 0.98 1.01 1.03 1.05 1.04
0.40 0.42 0.40 0.39 0.35 0.33 0.35 0.41 0.43 0.40 0.33 0.30 0.28 0.27 0.26 0.26 0.28 0.29 0.34 0.38 0.37 0.38 0.42 0.44 0.45 0.47 0.46 0.43 0.40 0.40 0.42 0.43 0.45 0.46 0.47 0.52 0.62 0.77 0.94 1.05 1.08 1.14 1.12
0.30 0.36 0.39 0.41 0.41 0.38 0.39 0.42 0.43 0.40 0.33 0.30 0.30 0.28 0.27 0.26 0.25 0.26 0.27 0.31 0.35 0.36 0.35 0.34 0.35 0.36 0.36 0.35 0.35 0.38 0.42 0.44 0.43 0.45 0.50 0.57 0.66 0.72 0.78 0.89 1.04 1.08 1.01
0.23 0.25 0.30 0.34 0.37 0.37 0.36 0.38 0.43 0.44 0.38 0.35 0.33 0.32 0.32 0.31 0.32 0.29 0.27 0.29 0.31 0.33 0.34 0.36 0.39 0.38 0.38 0.41 0.42 0.41 0.43 0.45 0.45 0.45 0.49 0.56 0.66 0.76 0.82 0.85 0.88 0.93 0.97
0.22 0.22 0.23 0.27 0.31 0.33 0.34 0.33 0.38 0.42 0.42 0.39 0.38 0.38 0.38 0.35 0.35 0.36 0.36 0.36 0.37 0.38 0.39 0.42 0.45 0.43 0.41 0.43 0.46 0.48 0.49 0.49 0.49 0.50 0.53 0.55 0.60 0.67 0.77 0.84 0.87 0.88 0.90
0.18 0.19 0.22 0.25 0.28 0.30 0.31 0.31 0.33 0.35 0.37 0.38 0.36 0.37 0.37 0.36 0.36 0.37 0.39 0.39 0.40 0.43 0.46 0.52 0.53 0.50 0.48 0.49 0.50 0.49 0.52 0.54 0.54 0.55 0.59 0.61 0.61 0.64 0.70 0.75 0.76 0.78 0.80
0.22 0.23 0.26 0.28 0.28 0.27 0.27 0.29 0.31 0.32 0.34 0.36 0.38 0.40 0.40 0.38 0.37 0.36 0.37 0.37 0.38 0.40 0.43 0.46 0.49 0.50 0.54 0.56 0.57 0.55 0.55 0.59 0.57 0.55 0.62 0.70 0.70 0.69 0.72 0.75 0.74 0.75 0.82
0.27 0.26 0.27 0.29 0.30 0.29 0.28 0.28 0.29 0.32 0.34 0.38 0.41 0.42 0.42 0.42 0.41 0.40 0.39 0.40 0.41 0.40 0.41 0.42 0.43 0.46 0.51 0.58 0.59 0.57 0.64 0.67 0.64 0.57 0.55 0.63 0.68 0.69 0.74 0.77 0.81 0.87 0.96
0.30 0.30 0.30 0.29 0.29 0.31 0.32 0.33 0.33 0.37 0.38 0.40 0.41 0.41 0.42 0.44 0.46 0.47 0.47 0.46 0.44 0.41 0.40 0.42 0.45 0.44 0.45 0.52 0.60 0.66 0.67 0.63 0.66 0.69 0.62 0.62 0.67 0.72 0.79 0.86 0.90 0.99 1.06

GEFSGL_prec_meanprecacc_252.txt.gz
Total_Precipitation_Accumulation
1.03 1.12 1.16 1.11 1.14 1.14 1.10 1.06 1.02 1.00 1.02 1.11 1.14 1.29 1.47 1.65 1.84 2.00 2.04 2.04 2.06 2.02 1.95 2.05 2.18 2.24 2.34 2.38 2.40 2.29 2.14 2.09 2.03 1.86 1.66 1.54 1.72 1.72 1.61 1.53 1.40 1.33 1.32
1.00 1.05 1.12 1.06 1.03 1.06 1.04 1.09 0.98 0.89 0.87 0.92 1.05 1.24 1.36 1.45 1.51 1.63 1.71 1.75 1.80 1.87 1.85 1.81 1.86 1.93 2.08 2.23 2.34 2.30 2.29 2.18 2.10 2.11 1.94 1.70 1.61 1.66 1.69 1.75 1.64 1.41 1.36
1.11 1.22 1.18 1.07 1.04 1.07 1.01 1.08 0.99 0.92 0.89 0.89 1.00 1.14 1.19 1.26 1.31 1.36 1.47 1.59 1.62 1.60 1.63 1.56 1.55 1.63 1.77 1.92 2.01 2.09 2.21 2.24 2.27 2.25 2.18 2.00 1.75 1.74 1.79 1.80 1.80 1.84 1.58
1.33 1.35 1.25 1.15 1.06 1.02 0.99 1.00 0.98 0.96 0.94 0.96 1.08 1.13 1.15 1.15 1.27 1.30 1.36 1.38 1.32 1.26 1.28 1.26 1.29 1.33 1.43 1.58 1.73 1.94 2.12 2.22 2.29 2.31 2.27 2.07 1.90 1.84 1.80 1.82 1.90 1.94 1.91
1.28 1.24 1.19 1.09 0.97 0.91 0.93 0.90 0.94 0.99 0.98 1.02 1.06 1.14 1.17 1.16 1.21 1.26 1.23 1.16 1.12 1.10 1.05 0.93 0.95 1.03 1.07 1.16 1.20 1.49 1.75 1.97 2.09 2.16 2.16 2.03 1.84 1.73 1.59 1.62 1.75 1.92 1.99
1.17 1.11 1.00 0.94 0.94 0.87 0.82 0.80 0.82 0.85 0.88 0.90 0.94 1.09 1.18 1.06 1.18 1.18 1.07 0.96 0.91 0.96 0.92 0.83 0.82 0.87 0.81 0.78 0.81 1.03 1.33 1.51 1.69 1.88 1.94 1.83 1.68 1.62 1.67 1.66 1.65 1.70 1.73
0.95 0.90 0.83 0.81 0.79 0.73 0.70 0.72 0.77 0.79 0.83 0.84 0.82 0.96 1.04 1.10 1.04 0.90 0.94 0.90 0.90 0.92 0.95 0.96 0.87 0.83 0.92 0.82 0.76 0.84 0.92 1.03 1.18 1.45 1.67 1.65 1.75 1.68 1.59 1.52 1.54 1.58 1.58
0.86 0.86 0.81 0.75 0.71 0.67 0.63 0.65 0.77 0.79 0.76 0.78 0.77 0.77 0.82 0.97 0.93 0.77 0.81 0.79 0.89 0.97 1.01 1.08 1.08 1.01 1.00 1.06 0.99 1.00 0.96 0.89 0.97 0.88 1.07 1.44 1.60 1.67 1.64 1.66 1.76 1.70 1.56
0.64 0.71 0.68 0.60 0.63 0.67 0.63 0.68 0.72 0.72 0.73 0.72 0.75 0.75 0.78 0.83 0.83 0.75 0.77 0.80 0.93 0.95 0.91 1.03 1.07 1.03 1.09 1.16 1.24 1.29 1.21 1.05 1.18 1.18 1.07 1.17 1.33 1.39 1.51 1.60 1.66 1.60 1.55
0.40 0.46 0.50 0.48 0.51 0.58 0.66 0.73 0.71 0.67 0.72 0.72 0.69 0.67 0.68 0.69 0.77 0.69 0.79 0.86 0.91 0.92 0.93 1.00 1.17 1.09 1.06 1.03 1.09 1.22 1.20 1.06 0.94 0.98 0.95 0.85 0.79 0.90 1.12 1.27 1.55 1.68 1.62
0.35 0.37 0.38 0.39 0.43 0.51 0.56 0.55 0.55 0.58 0.64 0.67 0.68 0.63 0.61 0.67 0.80 0.81 0.87 0.86 0.90 0.97 1.05 1.09 1.07 1.19 1.03 0.97 0.97 0.96 1.04 1.04 1.02 1.06 1.13 1.01 0.89 0.84 0.89 0.97 1.18 1.42 1.58
0.31 0.33 0.34 0.31 0.32 0.34 0.39 0.43 0.45 0.47 0.50 0.51 0.52 0.50 0.53 0.64 0.73 0.74 0.77 0.82 0.90 0.90 0.94 0.94 0.91 1.02 0.88 0.79 0.74 0.79 0.87 0.92 1.00 1.11 1.10 1.04 1.02 0.96 0.94 0.98 1.05 1.17 1.27
0.31 0.32 0.32 0.30 0.30 0.31 0.34 0.37 0.42 0.46 0.50 0.48 0.44 0.43 0.48 0.53 0.61 0.64 0.64 0.64 0.68 0.69 0.65 0.77 0.81 0.78 0.73 0.66 0.70 0.75 0.77 0.78 0.88 0.97 0.98 0.94 0.93 0.97 0.98 0.99 1.02 1.07 1.07
0.27 0.29 0.29 0.31 0.32 0.32 0.35 0.39 0.45 0.45 0.42 0.40 0.41 0.44 0.48 0.52 0.53 0.52 0.55 0.55 0.55 0.60 0.59 0.63 0.67 0.64 0.63 0.63 0.67 0.72 0.76 0.79 0.83 0.85 0.86 0.89 0.90 0.96 1.03 1.01 1.02 1.09 1.15
0.26 0.26 0.26 0.29 0.32 0.32 0.30 0.32 0.37 0.40 0.37 0.39 0.41 0.45 0.49 0.51 0.49 0.48 0.47 0.52 0.57 0.62 0.68 0.63 0.61 0.62 0.62 0.68 0.70 0.70 0.73 0.78 0.78 0.77 0.80 0.82 0.81 0.86 0.90 0.91 0.95 1.01 1.05
0.26 0.26 0.27 0.28 0.30 0.30 0.29 0.29 0.31 0.31 0.35 0.36 0.33 0.34 0.32 0.33 0.38 0.38 0.38 0.44 0.52 0.58 0.69 0.75 0.78 0.83 0.84 0.83 0.80 0.71 0.66 0.68 0.74 0.80 0.81 0.82 0.82 0.79 0.82 0.86 0.90 0.99 1.02
0.31 0.30 0.28 0.28 0.28 0.28 0.29 0.31 0.32 0.29 0.26 0.26 0.27 0.27 0.27 0.28 0.32 0.34 0.35 0.39 0.43 0.49 0.66 0.82 0.85 0.83 0.79 0.76 0.71 0.64 0.59 0.57 0.61 0.70 0.81 0.88 0.88 0.87 0.89 0.93 0.94 0.92 0.93
0.41 0.41 0.35 0.30 0.29 0.29 0.31 0.36 0.40 0.41 0.35 0.27 0.26 0.27 0.27 0.27 0.28 0.33 0.41 0.48 0.45 0.46 0.62 0.73 0.75 0.74 0.67 0.61 0.54 0.49 0.49 0.48 0.48 0.54 0.58 0.67 0.82 0.93 1.00 1.03 1.06 1.09 1.09
0.42 0.43 0.41 0.40 0.37 0.34 0.36 0.42 0.45 0.41 0.34 0.31 0.29 0.28 0.27 0.28 0.29 0.31 0.35 0.39 0.39 0.40 0.44 0.46 0.47 0.48 0.48 0.45 0.42 0.43 0.46 0.47 0.48 0.49 0.50 0.55 0.65 0.80 0.97 1.08 1.11 1.18 1.16
0.31 0.37 0.41 0.43 0.43 0.39 0.40 0.43 0.45 0.42 0.34 0.31 0.30 0.29 0.28 0.28 0.27 0.28 0.29 0.32 0.37 0.38 0.37 0.36 0.37 0.38 0.37 0.37 0.38 0.40 0.45 0.48 0.47 0.49 0.54 0.60 0.69 0.75 0.80 0.91 1.07 1.11 1.05
0.24 0.26 0.31 0.35 0.37 0.37 0.37 0.38 0.43 0.44 0.40 0.36 0.34 0.33 0.33 0.32 0.33 0.30 0.29 0.31 0.33 0.35 0.36 0.38 0.40 0.40 0.39 0.43 0.43 0.43 0.46 0.49 0.49 0.49 0.52 0.58 0.68 0.78 0.85 0.88 0.92 0.96 1.00
0.23 0.23 0.24 0.27 0.31 0.34 0.34 0.33 0.38 0.43 0.43 0.41 0.41 0.40 0.40 0.37 0.37 0.37 0.37 0.38 0.39 0.40 0.41 0.44 0.47 0.45 0.42 0.44 0.48 0.50 0.52 0.52 0.51 0.53 0.56 0.58 0.62 0.69 0.79 0.87 0.91 0.93 0.95
0.19 0.20 0.22 0.26 0.28 0.31 0.32 0.31 0.33 0.36 0.38 0.39 0.39 0.40 0.39 0.38 0.38 0.39 0.42 0.42 0.43 0.45 0.48 0.54 0.56 0.53 0.50 0.51 0.52 0.52 0.55 0.56 0.57 0.58 0.62 0.64 0.63 0.66 0.71 0.77 0.79 0.82 0.85
0.23 0.24 0.26 0.29 0.29 0.28 0.28 0.30 0.32 0.33 0.35 0.37 0.39 0.42 0.42 0.40 0.40 0.39 0.40 0.40 0.41 0.42 0.44 0.47 0.52 0.54 0.57 0.59 0.59 0.58 0.59 0.63 0.61 0.59 0.66 0.74 0.73 0.71 0.74 0.77 0.77 0.79 0.86
0.28 0.27 0.28 0.30 0.31 0.30 0.29 0.29 0.30 0.33 0.35 0.40 0.43 0.44 0.45 0.44 0.43 0.42 0.42 0.42 0.42 0.42 0.43 0.43 0.45 0.49 0.54 0.61 0.62 0.60 0.67 0.71 0.68 0.61 0.59 0.67 0.71 0.73 0.77 0.80 0.84 0.91 1.00
0.32 0.31 0.31 0.30 0.31 0.32 0.33 0.34 0.35 0.38 0.40 0.42 0.43 0.44 0.45 0.47 0.48 0.49 0.49 0.48 0.46 0.43 0.42 0.44 0.47 0.46 0.48 0.55 0.63 0.69 0.70 0.66 0.68 0.72 0.65 0.65 0.70 0.75 0.82 0.89 0.94 1.03 1.11

GEFSGL_prec_meanprecacc_258.txt.gz
Total_Precipitation_Accumulation
1.04 1.14 1.18 1.15 1.17 1.16 1.13 1.09 1.05 1.02 1.05 1.13 1.18 1.35 1.53 1.71 1.89 2.05 2.07 2.07 2.08 2.06 1.98 2.07 2.21 2.26 2.37 2.41 2.43 2.32 2.18 2.13 2.07 1.88 1.68 1.56 1.73 1.74 1.63 1.54 1.41 1.36 1.35
1.01 1.06 1.14 1.09 1.05 1.08 1.06 1.11 1.01 0.93 0.91 0.95 1.11 1.31 1.44 1.52 1.57 1.67 1.75 1.77 1.82 1.90 1.88 1.84 1.90 1.96 2.11 2.27 2.37 2.34 2.33 2.21 2.14 2.15 1.96 1.72 1.63 1.68 1.71 1.77 1.65 1.42 1.38
1.12 1.23 1.20 1.10 1.07 1.10 1.04 1.11 1.02 0.96 0.94 0.94 1.05 1.20 1.24 1.31 1.37 1.41 1.52 1.62 1.64 1.62 1.66 1.59 1.58 1.67 1.81 1.95 2.04 2.13 2.26 2.28 2.31 2.29 2.21 2.02 1.77 1.76 1.82 1.83 1.83 1.87 1.61
1.35 1.37 1.28 1.17 1.08 1.04 1.01 1.02 1.00 0.99 0.99 1.00 1.12 1.17 1.19 1.19 1.32 1.35 1.41 1.41 1.35 1.29 1.31 1.29 1.32 1.36 1.46 1.61 1.76 1.97 2.16 2.27 2.34 2.36 2.31 2.10 1.93 1.86 1.83 1.86 1.96 2.00 1.96
1.31 1.27 1.23 1.11 0.98 0.93 0.95 0.91 0.97 1.03 1.02 1.06 1.10 1.18 1.21 1.20 1.25 1.31 1.27 1.18 1.15 1.13 1.08 0.97 0.98 1.07 1.12 1.22 1.24 1.52 1.78 2.02 2.14 2.21 2.20 2.07 1.87 1.77 1.64 1.67 1.82 1.99 2.05
1.19 1.14 1.04 0.96 0.95 0.89 0.85 0.82 0.85 0.88 0.91 0.95 0.98 1.12 1.22 1.10 1.22 1.21 1.09 0.98 0.95 0.99 0.94 0.86 0.84 0.90 0.84 0.82 0.85 1.08 1.37 1.55 1.73 1.92 1.99 1.87 1.72 1.65 1.71 1.70 1.70 1.76 1.79
0.97 0.93 0.85 0.82 0.81 0.76 0.73 0.76 0.81 0.82 0.85 0.87 0.85 0.98 1.06 1.12 1.08 0.92 0.96 0.92 0.93 0.95 0.96 0.97 0.88 0.83 0.93 0.83 0.78 0.87 0.95 1.05 1.21 1.48 1.71 1.68 1.78 1.71 1.63 1.57 1.59 1.63 1.62
0.88 0.88 0.83 0.76 0.72 0.69 0.66 0.69 0.80 0.81 0.78 0.80 0.80 0.79 0.84 0.98 0.95 0.79 0.83 0.81 0.92 0.99 1.02 1.10 1.10 1.03 1.01 1.08 1.01 1.02 0.98 0.91 1.00 0.91 1.10 1.48 1.63 1.71 1.68 1.71 1.80 1.73 1.59
0.66 0.72 0.68 0.61 0.64 0.69 0.66 0.72 0.76 0.75 0.76 0.73 0.77 0.77 0.79 0.84 0.85 0.76 0.78 0.82 0.95 0.97 0.93 1.04 1.09 1.04 1.11 1.18 1.27 1.32 1.23 1.07 1.20 1.21 1.10 1.21 1.38 1.44 1.56 1.64 1.69 1.62 1.57
0.41 0.47 0.51 0.49 0.53 0.61 0.70 0.76 0.73 0.70 0.75 0.75 0.70 0.68 0.69 0.70 0.79 0.71 0.81 0.88 0.92 0.94 0.94 1.01 1.18 1.11 1.08 1.05 1.11 1.24 1.22 1.08 0.96 1.00 0.97 0.87 0.82 0.94 1.15 1.29 1.57 1.69 1.64
0.36 0.38 0.40 0.41 0.45 0.55 0.61 0.58 0.57 0.61 0.67 0.69 0.70 0.65 0.63 0.69 0.81 0.82 0.88 0.88 0.92 0.99 1.07 1.11 1.09 1.20 1.03 0.98 0.98 0.98 1.07 1.07 1.04 1.09 1.15 1.04 0.92 0.87 0.91 0.99 1.20 1.44 1.59
0.31 0.34 0.35 0.33 0.33 0.36 0.42 0.47 0.48 0.50 0.53 0.54 0.55 0.54 0.56 0.66 0.74 0.74 0.77 0.82 0.91 0.91 0.95 0.95 0.92 1.03 0.89 0.80 0.75 0.81 0.89 0.95 1.03 1.14 1.12 1.07 1.04 0.98 0.96 1.00 1.06 1.18 1.29
0.31 0.32 0.32 0.31 0.31 0.32 0.35 0.39 0.44 0.49 0.52 0.49 0.46 0.45 0.51 0.56 0.65 0.67 0.65 0.64 0.69 0.70 0.66 0.78 0.82 0.80 0.75 0.68 0.72 0.77 0.78 0.80 0.91 0.99 1.00 0.95 0.95 0.99 1.00 1.01 1.05 1.10 1.09
0.28 0.29 0.30 0.31 0.33 0.33 0.36 0.40 0.47 0.47 0.43 0.41 0.42 0.44 0.49 0.54 0.56 0.57 0.60 0.58 0.56 0.61 0.60 0.64 0.68 0.66 0.64 0.65 0.69 0.73 0.78 0.81 0.85 0.88 0.88 0.91 0.92 0.99 1.06 1.04 1.05 1.12 1.18
0.27 0.27 0.27 0.29 0.33 0.33 0.31 0.33 0.39 0.41 0.38 0.40 0.42 0.46 0.50 0.52 0.51 0.51 0.50 0.56 0.60 0.65 0.70 0.65 0.63 0.63 0.63 0.69 0.72 0.71 0.74 0.79 0.80 0.79 0.82 0.85 0.85 0.90 0.95 0.95 0.99 1.04 1.08
0.27 0.27 0.28 0.29 0.32 0.32 0.31 0.31 0.32 0.32 0.36 0.36 0.34 0.35 0.32 0.33 0.39 0.40 0.41 0.47 0.56 0.62 0.72 0.77 0.80 0.85 0.86 0.85 0.81 0.72 0.67 0.69 0.75 0.82 0.83 0.85 0.85 0.83 0.87 0.90 0.94 1.03 1.05
0.34 0.32 0.30 0.30 0.30 0.30 0.31 0.33 0.35 0.31 0.27 0.27 0.28 0.27 0.27 0.29 0.33 0.36 0.38 0.43 0.47 0.54 0.69 0.85 0.88 0.85 0.81 0.78 0.73 0.66 0.61 0.59 0.62 0.72 0.83 0.90 0.91 0.90 0.92 0.97 0.98 0.96 0.96
0.46 0.45 0.38 0.34 0.33 0.32 0.33 0.37 0.42 0.44 0.37 0.28 0.27 0.28 0.27 0.27 0.29 0.33 0.43 0.50 0.48 0.51 0.66 0.76 0.78 0.76 0.69 0.63 0.57 0.52 0.52 0.50 0.51 0.56 0.61 0.70 0.85 0.96 1.04 1.06 1.08 1.11 1.11
0.45 0.47 0.45 0.44 0.41 0.38 0.38 0.44 0.46 0.43 0.36 0.32 0.30 0.28 0.28 0.29 0.30 0.32 0.36 0.40 0.40 0.42 0.47 0.50 0.51 0.52 0.51 0.48 0.45 0.47 0.50 0.50 0.51 0.51 0.52 0.57 0.67 0.82 1.00 1.10 1.14 1.20 1.19
0.33 0.39 0.44 0.46 0.46 0.42 0.43 0.46 0.47 0.44 0.36 0.33 0.31 0.29 0.29 0.28 0.27 0.28 0.29 0.32 0.37 0.39 0.39 0.39 0.41 0.42 0.41 0.41 0.42 0.45 0.50 0.53 0.51 0.51 0.55 0.61 0.71 0.77 0.82 0.94 1.09 1.14 1.08
0.26 0.29 0.34 0.37 0.39 0.39 0.40 0.41 0.46 0.47 0.42 0.38 0.36 0.34 0.34 0.33 0.34 0.31 0.29 0.31 0.34 0.36 0.37 0.40 0.42 0.43 0.42 0.47 0.47 0.47 0.50 0.53 0.53 0.52 0.54 0.61 0.71 0.81 0.87 0.90 0.93 0.98 1.03
0.24 0.26 0.28 0.30 0.33 0.36 0.36 0.35 0.40 0.45 0.45 0.43 0.43 0.42 0.43 0.38 0.38 0.38 0.38 0.38 0.40 0.41 0.42 0.46 0.49 0.47 0.45 0.48 0.52 0.54 0.55 0.54 0.54 0.56 0.59 0.61 0.65 0.73 0.82 0.90 0.93 0.95 0.97
0.21 0.22 0.25 0.28 0.31 0.33 0.34 0.33 0.35 0.37 0.40 0.41 0.40 0.41 0.41 0.39 0.39 0.40 0.43 0.43 0.44 0.46 0.49 0.56 0.58 0.55 0.53 0.54 0.55 0.55 0.58 0.59 0.60 0.60 0.64 0.67 0.67 0.69 0.75 0.81 0.83 0.86 0.89
0.24 0.26 0.28 0.31 0.31 0.29 0.29 0.31 0.33 0.34 0.36 0.39 0.41 0.43 0.44 0.43 0.42 0.40 0.41 0.42 0.42 0.43 0.45 0.49 0.53 0.56 0.59 0.61 0.62 0.61 0.61 0.66 0.63 0.61 0.68 0.77 0.76 0.75 0.78 0.81 0.81 0.84 0.91
0.30 0.29 0.30 0.32 0.33 0.32 0.30 0.30 0.31 0.34 0.37 0.41 0.45 0.46 0.47 0.47 0.46 0.45 0.44 0.44 0.44 0.44 0.45 0.45 0.47 0.51 0.57 0.64 0.65 0.63 0.70 0.73 0.70 0.63 0.61 0.70 0.74 0.76 0.81 0.85 0.89 0.95 1.06
0.33 0.33 0.33 0.31 0.32 0.34 0.35 0.36 0.37 0.40 0.42 0.44 0.46 0.46 0.48 0.50 0.51 0.52 0.53 0.51 0.49 0.45 0.44 0.47 0.50 0.50 0.51 0.59 0.66 0.72 0.73 0.68 0.71 0.75 0.68 0.67 0.73 0.78 0.87 0.94 0.99 1.09 1.16

GEFSGL_prec_meanprecacc_264.txt.gz
Total_Precipitation_Accumulation
1.06 1.18 1.23 1.21 1.23 1.22 1.17 1.11 1.07 1.05 1.09 1.17 1.23 1.40 1.57 1.75 1.95 2.11 2.12 2.10 2.11 2.08 2.01 2.11 2.23 2.27 2.39 2.42 2.44 2.34 2.19 2.14 2.08 1.89 1.69 1.58 1.77 1.78 1.68 1.58 1.44 1.38 1.38
1.05 1.10 1.18 1.14 1.11 1.15 1.11 1.16 1.05 0.96 0.95 1.00 1.17 1.37 1.50 1.59 1.62 1.72 1.78 1.81 1.85 1.92 1.90 1.87 1.93 1.98 2.13 2.28 2.38 2.36 2.35 2.23 2.16 2.16 1.97 1.74 1.66 1.72 1.76 1.81 1.70 1.46 1.41
1.14 1.25 1.23 1.15 1.12 1.16 1.09 1.16 1.07 1.00 0.99 0.99 1.11 1.25 1.30 1.38 1.43 1.47 1.56 1.65 1.67 1.64 1.68 1.62 1.61 1.70 1.83 1.97 2.06 2.15 2.28 2.31 2.33 2.31 2.23 2.04 1.79 1.78 1.85 1.86 1.87 1.91 1.64
1.38 1.40 1.31 1.23 1.14 1.08 1.05 1.06 1.04 1.03 1.05 1.07 1.19 1.24 1.25 1.25 1.38 1.42 1.46 1.45 1.39 1.31 1.34 1.32 1.35 1.39 1.48 1.65 1.79 1.99 2.18 2.30 2.37 2.39 2.34 2.12 1.94 1.87 1.84 1.88 1.98 2.03 1.99
1.35 1.31 1.28 1.18 1.04 0.97 0.98 0.93 0.99 1.06 1.06 1.12 1.18 1.25 1.28 1.28 1.33 1.40 1.34 1.23 1.19 1.15 1.10 0.99 1.01 1.10 1.14 1.25 1.27 1.54 1.80 2.03 2.16 2.23 2.22 2.08 1.88 1.78 1.65 1.69 1.83 2.01 2.07
1.27 1.23 1.12 1.02 0.99 0.92 0.87 0.84 0.88 0.91 0.95 1.00 1.05 1.19 1.30 1.18 1.31 1.29 1.15 1.02 0.97 1.01 0.96 0.87 0.86 0.91 0.86 0.85 0.88 1.11 1.41 1.58 1.76 1.95 2.02 1.90 1.74 1.68 1.73 1.71 1.72 1.78 1.82
1.05 1.01 0.90 0.85 0.83 0.78 0.75 0.77 0.83 0.85 0.89 0.92 0.90 1.04 1.13 1.20 1.15 0.98 1.01 0.96 0.95 0.97 0.98 0.99 0.89 0.85 0.94 0.84 0.80 0.90 0.98 1.10 1.26 1.53 1.74 1.73 1.83 1.76 1.67 1.59 1.61 1.65 1.64
0.93 0.93 0.86 0.78 0.74 0.70 0.67 0.71 0.82 0.83 0.80 0.84 0.84 0.82 0.89 1.03 1.02 0.85 0.88 0.85 0.95 1.02 1.04 1.11 1.11 1.04 1.02 1.09 1.03 1.03 0.99 0.93 1.04 0.95 1.13 1.51 1.67 1.75 1.72 1.75 1.84 1.77 1.61
0.68 0.74 0.70 0.63 0.66 0.70 0.68 0.73 0.77 0.76 0.77 0.75 0.79 0.80 0.83 0.88 0.88 0.81 0.83 0.86 0.99 0.99 0.94 1.06 1.10 1.05 1.12 1.20 1.29 1.33 1.25 1.08 1.22 1.23 1.12 1.24 1.41 1.47 1.59 1.68 1.74 1.66 1.60
0.43 0.48 0.53 0.51 0.55 0.62 0.71 0.78 0.75 0.71 0.77 0.76 0.73 0.70 0.71 0.72 0.81 0.73 0.83 0.91 0.96 0.96 0.97 1.03 1.20 1.12 1.10 1.07 1.13 1.25 1.23 1.08 0.97 1.01 0.98 0.89 0.83 0.96 1.18 1.32 1.60 1.72 1.66
0.37 0.39 0.41 0.42 0.47 0.57 0.63 0.60 0.59 0.62 0.69 0.71 0.72 0.67 0.65 0.71 0.83 0.84 0.90 0.90 0.94 1.02 1.10 1.13 1.11 1.22 1.06 1.00 1.00 0.99 1.08 1.08 1.06 1.10 1.17 1.05 0.93 0.89 0.94 1.01 1.23 1.47 1.62
0.33 0.36 0.36 0.33 0.34 0.39 0.45 0.49 0.50 0.51 0.55 0.55 0.57 0.56 0.58 0.68 0.75 0.76 0.78 0.83 0.93 0.93 0.98 0.97 0.95 1.06 0.92 0.83 0.78 0.83 0.91 0.97 1.05 1.16 1.14 1.08 1.06 0.99 0.98 1.01 1.08 1.20 1.31
0.33 0.34 0.34 0.32 0.33 0.35 0.39 0.43 0.46 0.50 0.53 0.51 0.48 0.47 0.52 0.57 0.65 0.68 0.66 0.66 0.71 0.72 0.68 0.79 0.84 0.83 0.78 0.71 0.76 0.80 0.81 0.83 0.93 1.01 1.02 0.97 0.96 1.01 1.02 1.02 1.06 1.11 1.11
0.29 0.31 0.32 0.33 0.35 0.35 0.39 0.43 0.49 0.49 0.45 0.43 0.45 0.47 0.51 0.54 0.56 0.57 0.60 0.60 0.59 0.64 0.62 0.67 0.71 0.69 0.67 0.68 0.72 0.76 0.79 0.83 0.87 0.90 0.89 0.92 0.94 1.01 1.08 1.05 1.06 1.13 1.20
0.28 0.28 0.28 0.31 0.35 0.36 0.34 0.35 0.41 0.43 0.41 0.42 0.44 0.49 0.52 0.54 0.52 0.52 0.51 0.56 0.62 0.67 0.73 0.67 0.65 0.65 0.65 0.71 0.74 0.73 0.76 0.80 0.81 0.80 0.84 0.87 0.87 0.92 0.97 0.97 1.00 1.06 1.10
0.30 0.29 0.29 0.31 0.35 0.35 0.34 0.34 0.37 0.37 0.40 0.40 0.37 0.38 0.35 0.36 0.41 0.42 0.43 0.48 0.57 0.63 0.74 0.79 0.82 0.87 0.88 0.86 0.83 0.74 0.69 0.71 0.77 0.83 0.85 0.86 0.87 0.85 0.89 0.93 0.97 1.05 1.08
0.38 0.35 0.33 0.33 0.32 0.33 0.35 0.37 0.38 0.35 0.31 0.30 0.30 0.30 0.30 0.31 0.34 0.37 0.39 0.44 0.49 0.55 0.70 0.86 0.89 0.87 0.83 0.80 0.76 0.69 0.63 0.61 0.65 0.74 0.85 0.93 0.93 0.92 0.94 0.99 1.00 0.97 0.98
0.52 0.51 0.44 0.39 0.37 0.35 0.36 0.40 0.45 0.47 0.40 0.31 0.29 0.30 0.29 0.29 0.30 0.35 0.44 0.51 0.49 0.52 0.67 0.77 0.79 0.78 0.72 0.66 0.59 0.54 0.54 0.54 0.54 0.59 0.63 0.72 0.88 0.98 1.05 1.08 1.11 1.13 1.13
0.50 0.53 0.52 0.51 0.47 0.44 0.44 0.49 0.51 0.46 0.39 0.36 0.33 0.31 0.30 0.31 0.32 0.33 0.38 0.41 0.42 0.44 0.48 0.51 0.51 0.53 0.53 0.50 0.48 0.50 0.53 0.54 0.55 0.55 0.55 0.59 0.69 0.84 1.01 1.11 1.16 1.23 1.21
0.35 0.42 0.49 0.54 0.54 0.51 0.52 0.53 0.52 0.49 0.40 0.36 0.34 0.33 0.33 0.32 0.29 0.30 0.31 0.34 0.39 0.41 0.41 0.41 0.42 0.43 0.43 0.43 0.45 0.48 0.54 0.57 0.55 0.56 0.60 0.64 0.74 0.79 0.84 0.95 1.11 1.17 1.11
0.28 0.31 0.36 0.42 0.48 0.48 0.48 0.50 0.52 0.52 0.46 0.41 0.38 0.37 0.38 0.36 0.37 0.34 0.32 0.33 0.35 0.37 0.38 0.40 0.43 0.43 0.44 0.48 0.49 0.50 0.53 0.57 0.58 0.59 0.61 0.66 0.74 0.83 0.89 0.91 0.94 0.99 1.05
0.27 0.28 0.30 0.33 0.38 0.42 0.44 0.44 0.49 0.52 0.51 0.47 0.46 0.45 0.45 0.41 0.40 0.40 0.40 0.40 0.41 0.42 0.43 0.47 0.50 0.48 0.46 0.49 0.54 0.56 0.58 0.57 0.57 0.61 0.67 0.70 0.73 0.78 0.86 0.94 0.95 0.96 0.99
0.23 0.24 0.26 0.30 0.34 0.37 0.38 0.39 0.42 0.44 0.46 0.45 0.44 0.44 0.43 0.42 0.42 0.43 0.46 0.46 0.46 0.48 0.50 0.57 0.59 0.56 0.54 0.55 0.57 0.57 0.60 0.61 0.63 0.64 0.70 0.73 0.74 0.76 0.81 0.86 0.88 0.91 0.93
0.26 0.27 0.31 0.34 0.33 0.31 0.32 0.35 0.37 0.39 0.42 0.44 0.46 0.47 0.46 0.45 0.44 0.43 0.45 0.46 0.46 0.47 0.48 0.52 0.56 0.58 0.61 0.64 0.65 0.63 0.63 0.68 0.66 0.64 0.71 0.80 0.80 0.79 0.82 0.85 0.86 0.89 0.97
0.31 0.30 0.32 0.35 0.36 0.35 0.33 0.33 0.35 0.38 0.42 0.46 0.48 0.49 0.49 0.49 0.48 0.47 0.47 0.48 0.48 0.47 0.48 0.48 0.51 0.55 0.61 0.67 0.67 0.65 0.73 0.76 0.72 0.65 0.63 0.72 0.77 0.80 0.85 0.89 0.93 1.01 1.12
0.35 0.35 0.35 0.34 0.35 0.37 0.39 0.40 0.41 0.44 0.46 0.48 0.50 0.50 0.51 0.54 0.55 0.55 0.55 0.54 0.52 0.49 0.48 0.50 0.54 0.54 0.56 0.63 0.70 0.75 0.76 0.71 0.73 0.76 0.69 0.68 0.75 0.81 0.91 1.00 1.05 1.14 1.22

GEFSGL_prec_meanprecacc_270.txt.gz
Total_Precipitation_Accumulation
1.10 1.22 1.26 1.24 1.26 1.27 1.22 1.16 1.13 1.09 1.11 1.19 1.25 1.42 1.60 1.77 1.97 2.15 2.18 2.15 2.15 2.12 2.04 2.14 2.26 2.30 2.41 2.44 2.46 2.35 2.21 2.15 2.09 1.90 1.70 1.60 1.78 1.80 1.70 1.60 1.47 1.41 1.41
1.07 1.13 1.21 1.17 1.15 1.20 1.16 1.21 1.11 1.01 0.99 1.04 1.20 1.39 1.52 1.60 1.64 1.74 1.83 1.87 1.90 1.97 1.93 1.90 1.95 2.00 2.15 2.30 2.40 2.37 2.37 2.25 2.18 2.17 1.98 1.75 1.68 1.74 1.78 1.83 1.72 1.49 1.44
1.16 1.27 1.25 1.17 1.16 1.21 1.13 1.21 1.12 1.05 1.03 1.03 1.13 1.27 1.32 1.40 1.46 1.49 1.60 1.71 1.73 1.70 1.73 1.66 1.63 1.71 1.84 1.98 2.07 2.17 2.30 2.33 2.36 2.33 2.25 2.05 1.81 1.80 1.86 1.87 1.88 1.93 1.67
1.39 1.41 1.33 1.25 1.16 1.13 1.09 1.10 1.08 1.06 1.07 1.10 1.22 1.28 1.29 1.28 1.41 1.45 1.49 1.49 1.42 1.36 1.39 1.36 1.37 1.40 1.50 1.66 1.80 2.01 2.20 2.32 2.39 2.41 2.36 2.14 1.95 1.89 1.86 1.89 1.99 2.04 2.00
1.37 1.33 1.30 1.21 1.07 1.01 1.01 0.95 1.02 1.08 1.07 1.14 1.21 1.30 1.34 1.33 1.36 1.42 1.37 1.27 1.22 1.19 1.14 1.03 1.04 1.12 1.16 1.26 1.28 1.55 1.82 2.05 2.18 2.25 2.24 2.10 1.90 1.79 1.66 1.70 1.84 2.02 2.08
1.30 1.26 1.15 1.04 1.02 0.96 0.90 0.86 0.90 0.93 0.97 1.02 1.09 1.24 1.36 1.24 1.36 1.34 1.19 1.06 1.02 1.05 1.00 0.91 0.90 0.95 0.89 0.87 0.90 1.13 1.43 1.60 1.77 1.96 2.03 1.92 1.76 1.69 1.75 1.73 1.73 1.79 1.82
1.09 1.05 0.94 0.88 0.86 0.82 0.77 0.80 0.85 0.87 0.91 0.95 0.95 1.09 1.17 1.25 1.23 1.06 1.08 1.01 0.99 1.00 1.01 1.02 0.93 0.88 0.97 0.86 0.81 0.91 1.00 1.12 1.28 1.55 1.76 1.74 1.84 1.77 1.68 1.61 1.62 1.66 1.65
0.98 0.96 0.91 0.82 0.77 0.74 0.69 0.72 0.83 0.84 0.82 0.86 0.87 0.86 0.92 1.07 1.07 0.91 0.96 0.91 0.99 1.05 1.07 1.15 1.14 1.06 1.04 1.11 1.04 1.04 1.00 0.94 1.05 0.98 1.17 1.55 1.70 1.77 1.75 1.78 1.87 1.79 1.64
0.71 0.77 0.73 0.66 0.69 0.74 0.69 0.74 0.79 0.78 0.79 0.77 0.82 0.82 0.85 0.91 0.92 0.84 0.87 0.90 1.04 1.04 0.98 1.08 1.12 1.07 1.15 1.23 1.31 1.35 1.26 1.10 1.23 1.24 1.14 1.26 1.43 1.50 1.62 1.72 1.77 1.70 1.63
0.44 0.49 0.54 0.53 0.57 0.64 0.73 0.79 0.77 0.74 0.79 0.78 0.74 0.72 0.73 0.74 0.83 0.76 0.86 0.94 1.00 1.00 1.00 1.06 1.22 1.14 1.13 1.10 1.15 1.27 1.24 1.10 0.99 1.03 1.00 0.90 0.84 0.97 1.20 1.34 1.62 1.75 1.69
0.37 0.40 0.42 0.43 0.47 0.59 0.65 0.62 0.61 0.64 0.70 0.72 0.74 0.69 0.67 0.73 0.85 0.86 0.92 0.92 0.97 1.04 1.12 1.15 1.13 1.24 1.08 1.03 1.03 1.02 1.10 1.11 1.08 1.12 1.19 1.07 0.95 0.90 0.95 1.03 1.26 1.51 1.65
0.33 0.36 0.36 0.34 0.35 0.40 0.46 0.51 0.53 0.53 0.56 0.56 0.58 0.57 0.59 0.70 0.77 0.78 0.80 0.85 0.95 0.95 1.00 1.00 0.97 1.08 0.94 0.85 0.80 0.85 0.94 1.01 1.08 1.20 1.18 1.11 1.08 1.02 1.00 1.04 1.11 1.24 1.34
0.34 0.35 0.34 0.34 0.34 0.36 0.40 0.44 0.49 0.53 0.55 0.52 0.48 0.48 0.53 0.58 0.67 0.70 0.68 0.68 0.73 0.73 0.70 0.82 0.87 0.86 0.82 0.74 0.78 0.82 0.84 0.86 0.96 1.04 1.04 0.99 0.99 1.05 1.07 1.07 1.11 1.15 1.14
0.30 0.32 0.33 0.35 0.37 0.37 0.40 0.45 0.51 0.51 0.46 0.44 0.45 0.48 0.52 0.55 0.58 0.59 0.62 0.61 0.60 0.65 0.63 0.69 0.73 0.72 0.71 0.72 0.76 0.80 0.84 0.86 0.91 0.93 0.92 0.95 0.97 1.04 1.11 1.09 1.10 1.17 1.23
0.29 0.29 0.29 0.33 0.37 0.37 0.35 0.37 0.43 0.45 0.43 0.44 0.45 0.50 0.54 0.55 0.54 0.54 0.53 0.58 0.63 0.68 0.74 0.68 0.66 0.66 0.67 0.74 0.77 0.76 0.80 0.85 0.86 0.84 0.87 0.90 0.90 0.96 1.00 1.00 1.04 1.09 1.13
0.31 0.30 0.30 0.32 0.37 0.38 0.36 0.36 0.39 0.39 0.43 0.42 0.40 0.40 0.37 0.38 0.43 0.43 0.44 0.49 0.58 0.65 0.75 0.80 0.82 0.87 0.89 0.87 0.84 0.76 0.72 0.74 0.81 0.87 0.89 0.90 0.90 0.88 0.92 0.96 1.00 1.08 1.11
0.39 0.36 0.35 0.34 0.35 0.36 0.38 0.39 0.40 0.37 0.33 0.32 0.33 0.32 0.32 0.35 0.37 0.39 0.40 0.45 0.50 0.56 0.71 0.86 0.90 0.88 0.84 0.81 0.77 0.70 0.64 0.62 0.66 0.76 0.87 0.96 0.97 0.96 0.98 1.02 1.03 1.00 1.00
0.53 0.52 0.45 0.41 0.39 0.38 0.39 0.43 0.47 0.49 0.42 0.33 0.31 0.32 0.32 0.33 0.34 0.38 0.47 0.53 0.50 0.53 0.67 0.77 0.79 0.78 0.72 0.66 0.60 0.55 0.55 0.55 0.55 0.61 0.65 0.74 0.90 1.01 1.09 1.11 1.14 1.16 1.15
0.51 0.54 0.53 0.52 0.50 0.47 0.47 0.52 0.53 0.48 0.41 0.38 0.35 0.33 0.33 0.34 0.35 0.37 0.42 0.45 0.44 0.45 0.49 0.51 0.52 0.54 0.54 0.51 0.49 0.51 0.55 0.55 0.56 0.56 0.57 0.61 0.72 0.87 1.04 1.14 1.18 1.26 1.24
0.36 0.43 0.51 0.56 0.55 0.53 0.55 0.55 0.54 0.50 0.42 0.38 0.36 0.34 0.35 0.34 0.32 0.33 0.34 0.37 0.43 0.44 0.43 0.42 0.44 0.45 0.45 0.45 0.47 0.51 0.57 0.60 0.58 0.58 0.62 0.67 0.76 0.82 0.87 0.98 1.14 1.19 1.13
0.29 0.32 0.38 0.44 0.49 0.49 0.50 0.52 0.54 0.54 0.48 0.43 0.40 0.38 0.39 0.39 0.40 0.36 0.35 0.37 0.38 0.40 0.42 0.44 0.46 0.45 0.45 0.50 0.51 0.52 0.55 0.59 0.60 0.61 0.63 0.68 0.77 0.86 0.92 0.95 0.97 1.02 1.07
0.29 0.31 0.32 0.35 0.40 0.44 0.46 0.47 0.51 0.54 0.52 0.49 0.47 0.47 0.48 0.43 0.43 0.43 0.43 0.44 0.45 0.45 0.46 0.50 0.53 0.50 0.48 0.50 0.55 0.57 0.59 0.59 0.59 0.63 0.69 0.72 0.76 0.82 0.90 0.98 0.99 1.00 1.02
0.26 0.27 0.29 0.33 0.36 0.39 0.41 0.41 0.45 0.47 0.48 0.47 0.45 0.46 0.45 0.43 0.44 0.46 0.49 0.49 0.49 0.52 0.54 0.61 0.63 0.60 0.57 0.58 0.59 0.59 0.62 0.63 0.64 0.66 0.72 0.75 0.76 0.78 0.84 0.90 0.92 0.94 0.96
0.27 0.29 0.33 0.36 0.35 0.33 0.35 0.38 0.40 0.42 0.45 0.47 0.49 0.50 0.49 0.48 0.47 0.46 0.47 0.48 0.49 0.50 0.52 0.55 0.60 0.62 0.65 0.66 0.67 0.65 0.65 0.70 0.67 0.65 0.73 0.82 0.82 0.81 0.84 0.88 0.89 0.92 1.00
0.33 0.32 0.34 0.37 0.38 0.37 0.35 0.36 0.39 0.43 0.46 0.50 0.53 0.54 0.55 0.54 0.52 0.51 0.50 0.51 0.51 0.51 0.52 0.53 0.56 0.61 0.66 0.72 0.71 0.68 0.76 0.79 0.75 0.67 0.64 0.73 0.79 0.82 0.87 0.92 0.96 1.04 1.16
0.38 0.37 0.38 0.38 0.38 0.39 0.41 0.42 0.43 0.48 0.51 0.53 0.55 0.56 0.58 0.60 0.60 0.59 0.58 0.57 0.54 0.51 0.51 0.54 0.59 0.60 0.62 0.69 0.75 0.80 0.80 0.74 0.75 0.79 0.71 0.70 0.77 0.84 0.93 1.02 1.07 1.17 1.25

GEFSGL_prec_meanprecacc_276.txt.gz
Total_Precipitation_Accumulation
1.11 1.23 1.27 1.25 1.28 1.29 1.23 1.17 1.15 1.12 1.13 1.21 1.26 1.44 1.62 1.81 2.01 2.18 2.20 2.17 2.17 2.14 2.06 2.17 2.32 2.35 2.45 2.49 2.50 2.39 2.24 2.19 2.12 1.93 1.71 1.61 1.79 1.81 1.70 1.60 1.47 1.43 1.43
1.09 1.14 1.22 1.19 1.17 1.22 1.18 1.23 1.14 1.05 1.04 1.07 1.21 1.41 1.54 1.62 1.67 1.77 1.85 1.89 1.93 1.99 1.95 1.92 1.99 2.06 2.19 2.34 2.43 2.40 2.40 2.28 2.21 2.22 2.02 1.78 1.70 1.75 1.78 1.84 1.73 1.50 1.45
1.17 1.28 1.26 1.19 1.18 1.23 1.16 1.23 1.16 1.08 1.06 1.05 1.15 1.29 1.34 1.42 1.48 1.52 1.63 1.73 1.76 1.73 1.76 1.67 1.66 1.75 1.89 2.02 2.09 2.18 2.32 2.36 2.38 2.36 2.28 2.08 1.83 1.81 1.88 1.89 1.89 1.94 1.68
1.42 1.43 1.34 1.27 1.18 1.14 1.10 1.12 1.11 1.09 1.08 1.10 1.23 1.28 1.30 1.29 1.42 1.47 1.52 1.51 1.46 1.39 1.42 1.39 1.40 1.43 1.53 1.68 1.81 2.02 2.21 2.33 2.41 2.42 2.37 2.15 1.97 1.90 1.87 1.91 2.00 2.05 2.02
1.42 1.36 1.33 1.23 1.09 1.03 1.03 0.98 1.04 1.10 1.09 1.15 1.22 1.30 1.35 1.34 1.37 1.44 1.39 1.29 1.25 1.22 1.17 1.05 1.06 1.14 1.18 1.27 1.29 1.57 1.84 2.07 2.20 2.26 2.25 2.11 1.90 1.81 1.68 1.71 1.86 2.04 2.09
1.34 1.29 1.18 1.06 1.03 0.98 0.92 0.89 0.93 0.96 1.00 1.04 1.10 1.26 1.38 1.27 1.40 1.37 1.22 1.09 1.04 1.07 1.02 0.93 0.92 0.96 0.90 0.89 0.92 1.15 1.46 1.64 1.81 2.00 2.06 1.94 1.78 1.71 1.76 1.74 1.74 1.80 1.83
1.14 1.10 0.98 0.90 0.87 0.83 0.79 0.83 0.88 0.89 0.93 0.97 0.97 1.10 1.19 1.28 1.27 1.10 1.11 1.04 1.03 1.02 1.03 1.03 0.94 0.89 0.99 0.88 0.83 0.92 1.01 1.13 1.30 1.57 1.79 1.77 1.87 1.79 1.70 1.62 1.63 1.67 1.66
1.02 1.00 0.93 0.84 0.78 0.75 0.70 0.75 0.87 0.87 0.84 0.87 0.88 0.87 0.94 1.10 1.10 0.96 1.00 0.95 1.05 1.09 1.09 1.16 1.16 1.08 1.06 1.13 1.06 1.06 1.01 0.95 1.06 0.98 1.18 1.57 1.72 1.80 1.77 1.80 1.89 1.82 1.66
0.76 0.79 0.76 0.69 0.71 0.76 0.71 0.77 0.83 0.81 0.82 0.79 0.83 0.83 0.86 0.93 0.95 0.88 0.90 0.93 1.06 1.07 1.01 1.11 1.15 1.08 1.16 1.25 1.32 1.36 1.28 1.11 1.24 1.24 1.14 1.27 1.45 1.52 1.65 1.74 1.80 1.72 1.65
0.50 0.53 0.59 0.58 0.61 0.68 0.76 0.83 0.81 0.77 0.81 0.80 0.76 0.74 0.74 0.76 0.85 0.78 0.88 0.95 1.01 1.04 1.05 1.09 1.25 1.17 1.15 1.12 1.17 1.29 1.26 1.11 1.00 1.04 1.01 0.91 0.85 0.98 1.20 1.35 1.63 1.76 1.70
0.42 0.43 0.46 0.48 0.53 0.64 0.70 0.66 0.64 0.67 0.73 0.74 0.76 0.70 0.68 0.74 0.86 0.87 0.94 0.94 0.99 1.06 1.17 1.19 1.16 1.27 1.11 1.06 1.06 1.04 1.13 1.13 1.10 1.15 1.21 1.09 0.97 0.91 0.96 1.04 1.27 1.52 1.67
0.36 0.39 0.39 0.37 0.38 0.43 0.50 0.55 0.55 0.56 0.58 0.58 0.60 0.58 0.60 0.70 0.77 0.78 0.82 0.87 0.96 0.96 1.02 1.02 0.99 1.10 0.96 0.88 0.82 0.88 0.97 1.05 1.12 1.23 1.20 1.14 1.11 1.04 1.02 1.05 1.12 1.25 1.35
0.36 0.38 0.37 0.36 0.36 0.37 0.42 0.47 0.52 0.56 0.57 0.54 0.50 0.49 0.54 0.59 0.67 0.70 0.69 0.69 0.73 0.74 0.71 0.83 0.88 0.88 0.83 0.76 0.80 0.84 0.87 0.89 1.00 1.08 1.08 1.02 1.01 1.07 1.10 1.10 1.13 1.17 1.16
0.32 0.35 0.36 0.38 0.39 0.38 0.41 0.46 0.53 0.53 0.48 0.45 0.47 0.49 0.53 0.56 0.58 0.59 0.62 0.62 0.61 0.65 0.64 0.69 0.74 0.73 0.73 0.74 0.78 0.82 0.85 0.88 0.93 0.95 0.94 0.97 0.99 1.07 1.14 1.12 1.13 1.20 1.26
0.30 0.31 0.32 0.36 0.40 0.39 0.36 0.37 0.44 0.46 0.44 0.45 0.47 0.51 0.55 0.56 0.54 0.55 0.53 0.58 0.63 0.69 0.74 0.69 0.67 0.68 0.68 0.75 0.79 0.79 0.83 0.88 0.88 0.86 0.89 0.92 0.93 0.98 1.03 1.03 1.06 1.11 1.15
0.32 0.31 0.32 0.35 0.40 0.41 0.38 0.37 0.40 0.40 0.44 0.44 0.41 0.41 0.38 0.39 0.44 0.44 0.45 0.50 0.59 0.65 0.76 0.80 0.83 0.89 0.91 0.89 0.86 0.78 0.75 0.77 0.84 0.90 0.92 0.92 0.93 0.92 0.95 0.99 1.03 1.12 1.14
0.40 0.37 0.36 0.36 0.37 0.39 0.41 0.42 0.42 0.38 0.34 0.33 0.34 0.32 0.33 0.36 0.38 0.40 0.41 0.46 0.51 0.57 0.72 0.87 0.90 0.89 0.85 0.83 0.78 0.72 0.66 0.65 0.69 0.80 0.91 0.99 1.00 0.99 1.02 1.06 1.07 1.04 1.03
0.53 0.53 0.46 0.42 0.41 0.39 0.42 0.46 0.49 0.51 0.44 0.34 0.32 0.33 0.33 0.34 0.35 0.39 0.48 0.55 0.51 0.54 0.68 0.78 0.80 0.79 0.73 0.68 0.62 0.57 0.57 0.56 0.57 0.63 0.68 0.77 0.93 1.04 1.11 1.14 1.17 1.20 1.18
0.51 0.55 0.54 0.53 0.50 0.48 0.48 0.54 0.55 0.50 0.43 0.40 0.36 0.34 0.34 0.36 0.37 0.39 0.43 0.46 0.45 0.46 0.50 0.52 0.53 0.55 0.55 0.53 0.51 0.53 0.57 0.57 0.58 0.60 0.60 0.64 0.75 0.90 1.07 1.16 1.21 1.29 1.27
0.37 0.44 0.51 0.56 0.56 0.54 0.55 0.56 0.55 0.52 0.44 0.40 0.38 0.35 0.36 0.35 0.34 0.35 0.36 0.39 0.45 0.47 0.45 0.44 0.45 0.46 0.46 0.47 0.49 0.53 0.58 0.61 0.59 0.60 0.66 0.71 0.80 0.86 0.90 1.01 1.16 1.22 1.16
0.30 0.33 0.38 0.44 0.49 0.49 0.51 0.53 0.55 0.55 0.50 0.46 0.43 0.40 0.40 0.40 0.40 0.37 0.36 0.38 0.41 0.44 0.44 0.45 0.47 0.47 0.47 0.52 0.53 0.54 0.57 0.61 0.62 0.62 0.64 0.71 0.80 0.89 0.95 0.97 1.00 1.04 1.10
0.30 0.31 0.33 0.36 0.40 0.44 0.46 0.47 0.52 0.54 0.53 0.51 0.50 0.49 0.49 0.44 0.44 0.44 0.44 0.45 0.48 0.48 0.49 0.53 0.56 0.53 0.51 0.54 0.59 0.61 0.62 0.61 0.61 0.64 0.70 0.74 0.78 0.84 0.92 1.00 1.01 1.02 1.04
0.26 0.27 0.30 0.33 0.37 0.40 0.42 0.42 0.46 0.48 0.49 0.48 0.46 0.47 0.46 0.44 0.45 0.46 0.50 0.51 0.52 0.54 0.57 0.63 0.66 0.64 0.62 0.63 0.64 0.65 0.67 0.67 0.67 0.68 0.74 0.77 0.78 0.80 0.86 0.92 0.94 0.96 0.98
0.29 0.30 0.34 0.37 0.36 0.34 0.36 0.40 0.42 0.44 0.46 0.48 0.50 0.52 0.50 0.49 0.48 0.47 0.49 0.50 0.51 0.53 0.55 0.59 0.64 0.67 0.69 0.72 0.73 0.71 0.71 0.76 0.72 0.70 0.77 0.85 0.84 0.83 0.87 0.90 0.91 0.94 1.03
0.35 0.34 0.36 0.39 0.40 0.38 0.36 0.37 0.41 0.45 0.48 0.52 0.56 0.57 0.56 0.55 0.53 0.52 0.51 0.52 0.53 0.53 0.54 0.56 0.59 0.64 0.71 0.77 0.77 0.73 0.81 0.85 0.80 0.71 0.68 0.77 0.82 0.85 0.91 0.95 1.00 1.08 1.20
0.39 0.39 0.40 0.39 0.39 0.40 0.42 0.43 0.45 0.50 0.54 0.57 0.59 0.60 0.61 0.63 0.62 0.61 0.60 0.58 0.56 0.53 0.52 0.55 0.60 0.61 0.64 0.73 0.80 0.85 0.85 0.78 0.79 0.83 0.75 0.74 0.80 0.87 0.96 1.05 1.10 1.21 1.29

GEFSGL_prec_meanprecacc_282.txt.gz
Total_Precipitation_Accumulation
1.14 1.26 1.30 1.27 1.29 1.32 1.26 1.19 1.18 1.15 1.15 1.22 1.29 1.46 1.64 1.83 2.04 2.20 2.22 2.18 2.18 2.15 2.08 2.19 2.33 2.37 2.48 2.51 2.53 2.42 2.28 2.23 2.17 1.96 1.75 1.64 1.82 1.82 1.71 1.60 1.48 1.44 1.44
1.10 1.15 1.24 1.22 1.20 1.25 1.21 1.25 1.15 1.08 1.06 1.09 1.24 1.45 1.57 1.64 1.71 1.81 1.88 1.92 1.96 2.02 1.98 1.95 2.00 2.08 2.20 2.35 2.45 2.42 2.43 2.32 2.25 2.25 2.05 1.81 1.73 1.78 1.81 1.85 1.74 1.51 1.46
1.20 1.29 1.27 1.23 1.22 1.26 1.19 1.26 1.17 1.10 1.08 1.07 1.17 1.32 1.37 1.45 1.51 1.57 1.69 1.78 1.80 1.77 1.80 1.70 1.68 1.77 1.90 2.04 2.11 2.20 2.35 2.39 2.40 2.37 2.30 2.11 1.86 1.84 1.90 1.91 1.91 1.96 1.69
1.44 1.46 1.36 1.30 1.22 1.18 1.14 1.15 1.14 1.11 1.10 1.13 1.25 1.31 1.33 1.32 1.46 1.52 1.58 1.56 1.50 1.43 1.46 1.43 1.43 1.45 1.55 1.71 1.84 2.04 2.23 2.36 2.44 2.44 2.39 2.17 1.99 1.92 1.89 1.92 2.02 2.08 2.04
1.44 1.39 1.36 1.25 1.12 1.06 1.05 0.99 1.06 1.13 1.11 1.17 1.24 1.33 1.37 1.37 1.40 1.47 1.43 1.33 1.30 1.28 1.24 1.10 1.09 1.17 1.20 1.30 1.31 1.59 1.87 2.10 2.23 2.29 2.27 2.13 1.93 1.83 1.69 1.73 1.87 2.05 2.11
1.36 1.32 1.20 1.09 1.06 1.01 0.93 0.89 0.94 0.97 1.01 1.06 1.11 1.28 1.40 1.29 1.43 1.40 1.24 1.12 1.08 1.12 1.08 0.98 0.94 0.98 0.93 0.92 0.95 1.18 1.49 1.67 1.84 2.03 2.08 1.96 1.79 1.73 1.78 1.77 1.77 1.82 1.85
1.15 1.12 1.01 0.93 0.90 0.87 0.81 0.84 0.89 0.91 0.95 0.99 0.98 1.12 1.21 1.30 1.29 1.11 1.12 1.06 1.06 1.06 1.07 1.08 0.98 0.92 1.01 0.90 0.85 0.95 1.04 1.17 1.34 1.61 1.82 1.79 1.89 1.80 1.71 1.64 1.64 1.68 1.67
1.03 1.02 0.95 0.86 0.81 0.79 0.73 0.77 0.89 0.89 0.86 0.90 0.90 0.89 0.95 1.12 1.12 0.97 1.01 0.97 1.08 1.12 1.13 1.21 1.21 1.11 1.09 1.17 1.09 1.08 1.04 0.98 1.09 1.01 1.20 1.58 1.74 1.81 1.78 1.81 1.90 1.83 1.66
0.77 0.82 0.79 0.71 0.73 0.80 0.74 0.80 0.85 0.84 0.84 0.81 0.85 0.85 0.87 0.95 0.96 0.88 0.91 0.95 1.09 1.12 1.06 1.17 1.21 1.13 1.21 1.31 1.37 1.39 1.30 1.14 1.26 1.27 1.17 1.29 1.46 1.53 1.66 1.75 1.80 1.73 1.66
0.54 0.58 0.63 0.61 0.63 0.71 0.79 0.84 0.83 0.80 0.85 0.82 0.78 0.75 0.76 0.78 0.87 0.78 0.89 0.96 1.03 1.07 1.09 1.13 1.29 1.20 1.19 1.16 1.21 1.33 1.30 1.14 1.02 1.07 1.04 0.94 0.88 1.00 1.22 1.36 1.64 1.77 1.71
0.48 0.49 0.50 0.53 0.57 0.67 0.73 0.68 0.67 0.69 0.76 0.77 0.78 0.73 0.71 0.77 0.88 0.89 0.94 0.95 1.01 1.08 1.18 1.21 1.19 1.30 1.14 1.09 1.08 1.07 1.16 1.16 1.14 1.18 1.24 1.12 1.00 0.95 0.99 1.06 1.28 1.53 1.68
0.42 0.45 0.43 0.40 0.42 0.48 0.54 0.59 0.59 0.60 0.62 0.62 0.63 0.62 0.63 0.72 0.80 0.80 0.83 0.88 0.97 0.97 1.03 1.03 1.01 1.13 0.98 0.90 0.85 0.89 0.99 1.08 1.15 1.27 1.24 1.17 1.14 1.07 1.05 1.08 1.15 1.27 1.37
0.42 0.44 0.42 0.40 0.39 0.41 0.47 0.52 0.57 0.61 0.62 0.59 0.55 0.53 0.56 0.61 0.69 0.72 0.70 0.70 0.74 0.75 0.73 0.86 0.91 0.90 0.86 0.78 0.82 0.86 0.89 0.92 1.05 1.14 1.13 1.07 1.08 1.13 1.14 1.13 1.15 1.19 1.19
0.38 0.42 0.40 0.42 0.42 0.41 0.44 0.50 0.59 0.60 0.55 0.51 0.52 0.53 0.56 0.58 0.60 0.60 0.63 0.62 0.62 0.67 0.65 0.71 0.75 0.74 0.74 0.75 0.79 0.83 0.87 0.91 0.98 1.01 1.00 1.02 1.03 1.11 1.18 1.16 1.16 1.22 1.28
0.34 0.37 0.36 0.39 0.43 0.41 0.38 0.40 0.49 0.52 0.50 0.51 0.52 0.55 0.58 0.59 0.57 0.55 0.54 0.58 0.64 0.70 0.76 0.70 0.67 0.68 0.69 0.76 0.79 0.80 0.83 0.88 0.89 0.88 0.92 0.96 0.96 1.02 1.06 1.06 1.10 1.15 1.17
0.33 0.36 0.37 0.38 0.43 0.43 0.40 0.38 0.41 0.43 0.48 0.50 0.47 0.46 0.41 0.42 0.46 0.45 0.45 0.51 0.59 0.66 0.77 0.82 0.84 0.89 0.91 0.90 0.86 0.79 0.76 0.79 0.86 0.92 0.94 0.95 0.96 0.95 0.98 1.02 1.06 1.14 1.16
0.40 0.39 0.40 0.40 0.40 0.41 0.44 0.44 0.44 0.39 0.35 0.36 0.39 0.36 0.35 0.38 0.40 0.42 0.43 0.48 0.52 0.58 0.73 0.89 0.92 0.90 0.86 0.85 0.80 0.73 0.68 0.66 0.71 0.82 0.93 1.02 1.03 1.02 1.05 1.09 1.10 1.07 1.06
0.54 0.54 0.49 0.45 0.43 0.42 0.43 0.48 0.52 0.53 0.45 0.35 0.34 0.35 0.36 0.36 0.37 0.41 0.50 0.57 0.53 0.55 0.69 0.79 0.81 0.80 0.74 0.69 0.63 0.59 0.59 0.59 0.59 0.65 0.70 0.80 0.96 1.07 1.15 1.18 1.20 1.23 1.21
0.52 0.56 0.56 0.55 0.52 0.50 0.50 0.55 0.57 0.53 0.46 0.42 0.38 0.36 0.36 0.38 0.40 0.41 0.45 0.48 0.47 0.48 0.52 0.53 0.54 0.56 0.57 0.55 0.52 0.55 0.59 0.60 0.61 0.62 0.62 0.66 0.77 0.93 1.10 1.19 1.24 1.32 1.30
0.38 0.45 0.53 0.58 0.57 0.55 0.57 0.58 0.57 0.54 0.47 0.43 0.40 0.37 0.38 0.37 0.35 0.36 0.38 0.41 0.47 0.48 0.47 0.45 0.47 0.48 0.48 0.49 0.51 0.55 0.61 0.64 0.62 0.63 0.68 0.73 0.82 0.88 0.93 1.03 1.19 1.24 1.18
0.31 0.34 0.40 0.47 0.51 0.51 0.53 0.55 0.57 0.57 0.52 0.49 0.46 0.44 0.44 0.42 0.42 0.39 0.38 0.41 0.44 0.46 0.46 0.47 0.49 0.49 0.49 0.54 0.56 0.57 0.60 0.64 0.65 0.65 0.67 0.73 0.82 0.92 0.97 1.00 1.02 1.07 1.13
0.31 0.33 0.35 0.38 0.43 0.46 0.47 0.49 0.53 0.56 0.55 0.53 0.53 0.53 0.54 0.48 0.46 0.46 0.46 0.47 0.49 0.50 0.51 0.55 0.58 0.55 0.53 0.56 0.61 0.64 0.66 0.66 0.65 0.68 0.74 0.77 0.80 0.86 0.94 1.02 1.04 1.05 1.07
0.28 0.29 0.31 0.35 0.39 0.42 0.43 0.43 0.47 0.50 0.51 0.51 0.49 0.50 0.49 0.48 0.48 0.49 0.52 0.52 0.54 0.56 0.59 0.65 0.68 0.66 0.63 0.64 0.66 0.67 0.69 0.71 0.71 0.73 0.78 0.82 0.82 0.84 0.89 0.95 0.96 0.99 1.01
0.31 0.32 0.36 0.39 0.37 0.35 0.37 0.40 0.43 0.45 0.48 0.50 0.53 0.54 0.53 0.51 0.50 0.49 0.51 0.52 0.53 0.55 0.57 0.60 0.66 0.68 0.71 0.73 0.75 0.73 0.74 0.80 0.76 0.74 0.81 0.91 0.90 0.88 0.90 0.93 0.94 0.96 1.05
0.37 0.36 0.38 0.40 0.40 0.39 0.37 0.39 0.42 0.46 0.50 0.54 0.58 0.59 0.58 0.57 0.55 0.53 0.53 0.54 0.55 0.55 0.56 0.57 0.60 0.65 0.72 0.78 0.78 0.75 0.84 0.88 0.85 0.76 0.73 0.82 0.87 0.91 0.97 0.99 1.03 1.10 1.22
0.41 0.41 0.42 0.41 0.40 0.41 0.44 0.45 0.46 0.51 0.55 0.58 0.61 0.62 0.63 0.65 0.64 0.63 0.62 0.60 0.58 0.55 0.54 0.57 0.62 0.62 0.65 0.73 0.81 0.86 0.87 0.80 0.82 0.87 0.80 0.79 0.85 0.92 1.02 1.11 1.15 1.24 1.33

GEFSGL_prec_meanprecacc_288.txt.gz
Total_Precipitation_Accumulation
1.19 1.30 1.32 1.29 1.31 1.33 1.27 1.21 1.20 1.19 1.19 1.26 1.32 1.48 1.66 1.87 2.07 2.22 2.22 2.19 2.19 2.16 2.08 2.19 2.34 2.38 2.49 2.53 2.55 2.45 2.31 2.26 2.18 1.98 1.78 1.67 1.85 1.85 1.74 1.64 1.49 1.44 1.45
1.12 1.17 1.27 1.25 1.21 1.26 1.23 1.27 1.18 1.09 1.08 1.11 1.26 1.48 1.59 1.67 1.74 1.84 1.89 1.92 1.96 2.03 1.98 1.95 2.01 2.09 2.21 2.37 2.46 2.44 2.44 2.34 2.27 2.27 2.07 1.82 1.74 1.80 1.82 1.88 1.76 1.52 1.47
1.23 1.30 1.30 1.26 1.24 1.28 1.20 1.28 1.19 1.12 1.10 1.10 1.19 1.34 1.41 1.48 1.54 1.59 1.71 1.80 1.82 1.79 1.81 1.71 1.69 1.78 1.91 2.05 2.13 2.22 2.37 2.40 2.42 2.40 2.33 2.12 1.86 1.85 1.91 1.92 1.93 1.97 1.70
1.48 1.48 1.38 1.32 1.24 1.20 1.16 1.17 1.15 1.12 1.12 1.15 1.27 1.33 1.37 1.36 1.48 1.54 1.61 1.59 1.53 1.46 1.49 1.45 1.44 1.46 1.56 1.72 1.85 2.05 2.25 2.37 2.45 2.46 2.41 2.19 2.00 1.92 1.89 1.93 2.03 2.08 2.04
1.46 1.42 1.40 1.27 1.14 1.08 1.08 1.02 1.07 1.14 1.13 1.20 1.27 1.35 1.40 1.41 1.43 1.49 1.45 1.36 1.34 1.31 1.27 1.13 1.12 1.19 1.22 1.32 1.33 1.61 1.88 2.11 2.24 2.30 2.30 2.16 1.94 1.83 1.70 1.73 1.88 2.06 2.12
1.38 1.33 1.24 1.12 1.09 1.03 0.96 0.92 0.94 0.98 1.03 1.08 1.14 1.31 1.42 1.32 1.47 1.42 1.25 1.14 1.12 1.16 1.12 1.01 0.97 1.01 0.95 0.95 0.98 1.21 1.52 1.69 1.85 2.04 2.10 1.98 1.81 1.73 1.79 1.77 1.77 1.83 1.86
1.17 1.13 1.03 0.96 0.93 0.91 0.86 0.88 0.90 0.91 0.96 1.01 1.00 1.14 1.22 1.32 1.33 1.15 1.16 1.09 1.09 1.09 1.10 1.11 1.01 0.94 1.04 0.92 0.88 0.98 1.06 1.18 1.35 1.62 1.83 1.81 1.90 1.82 1.72 1.64 1.65 1.68 1.68
1.05 1.04 0.98 0.90 0.84 0.81 0.78 0.83 0.91 0.89 0.86 0.90 0.91 0.90 0.96 1.12 1.14 1.00 1.05 1.00 1.11 1.15 1.16 1.24 1.24 1.14 1.13 1.21 1.12 1.11 1.06 0.99 1.10 1.02 1.21 1.59 1.76 1.83 1.80 1.82 1.91 1.83 1.67
0.80 0.85 0.82 0.74 0.76 0.82 0.77 0.85 0.89 0.85 0.84 0.82 0.86 0.86 0.89 0.95 0.97 0.90 0.94 0.97 1.12 1.14 1.08 1.20 1.24 1.16 1.25 1.38 1.44 1.43 1.33 1.15 1.27 1.29 1.18 1.30 1.48 1.55 1.67 1.77 1.81 1.74 1.66
0.57 0.60 0.65 0.63 0.66 0.73 0.80 0.87 0.88 0.83 0.86 0.84 0.80 0.77 0.78 0.79 0.88 0.81 0.91 0.97 1.05 1.09 1.11 1.15 1.31 1.22 1.21 1.20 1.27 1.38 1.34 1.17 1.05 1.08 1.05 0.95 0.90 1.02 1.25 1.38 1.65 1.78 1.72
0.50 0.51 0.53 0.55 0.59 0.70 0.76 0.71 0.71 0.73 0.78 0.79 0.82 0.77 0.73 0.79 0.90 0.90 0.95 0.96 1.02 1.09 1.18 1.21 1.20 1.31 1.15 1.10 1.10 1.08 1.18 1.20 1.18 1.22 1.27 1.14 1.02 0.97 1.01 1.08 1.30 1.55 1.69
0.42 0.47 0.45 0.42 0.44 0.50 0.58 0.64 0.64 0.63 0.65 0.65 0.67 0.66 0.66 0.74 0.82 0.81 0.84 0.89 0.98 0.98 1.04 1.04 1.01 1.15 1.00 0.92 0.86 0.91 1.01 1.09 1.16 1.29 1.27 1.20 1.17 1.10 1.07 1.10 1.17 1.29 1.38
0.42 0.45 0.43 0.42 0.40 0.43 0.50 0.58 0.64 0.67 0.66 0.62 0.57 0.56 0.60 0.63 0.71 0.73 0.71 0.70 0.75 0.76 0.73 0.87 0.93 0.93 0.88 0.80 0.84 0.88 0.91 0.93 1.06 1.15 1.14 1.09 1.10 1.17 1.18 1.16 1.18 1.22 1.21
0.38 0.42 0.42 0.44 0.44 0.43 0.47 0.54 0.65 0.67 0.61 0.56 0.56 0.56 0.59 0.61 0.62 0.62 0.64 0.63 0.63 0.67 0.66 0.72 0.78 0.77 0.78 0.79 0.82 0.85 0.89 0.92 0.99 1.02 1.01 1.04 1.05 1.12 1.20 1.18 1.19 1.26 1.30
0.34 0.37 0.38 0.42 0.46 0.44 0.40 0.43 0.54 0.58 0.58 0.60 0.60 0.62 0.64 0.63 0.60 0.58 0.56 0.60 0.65 0.71 0.77 0.71 0.68 0.70 0.71 0.78 0.82 0.82 0.86 0.91 0.91 0.89 0.93 0.97 0.97 1.03 1.07 1.08 1.11 1.17 1.20
0.34 0.36 0.38 0.41 0.46 0.47 0.42 0.40 0.45 0.48 0.56 0.58 0.56 0.56 0.51 0.49 0.50 0.48 0.47 0.53 0.61 0.68 0.79 0.83 0.85 0.90 0.92 0.91 0.88 0.81 0.78 0.81 0.88 0.94 0.96 0.97 0.98 0.96 1.00 1.03 1.06 1.15 1.17
0.41 0.40 0.41 0.42 0.42 0.44 0.46 0.46 0.45 0.42 0.41 0.44 0.45 0.42 0.41 0.44 0.44 0.45 0.45 0.50 0.54 0.60 0.74 0.90 0.93 0.91 0.87 0.85 0.80 0.74 0.70 0.68 0.73 0.83 0.95 1.04 1.05 1.04 1.07 1.11 1.11 1.08 1.07
0.55 0.56 0.51 0.47 0.46 0.45 0.46 0.50 0.53 0.54 0.48 0.39 0.38 0.39 0.39 0.39 0.40 0.44 0.53 0.59 0.56 0.57 0.70 0.80 0.82 0.81 0.75 0.70 0.64 0.60 0.60 0.60 0.60 0.66 0.71 0.81 0.98 1.09 1.16 1.19 1.22 1.24 1.23
0.53 0.57 0.57 0.57 0.55 0.53 0.53 0.58 0.59 0.54 0.48 0.45 0.41 0.39 0.40 0.41 0.42 0.43 0.48 0.51 0.50 0.50 0.54 0.55 0.55 0.57 0.58 0.56 0.54 0.56 0.60 0.61 0.62 0.63 0.63 0.67 0.79 0.94 1.11 1.20 1.25 1.33 1.32
0.39 0.46 0.54 0.59 0.59 0.58 0.60 0.60 0.59 0.56 0.48 0.45 0.42 0.40 0.41 0.40 0.39 0.40 0.41 0.46 0.51 0.51 0.49 0.47 0.48 0.50 0.50 0.50 0.52 0.55 0.62 0.65 0.63 0.65 0.69 0.74 0.83 0.90 0.95 1.04 1.20 1.26 1.20
0.32 0.35 0.41 0.47 0.52 0.52 0.55 0.58 0.59 0.58 0.53 0.50 0.48 0.45 0.46 0.44 0.45 0.43 0.42 0.46 0.50 0.52 0.51 0.51 0.53 0.52 0.52 0.57 0.58 0.58 0.61 0.66 0.66 0.67 0.69 0.75 0.84 0.93 0.99 1.02 1.04 1.09 1.14
0.33 0.34 0.36 0.39 0.45 0.47 0.50 0.52 0.56 0.57 0.56 0.54 0.54 0.54 0.56 0.50 0.49 0.49 0.49 0.51 0.53 0.53 0.54 0.58 0.61 0.58 0.56 0.59 0.64 0.67 0.68 0.68 0.67 0.71 0.76 0.79 0.83 0.89 0.97 1.05 1.07 1.07 1.10
0.31 0.31 0.32 0.37 0.41 0.45 0.46 0.46 0.49 0.51 0.52 0.52 0.50 0.51 0.51 0.50 0.50 0.51 0.54 0.55 0.56 0.58 0.60 0.67 0.70 0.67 0.65 0.66 0.68 0.69 0.72 0.73 0.74 0.76 0.81 0.85 0.85 0.87 0.92 0.98 1.00 1.02 1.04
0.33 0.34 0.38 0.41 0.41 0.39 0.40 0.43 0.45 0.46 0.48 0.50 0.54 0.55 0.54 0.53 0.53 0.51 0.53 0.55 0.56 0.57 0.58 0.62 0.68 0.70 0.73 0.75 0.76 0.75 0.76 0.81 0.78 0.76 0.85 0.95 0.95 0.92 0.94 0.97 0.98 1.00 1.09
0.40 0.38 0.40 0.42 0.44 0.42 0.40 0.41 0.44 0.48 0.50 0.55 0.59 0.60 0.59 0.59 0.57 0.55 0.55 0.56 0.58 0.58 0.59 0.59 0.63 0.68 0.74 0.80 0.80 0.77 0.86 0.90 0.86 0.79 0.76 0.85 0.91 0.94 1.00 1.04 1.08 1.16 1.27
0.44 0.43 0.45 0.43 0.43 0.45 0.47 0.48 0.48 0.52 0.56 0.59 0.62 0.63 0.64 0.66 0.65 0.64 0.64 0.62 0.60 0.57 0.58 0.61 0.65 0.66 0.69 0.76 0.83 0.89 0.90 0.82 0.83 0.89 0.82 0.81 0.88 0.94 1.07 1.17 1.22 1.34 1.41

GEFSGL_prec_meanprecacc_294.txt.gz
Total_Precipitation_Accumulation
1.28 1.38 1.36 1.32 1.34 1.37 1.30 1.23 1.21 1.20 1.20 1.27 1.34 1.50 1.68 1.91 2.15 2.29 2.28 2.21 2.20 2.17 2.09 2.20 2.35 2.39 2.50 2.54 2.55 2.46 2.33 2.28 2.20 1.99 1.79 1.70 1.89 1.89 1.79 1.68 1.52 1.47 1.47
1.16 1.23 1.33 1.30 1.26 1.30 1.25 1.29 1.19 1.10 1.09 1.12 1.28 1.49 1.61 1.70 1.79 1.91 1.97 1.96 1.98 2.03 1.99 1.96 2.02 2.10 2.22 2.38 2.47 2.45 2.46 2.36 2.29 2.28 2.08 1.83 1.75 1.82 1.85 1.92 1.82 1.57 1.51
1.27 1.35 1.35 1.31 1.28 1.31 1.22 1.29 1.21 1.13 1.12 1.11 1.20 1.35 1.42 1.51 1.57 1.66 1.79 1.87 1.85 1.80 1.82 1.73 1.70 1.80 1.92 2.07 2.14 2.23 2.38 2.42 2.45 2.42 2.34 2.13 1.88 1.86 1.93 1.95 1.96 2.00 1.74
1.51 1.52 1.41 1.36 1.27 1.23 1.18 1.18 1.18 1.15 1.14 1.17 1.28 1.34 1.37 1.38 1.51 1.58 1.66 1.66 1.59 1.49 1.50 1.46 1.46 1.48 1.58 1.74 1.86 2.06 2.26 2.39 2.48 2.49 2.43 2.21 2.01 1.94 1.91 1.95 2.06 2.11 2.07
1.47 1.47 1.44 1.32 1.18 1.10 1.10 1.03 1.08 1.15 1.14 1.21 1.27 1.35 1.40 1.42 1.45 1.52 1.49 1.40 1.38 1.35 1.29 1.15 1.13 1.21 1.24 1.34 1.35 1.62 1.89 2.12 2.25 2.32 2.32 2.17 1.95 1.86 1.71 1.75 1.89 2.08 2.14
1.39 1.34 1.27 1.16 1.13 1.06 0.98 0.94 0.95 0.99 1.04 1.09 1.15 1.31 1.42 1.33 1.50 1.45 1.29 1.17 1.16 1.20 1.15 1.03 0.98 1.03 0.97 0.97 1.00 1.22 1.53 1.70 1.86 2.06 2.12 1.99 1.82 1.75 1.80 1.78 1.78 1.83 1.87
1.18 1.14 1.04 0.98 0.95 0.93 0.88 0.90 0.92 0.92 0.96 1.01 1.01 1.14 1.22 1.32 1.34 1.18 1.18 1.11 1.11 1.11 1.13 1.13 1.03 0.96 1.06 0.94 0.91 1.00 1.08 1.20 1.37 1.64 1.85 1.82 1.91 1.83 1.73 1.65 1.66 1.69 1.69
1.06 1.05 0.98 0.91 0.85 0.83 0.80 0.84 0.92 0.90 0.87 0.91 0.92 0.91 0.97 1.13 1.15 1.01 1.08 1.02 1.13 1.18 1.19 1.27 1.26 1.17 1.16 1.24 1.15 1.14 1.08 1.01 1.12 1.04 1.23 1.61 1.78 1.85 1.81 1.83 1.92 1.84 1.67
0.81 0.86 0.83 0.74 0.77 0.83 0.79 0.88 0.91 0.86 0.85 0.82 0.86 0.87 0.90 0.96 0.98 0.91 0.95 0.98 1.13 1.16 1.10 1.23 1.29 1.19 1.29 1.42 1.47 1.47 1.37 1.18 1.30 1.31 1.20 1.32 1.51 1.57 1.69 1.77 1.82 1.75 1.67
0.58 0.61 0.67 0.65 0.67 0.75 0.82 0.89 0.91 0.85 0.88 0.84 0.80 0.78 0.78 0.80 0.89 0.81 0.91 0.98 1.06 1.10 1.13 1.17 1.35 1.26 1.25 1.24 1.30 1.41 1.37 1.20 1.07 1.09 1.06 0.96 0.90 1.03 1.25 1.38 1.66 1.79 1.72
0.51 0.52 0.55 0.57 0.61 0.72 0.78 0.73 0.73 0.75 0.80 0.80 0.82 0.77 0.74 0.79 0.90 0.90 0.96 0.97 1.03 1.10 1.20 1.23 1.21 1.34 1.19 1.13 1.12 1.10 1.20 1.22 1.20 1.24 1.28 1.15 1.03 0.98 1.02 1.09 1.31 1.56 1.70
0.43 0.48 0.46 0.44 0.45 0.52 0.60 0.67 0.66 0.66 0.68 0.66 0.68 0.67 0.67 0.75 0.82 0.82 0.84 0.90 0.99 0.99 1.05 1.05 1.03 1.17 1.02 0.94 0.88 0.93 1.03 1.10 1.17 1.30 1.29 1.22 1.19 1.11 1.08 1.11 1.18 1.29 1.39
0.43 0.46 0.44 0.42 0.42 0.45 0.53 0.62 0.68 0.71 0.69 0.64 0.59 0.57 0.60 0.64 0.71 0.74 0.72 0.72 0.77 0.78 0.75 0.89 0.94 0.94 0.89 0.81 0.85 0.90 0.92 0.94 1.06 1.15 1.15 1.09 1.11 1.17 1.19 1.17 1.19 1.23 1.22
0.39 0.44 0.44 0.45 0.46 0.46 0.49 0.57 0.69 0.72 0.66 0.60 0.58 0.58 0.60 0.63 0.63 0.63 0.65 0.64 0.64 0.69 0.68 0.74 0.79 0.79 0.79 0.80 0.83 0.86 0.90 0.93 0.99 1.02 1.02 1.04 1.05 1.13 1.20 1.19 1.20 1.26 1.31
0.35 0.39 0.39 0.43 0.47 0.46 0.41 0.44 0.56 0.62 0.65 0.67 0.65 0.66 0.67 0.66 0.62 0.59 0.57 0.61 0.66 0.72 0.78 0.72 0.69 0.71 0.73 0.80 0.83 0.83 0.87 0.92 0.92 0.90 0.94 0.98 0.98 1.04 1.08 1.09 1.13 1.18 1.20
0.35 0.37 0.39 0.42 0.46 0.48 0.43 0.42 0.46 0.50 0.59 0.63 0.62 0.62 0.55 0.52 0.54 0.51 0.50 0.55 0.62 0.69 0.80 0.84 0.85 0.90 0.93 0.92 0.89 0.83 0.79 0.82 0.89 0.95 0.97 0.99 0.99 0.97 1.01 1.04 1.08 1.17 1.18
0.42 0.41 0.42 0.43 0.43 0.44 0.47 0.47 0.47 0.43 0.42 0.46 0.48 0.47 0.47 0.49 0.48 0.48 0.49 0.54 0.57 0.62 0.76 0.91 0.94 0.91 0.88 0.86 0.82 0.76 0.70 0.69 0.74 0.85 0.97 1.06 1.07 1.06 1.09 1.13 1.13 1.10 1.09
0.56 0.57 0.51 0.48 0.47 0.46 0.48 0.51 0.54 0.56 0.49 0.40 0.40 0.42 0.44 0.47 0.47 0.49 0.58 0.64 0.59 0.60 0.73 0.82 0.84 0.82 0.76 0.71 0.66 0.61 0.61 0.61 0.61 0.67 0.73 0.83 1.00 1.11 1.18 1.21 1.24 1.26 1.25
0.54 0.58 0.58 0.57 0.56 0.54 0.55 0.60 0.61 0.56 0.49 0.47 0.43 0.41 0.42 0.45 0.47 0.49 0.52 0.54 0.53 0.54 0.58 0.59 0.58 0.59 0.59 0.58 0.55 0.57 0.62 0.63 0.63 0.64 0.64 0.69 0.80 0.96 1.13 1.22 1.27 1.35 1.34
0.39 0.47 0.54 0.59 0.60 0.58 0.61 0.62 0.61 0.58 0.50 0.48 0.45 0.42 0.43 0.42 0.41 0.42 0.43 0.48 0.54 0.54 0.52 0.51 0.52 0.53 0.52 0.53 0.55 0.57 0.64 0.67 0.65 0.66 0.71 0.76 0.85 0.91 0.96 1.06 1.22 1.28 1.22
0.33 0.35 0.41 0.48 0.53 0.53 0.56 0.59 0.61 0.61 0.56 0.53 0.51 0.48 0.49 0.46 0.47 0.45 0.44 0.48 0.52 0.53 0.53 0.54 0.55 0.55 0.55 0.59 0.60 0.61 0.64 0.67 0.68 0.68 0.70 0.77 0.86 0.95 1.01 1.03 1.06 1.11 1.16
0.34 0.35 0.37 0.40 0.45 0.48 0.52 0.54 0.58 0.60 0.59 0.57 0.56 0.57 0.58 0.53 0.51 0.51 0.51 0.53 0.55 0.56 0.57 0.62 0.65 0.62 0.59 0.62 0.67 0.69 0.71 0.70 0.70 0.73 0.79 0.81 0.85 0.90 0.99 1.07 1.09 1.09 1.12
0.32 0.32 0.34 0.39 0.43 0.46 0.49 0.48 0.51 0.54 0.54 0.54 0.52 0.53 0.53 0.52 0.52 0.53 0.56 0.58 0.59 0.61 0.63 0.69 0.72 0.69 0.67 0.68 0.70 0.71 0.74 0.75 0.76 0.78 0.84 0.87 0.87 0.89 0.94 1.01 1.03 1.05 1.06
0.35 0.36 0.39 0.43 0.43 0.41 0.42 0.45 0.47 0.49 0.51 0.53 0.55 0.57 0.56 0.54 0.54 0.53 0.55 0.57 0.58 0.59 0.60 0.64 0.69 0.72 0.74 0.76 0.78 0.76 0.77 0.82 0.80 0.78 0.87 0.97 0.97 0.94 0.96 1.00 1.00 1.02 1.11
0.41 0.40 0.42 0.45 0.46 0.44 0.42 0.43 0.47 0.51 0.54 0.58 0.61 0.62 0.61 0.60 0.58 0.56 0.56 0.58 0.60 0.61 0.61 0.62 0.65 0.71 0.76 0.82 0.82 0.79 0.89 0.92 0.89 0.81 0.78 0.87 0.93 0.96 1.02 1.06 1.10 1.19 1.30
0.45 0.45 0.47 0.46 0.46 0.48 0.50 0.51 0.51 0.56 0.60 0.63 0.65 0.65 0.65 0.67 0.66 0.66 0.66 0.64 0.62 0.60 0.61 0.65 0.68 0.69 0.72 0.79 0.86 0.91 0.91 0.84 0.85 0.91 0.84 0.83 0.89 0.96 1.09 1.19 1.24 1.36 1.44

GEFSGL_prec_meanprecacc_300.txt.gz
Total_Precipitation_Accumulation
1.33 1.44 1.40 1.35 1.37 1.38 1.30 1.24 1.22 1.21 1.21 1.28 1.35 1.52 1.70 1.93 2.16 2.31 2.31 2.24 2.22 2.18 2.11 2.22 2.36 2.41 2.52 2.56 2.58 2.48 2.36 2.31 2.23 2.01 1.81 1.72 1.93 1.95 1.87 1.74 1.56 1.50 1.49
1.19 1.30 1.42 1.33 1.29 1.32 1.26 1.30 1.20 1.12 1.10 1.13 1.30 1.51 1.62 1.71 1.81 1.92 1.99 2.01 2.02 2.05 2.00 1.97 2.04 2.11 2.23 2.39 2.49 2.47 2.48 2.38 2.31 2.30 2.09 1.85 1.78 1.85 1.91 1.99 1.86 1.60 1.53
1.30 1.40 1.46 1.37 1.34 1.34 1.23 1.30 1.22 1.15 1.13 1.12 1.21 1.37 1.44 1.52 1.58 1.67 1.80 1.90 1.90 1.84 1.84 1.74 1.72 1.81 1.94 2.08 2.15 2.25 2.40 2.44 2.47 2.43 2.35 2.14 1.89 1.88 1.95 2.01 2.02 2.04 1.75
1.54 1.57 1.48 1.42 1.35 1.29 1.20 1.19 1.19 1.17 1.15 1.18 1.30 1.36 1.40 1.40 1.52 1.59 1.68 1.68 1.63 1.54 1.54 1.48 1.47 1.50 1.60 1.76 1.88 2.08 2.27 2.40 2.49 2.50 2.44 2.21 2.02 1.96 1.93 2.00 2.11 2.15 2.09
1.51 1.51 1.49 1.37 1.23 1.16 1.15 1.06 1.10 1.18 1.16 1.22 1.29 1.37 1.42 1.43 1.46 1.53 1.50 1.42 1.40 1.39 1.34 1.18 1.15 1.22 1.25 1.36 1.36 1.63 1.91 2.13 2.26 2.33 2.32 2.17 1.96 1.87 1.73 1.78 1.93 2.11 2.17
1.41 1.37 1.30 1.21 1.19 1.12 1.03 0.97 0.98 1.02 1.06 1.11 1.16 1.33 1.43 1.34 1.50 1.46 1.30 1.18 1.17 1.22 1.20 1.09 1.01 1.04 0.98 0.98 1.01 1.24 1.55 1.71 1.88 2.07 2.13 2.00 1.83 1.76 1.82 1.80 1.81 1.86 1.89
1.19 1.15 1.06 1.01 1.00 1.00 0.94 0.94 0.96 0.96 0.99 1.03 1.02 1.15 1.23 1.33 1.35 1.18 1.19 1.12 1.12 1.13 1.16 1.18 1.07 0.98 1.07 0.95 0.92 1.02 1.11 1.22 1.38 1.65 1.86 1.83 1.93 1.85 1.75 1.67 1.68 1.72 1.71
1.07 1.06 0.99 0.92 0.87 0.88 0.86 0.88 0.95 0.94 0.90 0.93 0.93 0.92 0.98 1.14 1.16 1.02 1.08 1.03 1.13 1.19 1.20 1.29 1.30 1.20 1.17 1.25 1.16 1.15 1.11 1.04 1.14 1.06 1.24 1.62 1.79 1.87 1.82 1.84 1.93 1.85 1.69
0.82 0.87 0.83 0.75 0.78 0.84 0.82 0.92 0.94 0.87 0.87 0.84 0.87 0.87 0.90 0.97 0.99 0.92 0.96 0.99 1.14 1.17 1.11 1.25 1.30 1.22 1.32 1.44 1.48 1.49 1.40 1.21 1.34 1.34 1.22 1.34 1.51 1.58 1.70 1.78 1.83 1.75 1.68
0.59 0.62 0.67 0.65 0.67 0.75 0.83 0.91 0.93 0.87 0.89 0.86 0.81 0.78 0.79 0.80 0.89 0.82 0.92 0.99 1.07 1.11 1.14 1.18 1.36 1.28 1.29 1.28 1.32 1.43 1.39 1.23 1.09 1.10 1.07 0.97 0.90 1.03 1.26 1.39 1.66 1.79 1.73
0.52 0.52 0.55 0.58 0.62 0.73 0.79 0.75 0.75 0.77 0.81 0.81 0.83 0.78 0.75 0.80 0.91 0.91 0.98 0.99 1.05 1.11 1.21 1.24 1.22 1.36 1.22 1.17 1.15 1.12 1.23 1.24 1.22 1.25 1.29 1.16 1.03 0.98 1.02 1.09 1.31 1.57 1.70
0.44 0.48 0.46 0.44 0.46 0.53 0.61 0.69 0.69 0.67 0.69 0.68 0.69 0.68 0.68 0.76 0.84 0.83 0.85 0.91 1.00 1.00 1.05 1.06 1.04 1.18 1.03 0.97 0.91 0.95 1.06 1.13 1.20 1.32 1.31 1.24 1.19 1.12 1.09 1.12 1.19 1.30 1.39
0.45 0.47 0.45 0.43 0.42 0.46 0.54 0.64 0.71 0.73 0.71 0.67 0.61 0.58 0.61 0.65 0.72 0.75 0.73 0.73 0.77 0.78 0.76 0.90 0.96 0.96 0.90 0.82 0.87 0.92 0.95 0.98 1.09 1.18 1.17 1.11 1.13 1.18 1.19 1.18 1.19 1.23 1.22
0.40 0.45 0.45 0.46 0.47 0.47 0.51 0.58 0.72 0.77 0.70 0.63 0.61 0.60 0.62 0.63 0.64 0.64 0.66 0.65 0.65 0.69 0.68 0.75 0.80 0.81 0.81 0.81 0.84 0.88 0.92 0.95 1.02 1.05 1.04 1.05 1.07 1.15 1.22 1.20 1.21 1.27 1.31
0.36 0.40 0.40 0.44 0.49 0.48 0.43 0.46 0.57 0.65 0.69 0.72 0.71 0.70 0.70 0.68 0.64 0.61 0.58 0.62 0.66 0.72 0.79 0.73 0.71 0.72 0.75 0.81 0.84 0.84 0.88 0.93 0.94 0.91 0.95 0.99 0.99 1.05 1.09 1.10 1.14 1.19 1.21
0.36 0.38 0.40 0.43 0.48 0.49 0.45 0.44 0.48 0.52 0.61 0.65 0.66 0.67 0.60 0.56 0.57 0.53 0.52 0.56 0.63 0.70 0.81 0.85 0.86 0.92 0.95 0.94 0.91 0.84 0.80 0.83 0.90 0.97 0.99 1.00 1.00 0.98 1.01 1.04 1.08 1.18 1.19
0.43 0.43 0.44 0.44 0.44 0.45 0.48 0.49 0.49 0.46 0.45 0.48 0.51 0.50 0.50 0.53 0.52 0.52 0.52 0.55 0.58 0.63 0.77 0.92 0.94 0.92 0.89 0.89 0.84 0.78 0.72 0.70 0.75 0.86 0.98 1.07 1.08 1.07 1.10 1.14 1.14 1.10 1.10
0.58 0.59 0.53 0.49 0.48 0.47 0.48 0.52 0.56 0.58 0.51 0.42 0.42 0.44 0.46 0.49 0.50 0.53 0.63 0.68 0.63 0.63 0.74 0.83 0.85 0.83 0.77 0.73 0.68 0.64 0.63 0.62 0.63 0.69 0.74 0.84 1.00 1.12 1.20 1.23 1.26 1.28 1.27
0.55 0.59 0.59 0.58 0.57 0.55 0.55 0.61 0.62 0.57 0.51 0.49 0.45 0.43 0.45 0.48 0.50 0.53 0.57 0.60 0.59 0.59 0.63 0.63 0.61 0.61 0.61 0.59 0.58 0.60 0.65 0.65 0.65 0.67 0.67 0.70 0.81 0.97 1.14 1.24 1.29 1.37 1.36
0.40 0.48 0.55 0.60 0.61 0.60 0.62 0.63 0.63 0.59 0.51 0.49 0.47 0.45 0.46 0.45 0.43 0.45 0.47 0.52 0.58 0.59 0.58 0.57 0.57 0.57 0.56 0.55 0.57 0.60 0.67 0.70 0.67 0.68 0.74 0.78 0.87 0.93 0.98 1.08 1.24 1.30 1.24
0.34 0.36 0.42 0.49 0.54 0.54 0.57 0.60 0.62 0.63 0.58 0.55 0.52 0.50 0.51 0.48 0.49 0.47 0.47 0.52 0.56 0.58 0.58 0.58 0.59 0.58 0.58 0.62 0.63 0.64 0.68 0.71 0.71 0.70 0.73 0.79 0.88 0.97 1.03 1.05 1.08 1.13 1.19
0.35 0.36 0.37 0.41 0.46 0.49 0.53 0.56 0.59 0.62 0.61 0.59 0.58 0.58 0.61 0.55 0.53 0.54 0.55 0.57 0.59 0.60 0.60 0.64 0.67 0.64 0.62 0.65 0.69 0.72 0.73 0.73 0.73 0.75 0.81 0.84 0.87 0.93 1.01 1.09 1.11 1.12 1.15
0.33 0.33 0.35 0.39 0.44 0.47 0.50 0.50 0.53 0.55 0.55 0.55 0.53 0.54 0.54 0.54 0.56 0.57 0.61 0.62 0.62 0.64 0.65 0.71 0.73 0.71 0.69 0.70 0.72 0.74 0.76 0.78 0.79 0.81 0.87 0.90 0.90 0.91 0.97 1.03 1.05 1.07 1.08
0.35 0.36 0.40 0.44 0.44 0.43 0.44 0.47 0.49 0.51 0.53 0.54 0.56 0.58 0.57 0.57 0.57 0.57 0.59 0.60 0.60 0.61 0.62 0.66 0.71 0.73 0.76 0.78 0.80 0.78 0.79 0.84 0.82 0.81 0.90 1.00 1.01 0.98 1.00 1.03 1.04 1.05 1.14
0.41 0.41 0.43 0.46 0.48 0.46 0.44 0.45 0.49 0.53 0.56 0.59 0.62 0.64 0.63 0.62 0.61 0.59 0.59 0.60 0.62 0.62 0.63 0.63 0.67 0.73 0.78 0.84 0.84 0.81 0.91 0.95 0.91 0.84 0.82 0.92 0.98 1.00 1.06 1.10 1.14 1.23 1.35
0.47 0.47 0.49 0.48 0.48 0.50 0.52 0.52 0.52 0.57 0.62 0.65 0.66 0.68 0.68 0.70 0.69 0.68 0.68 0.65 0.64 0.61 0.62 0.66 0.69 0.71 0.74 0.80 0.87 0.94 0.94 0.87 0.88 0.93 0.87 0.87 0.94 0.99 1.11 1.21 1.27 1.39 1.47

GEFSGL_prec_meanprecacc_306.txt.gz
Total_Precipitation_Accumulation
1.40 1.50 1.46 1.41 1.42 1.42 1.33 1.26 1.24 1.23 1.24 1.30 1.37 1.53 1.71 1.95 2.18 2.33 2.33 2.27 2.24 2.20 2.12 2.24 2.38 2.44 2.55 2.59 2.61 2.51 2.39 2.35 2.25 2.04 1.86 1.78 1.97 2.00 1.92 1.79 1.61 1.53 1.51
1.23 1.35 1.48 1.40 1.36 1.37 1.29 1.33 1.23 1.14 1.13 1.16 1.32 1.52 1.64 1.73 1.83 1.94 2.00 2.03 2.05 2.07 2.01 1.98 2.06 2.14 2.27 2.43 2.54 2.51 2.53 2.43 2.35 2.32 2.13 1.90 1.81 1.89 1.95 2.03 1.89 1.63 1.55
1.33 1.44 1.51 1.45 1.42 1.41 1.27 1.33 1.25 1.17 1.15 1.14 1.22 1.38 1.46 1.55 1.61 1.69 1.82 1.91 1.92 1.86 1.85 1.75 1.74 1.84 1.96 2.11 2.19 2.31 2.47 2.50 2.50 2.45 2.39 2.19 1.92 1.91 1.99 2.05 2.04 2.07 1.77
1.59 1.59 1.52 1.49 1.45 1.40 1.28 1.23 1.22 1.19 1.18 1.20 1.31 1.37 1.41 1.41 1.54 1.61 1.69 1.70 1.65 1.57 1.56 1.51 1.49 1.53 1.62 1.79 1.92 2.13 2.34 2.46 2.53 2.53 2.48 2.25 2.05 1.98 1.96 2.03 2.14 2.18 2.11
1.55 1.54 1.51 1.40 1.30 1.27 1.27 1.14 1.16 1.22 1.20 1.25 1.31 1.39 1.43 1.44 1.48 1.55 1.51 1.43 1.43 1.42 1.38 1.22 1.18 1.25 1.28 1.39 1.39 1.68 1.96 2.17 2.29 2.36 2.36 2.21 2.00 1.90 1.77 1.82 1.97 2.14 2.19
1.43 1.39 1.32 1.23 1.24 1.22 1.16 1.08 1.07 1.09 1.12 1.15 1.19 1.35 1.45 1.35 1.53 1.50 1.32 1.20 1.19 1.25 1.22 1.11 1.04 1.07 1.00 1.00 1.03 1.27 1.59 1.74 1.90 2.09 2.16 2.04 1.87 1.79 1.85 1.85 1.85 1.90 1.92
1.22 1.18 1.08 1.03 1.03 1.05 1.01 1.04 1.06 1.06 1.08 1.10 1.06 1.18 1.26 1.36 1.39 1.22 1.21 1.14 1.15 1.16 1.18 1.20 1.09 1.00 1.10 0.97 0.94 1.04 1.13 1.25 1.40 1.66 1.87 1.85 1.95 1.87 1.77 1.69 1.71 1.75 1.74
1.09 1.08 1.01 0.95 0.90 0.91 0.91 0.96 1.03 1.01 0.99 1.02 1.02 1.00 1.05 1.19 1.19 1.05 1.12 1.05 1.15 1.20 1.23 1.31 1.32 1.22 1.19 1.27 1.17 1.17 1.13 1.06 1.16 1.07 1.24 1.63 1.80 1.88 1.84 1.86 1.95 1.88 1.71
0.84 0.88 0.85 0.77 0.79 0.86 0.86 0.98 1.01 0.93 0.92 0.90 0.94 0.96 0.99 1.04 1.04 0.96 0.99 1.01 1.15 1.18 1.13 1.27 1.33 1.23 1.34 1.47 1.51 1.51 1.42 1.24 1.36 1.36 1.24 1.34 1.52 1.60 1.72 1.79 1.84 1.77 1.69
0.60 0.63 0.68 0.66 0.68 0.76 0.85 0.95 0.99 0.93 0.93 0.89 0.85 0.83 0.83 0.86 0.96 0.86 0.94 1.00 1.08 1.12 1.15 1.20 1.39 1.30 1.31 1.30 1.34 1.45 1.42 1.25 1.10 1.11 1.07 0.97 0.91 1.04 1.28 1.40 1.67 1.80 1.75
0.53 0.54 0.57 0.59 0.63 0.74 0.81 0.77 0.78 0.81 0.86 0.85 0.87 0.82 0.78 0.83 0.94 0.95 1.00 1.00 1.06 1.12 1.22 1.25 1.24 1.37 1.24 1.19 1.17 1.14 1.25 1.27 1.25 1.28 1.31 1.17 1.04 0.99 1.03 1.10 1.31 1.57 1.72
0.45 0.49 0.47 0.46 0.47 0.54 0.62 0.70 0.70 0.70 0.73 0.71 0.72 0.71 0.70 0.78 0.85 0.84 0.87 0.92 1.02 1.01 1.06 1.07 1.05 1.19 1.05 0.99 0.93 0.98 1.10 1.16 1.22 1.35 1.34 1.26 1.21 1.13 1.10 1.13 1.19 1.31 1.40
0.46 0.49 0.46 0.45 0.44 0.47 0.55 0.65 0.73 0.75 0.73 0.70 0.63 0.61 0.64 0.67 0.74 0.76 0.74 0.74 0.79 0.79 0.77 0.92 0.97 0.97 0.92 0.84 0.90 0.95 0.98 1.01 1.12 1.20 1.20 1.14 1.14 1.20 1.21 1.19 1.21 1.25 1.23
0.41 0.46 0.45 0.47 0.48 0.48 0.51 0.60 0.74 0.79 0.72 0.65 0.63 0.62 0.65 0.66 0.66 0.66 0.68 0.66 0.66 0.70 0.69 0.76 0.81 0.82 0.82 0.83 0.86 0.91 0.94 0.98 1.04 1.07 1.06 1.08 1.09 1.16 1.24 1.22 1.22 1.29 1.33
0.36 0.40 0.41 0.45 0.49 0.48 0.44 0.47 0.59 0.66 0.72 0.75 0.74 0.73 0.74 0.72 0.66 0.63 0.60 0.63 0.67 0.73 0.80 0.74 0.72 0.74 0.76 0.83 0.87 0.87 0.91 0.96 0.96 0.94 0.98 1.01 1.01 1.06 1.11 1.11 1.16 1.21 1.23
0.37 0.39 0.41 0.44 0.49 0.50 0.45 0.44 0.49 0.53 0.62 0.67 0.68 0.70 0.63 0.59 0.59 0.56 0.54 0.58 0.65 0.71 0.82 0.87 0.88 0.93 0.97 0.97 0.94 0.87 0.84 0.87 0.93 0.99 1.01 1.03 1.03 1.00 1.03 1.06 1.10 1.19 1.21
0.45 0.45 0.46 0.46 0.45 0.46 0.49 0.50 0.50 0.47 0.47 0.50 0.53 0.52 0.53 0.56 0.54 0.55 0.55 0.58 0.61 0.66 0.79 0.94 0.96 0.93 0.90 0.91 0.87 0.81 0.74 0.73 0.78 0.89 1.00 1.09 1.11 1.09 1.12 1.16 1.16 1.12 1.11
0.59 0.61 0.55 0.51 0.49 0.48 0.49 0.54 0.58 0.60 0.54 0.46 0.45 0.48 0.50 0.53 0.54 0.57 0.66 0.73 0.67 0.67 0.77 0.85 0.86 0.84 0.79 0.74 0.70 0.66 0.67 0.66 0.67 0.73 0.77 0.86 1.03 1.14 1.21 1.25 1.28 1.32 1.30
0.56 0.60 0.60 0.60 0.58 0.56 0.57 0.63 0.64 0.59 0.53 0.51 0.48 0.47 0.50 0.53 0.56 0.57 0.61 0.64 0.64 0.65 0.68 0.68 0.65 0.64 0.64 0.63 0.62 0.64 0.69 0.69 0.69 0.71 0.70 0.73 0.85 1.00 1.18 1.27 1.32 1.41 1.39
0.42 0.49 0.57 0.61 0.62 0.61 0.63 0.64 0.64 0.61 0.53 0.51 0.48 0.47 0.49 0.49 0.47 0.48 0.50 0.56 0.62 0.64 0.63 0.63 0.64 0.63 0.61 0.61 0.62 0.64 0.71 0.74 0.71 0.73 0.77 0.81 0.90 0.97 1.02 1.11 1.27 1.33 1.26
0.35 0.37 0.43 0.49 0.54 0.55 0.59 0.62 0.63 0.64 0.59 0.55 0.53 0.51 0.53 0.50 0.52 0.50 0.49 0.54 0.58 0.61 0.61 0.62 0.64 0.63 0.62 0.66 0.67 0.68 0.72 0.76 0.76 0.76 0.78 0.84 0.92 1.00 1.05 1.07 1.10 1.16 1.21
0.36 0.37 0.39 0.42 0.46 0.50 0.54 0.56 0.60 0.63 0.62 0.59 0.59 0.60 0.63 0.57 0.55 0.56 0.56 0.58 0.61 0.62 0.63 0.67 0.70 0.67 0.64 0.67 0.72 0.74 0.77 0.78 0.78 0.82 0.88 0.90 0.93 0.98 1.06 1.13 1.14 1.14 1.18
0.35 0.34 0.36 0.41 0.44 0.48 0.50 0.51 0.54 0.56 0.56 0.56 0.54 0.55 0.56 0.55 0.57 0.58 0.62 0.63 0.64 0.66 0.67 0.73 0.76 0.73 0.71 0.72 0.74 0.76 0.79 0.81 0.83 0.86 0.92 0.95 0.95 0.96 1.02 1.08 1.09 1.10 1.12
0.39 0.39 0.42 0.46 0.45 0.44 0.45 0.48 0.50 0.51 0.53 0.55 0.57 0.59 0.59 0.58 0.58 0.58 0.60 0.62 0.63 0.63 0.64 0.68 0.73 0.75 0.78 0.80 0.81 0.80 0.82 0.87 0.85 0.85 0.94 1.05 1.05 1.02 1.04 1.08 1.09 1.10 1.18
0.46 0.45 0.47 0.49 0.50 0.48 0.46 0.46 0.50 0.54 0.57 0.60 0.64 0.65 0.64 0.63 0.62 0.60 0.60 0.62 0.65 0.64 0.65 0.65 0.69 0.74 0.79 0.85 0.85 0.83 0.94 0.98 0.94 0.87 0.85 0.96 1.02 1.05 1.11 1.14 1.19 1.27 1.39
0.51 0.52 0.54 0.53 0.52 0.53 0.54 0.55 0.54 0.59 0.64 0.66 0.68 0.69 0.70 0.72 0.71 0.70 0.69 0.67 0.66 0.64 0.64 0.67 0.71 0.72 0.75 0.81 0.89 0.96 0.97 0.89 0.90 0.97 0.91 0.92 0.99 1.05 1.17 1.27 1.31 1.43 1.51

GEFSGL_prec_meanprecacc_312.txt.gz
Total_Precipitation_Accumulation
1.44 1.54 1.51 1.48 1.49 1.49 1.39 1.31 1.28 1.26 1.27 1.35 1.41 1.55 1.72 1.95 2.18 2.33 2.33 2.27 2.25 2.21 2.14 2.26 2.41 2.47 2.59 2.63 2.65 2.55 2.43 2.39 2.30 2.06 1.87 1.79 2.00 2.02 1.95 1.83 1.65 1.59 1.57
1.28 1.38 1.50 1.43 1.41 1.42 1.34 1.37 1.27 1.18 1.17 1.20 1.36 1.56 1.66 1.74 1.84 1.94 2.00 2.04 2.06 2.08 2.04 2.01 2.08 2.17 2.29 2.47 2.58 2.55 2.56 2.46 2.38 2.35 2.15 1.92 1.84 1.91 1.98 2.07 1.93 1.68 1.60
1.42 1.52 1.55 1.47 1.45 1.44 1.30 1.36 1.28 1.21 1.19 1.19 1.26 1.42 1.51 1.58 1.63 1.69 1.82 1.92 1.93 1.87 1.87 1.77 1.75 1.86 1.99 2.14 2.23 2.34 2.49 2.53 2.53 2.48 2.41 2.21 1.95 1.95 2.02 2.08 2.08 2.11 1.81
1.65 1.69 1.59 1.53 1.49 1.46 1.33 1.26 1.24 1.22 1.21 1.24 1.35 1.41 1.45 1.46 1.58 1.63 1.71 1.71 1.66 1.58 1.58 1.52 1.51 1.54 1.65 1.82 1.95 2.15 2.37 2.50 2.57 2.57 2.52 2.27 2.08 2.03 2.00 2.06 2.17 2.21 2.14
1.59 1.59 1.58 1.46 1.34 1.32 1.36 1.18 1.17 1.23 1.23 1.29 1.35 1.43 1.47 1.48 1.53 1.61 1.55 1.47 1.45 1.44 1.40 1.24 1.20 1.26 1.31 1.43 1.43 1.70 1.99 2.23 2.35 2.40 2.41 2.25 2.03 1.93 1.79 1.85 2.00 2.18 2.21
1.46 1.42 1.37 1.29 1.29 1.26 1.23 1.15 1.10 1.12 1.16 1.19 1.22 1.38 1.49 1.39 1.58 1.56 1.37 1.24 1.22 1.28 1.26 1.14 1.07 1.08 1.02 1.03 1.07 1.31 1.64 1.81 1.96 2.14 2.21 2.08 1.90 1.81 1.87 1.87 1.88 1.92 1.94
1.25 1.20 1.10 1.06 1.06 1.08 1.07 1.10 1.10 1.10 1.12 1.14 1.10 1.21 1.29 1.39 1.43 1.26 1.25 1.17 1.17 1.18 1.20 1.22 1.11 1.02 1.11 0.99 0.96 1.08 1.19 1.32 1.46 1.71 1.91 1.89 1.99 1.89 1.79 1.71 1.72 1.76 1.76
1.12 1.11 1.05 0.98 0.93 0.93 0.94 1.00 1.07 1.04 1.02 1.05 1.05 1.02 1.07 1.22 1.23 1.09 1.16 1.08 1.17 1.22 1.24 1.33 1.33 1.23 1.20 1.28 1.19 1.19 1.16 1.12 1.23 1.12 1.28 1.66 1.83 1.91 1.86 1.87 1.97 1.89 1.72
0.85 0.90 0.87 0.79 0.82 0.89 0.88 1.00 1.03 0.95 0.95 0.93 0.96 0.97 1.01 1.07 1.08 1.00 1.04 1.07 1.21 1.21 1.15 1.28 1.33 1.24 1.35 1.47 1.51 1.52 1.44 1.26 1.41 1.43 1.29 1.38 1.56 1.64 1.75 1.81 1.85 1.78 1.70
0.62 0.64 0.70 0.69 0.71 0.79 0.88 0.97 1.01 0.95 0.96 0.92 0.87 0.84 0.84 0.87 0.98 0.88 0.99 1.07 1.16 1.18 1.18 1.21 1.40 1.31 1.31 1.30 1.35 1.46 1.43 1.26 1.13 1.15 1.12 1.00 0.93 1.06 1.30 1.41 1.68 1.81 1.76
0.55 0.56 0.58 0.61 0.66 0.78 0.86 0.81 0.81 0.84 0.89 0.88 0.90 0.84 0.80 0.85 0.96 0.97 1.03 1.05 1.12 1.17 1.25 1.27 1.25 1.38 1.24 1.20 1.18 1.15 1.26 1.28 1.26 1.30 1.33 1.19 1.06 1.00 1.04 1.11 1.33 1.58 1.73
0.48 0.52 0.49 0.48 0.50 0.58 0.67 0.74 0.74 0.74 0.78 0.75 0.74 0.73 0.73 0.80 0.87 0.86 0.89 0.95 1.06 1.04 1.08 1.08 1.06 1.20 1.06 1.00 0.94 0.98 1.11 1.18 1.24 1.37 1.36 1.28 1.22 1.14 1.11 1.14 1.21 1.32 1.41
0.48 0.51 0.48 0.47 0.47 0.50 0.58 0.69 0.76 0.79 0.78 0.74 0.67 0.64 0.66 0.70 0.76 0.79 0.76 0.76 0.81 0.83 0.81 0.94 0.98 0.99 0.93 0.85 0.91 0.96 0.99 1.02 1.13 1.22 1.22 1.15 1.15 1.21 1.22 1.21 1.23 1.27 1.24
0.43 0.49 0.49 0.50 0.51 0.51 0.54 0.61 0.75 0.81 0.75 0.68 0.67 0.66 0.69 0.70 0.69 0.68 0.70 0.69 0.68 0.73 0.73 0.81 0.85 0.84 0.84 0.84 0.88 0.93 0.96 1.00 1.07 1.10 1.09 1.10 1.11 1.18 1.26 1.24 1.25 1.31 1.35
0.38 0.42 0.42 0.47 0.52 0.52 0.47 0.49 0.60 0.67 0.73 0.77 0.76 0.76 0.78 0.77 0.71 0.65 0.62 0.66 0.70 0.76 0.83 0.78 0.76 0.77 0.79 0.85 0.88 0.89 0.94 1.00 1.00 0.97 1.02 1.05 1.05 1.10 1.14 1.14 1.19 1.24 1.25
0.39 0.41 0.43 0.46 0.51 0.52 0.48 0.48 0.52 0.55 0.64 0.68 0.69 0.71 0.65 0.62 0.62 0.58 0.56 0.60 0.67 0.74 0.85 0.90 0.92 0.97 1.01 1.01 0.98 0.89 0.86 0.89 0.96 1.02 1.05 1.07 1.08 1.05 1.08 1.11 1.14 1.23 1.24
0.49 0.47 0.47 0.48 0.47 0.48 0.51 0.53 0.53 0.50 0.49 0.52 0.54 0.54 0.55 0.58 0.56 0.56 0.56 0.60 0.64 0.69 0.82 0.97 0.99 0.97 0.93 0.93 0.90 0.85 0.78 0.76 0.80 0.92 1.04 1.14 1.15 1.13 1.16 1.20 1.20 1.16 1.14
0.63 0.66 0.59 0.54 0.52 0.50 0.51 0.56 0.60 0.62 0.56 0.48 0.47 0.50 0.52 0.54 0.55 0.57 0.67 0.74 0.69 0.69 0.79 0.88 0.89 0.88 0.82 0.77 0.73 0.69 0.70 0.70 0.71 0.76 0.80 0.90 1.06 1.16 1.24 1.27 1.31 1.35 1.33
0.57 0.63 0.64 0.63 0.61 0.59 0.59 0.65 0.66 0.61 0.54 0.53 0.50 0.49 0.52 0.54 0.57 0.58 0.63 0.65 0.65 0.67 0.70 0.71 0.68 0.67 0.67 0.66 0.65 0.67 0.72 0.72 0.72 0.74 0.73 0.76 0.87 1.02 1.19 1.29 1.35 1.44 1.42
0.43 0.51 0.59 0.64 0.65 0.64 0.66 0.67 0.67 0.63 0.54 0.52 0.50 0.48 0.50 0.50 0.48 0.49 0.51 0.56 0.63 0.64 0.64 0.65 0.67 0.66 0.63 0.62 0.64 0.67 0.75 0.78 0.75 0.76 0.81 0.85 0.92 0.99 1.04 1.13 1.29 1.35 1.28
0.39 0.40 0.46 0.52 0.57 0.57 0.60 0.64 0.66 0.66 0.61 0.57 0.55 0.53 0.54 0.51 0.52 0.51 0.52 0.56 0.60 0.62 0.62 0.64 0.66 0.65 0.64 0.68 0.69 0.70 0.74 0.78 0.79 0.79 0.82 0.89 0.96 1.04 1.09 1.10 1.13 1.18 1.23
0.43 0.41 0.42 0.44 0.49 0.51 0.55 0.58 0.62 0.65 0.64 0.61 0.61 0.61 0.64 0.58 0.57 0.58 0.59 0.61 0.64 0.65 0.65 0.69 0.72 0.69 0.66 0.69 0.74 0.76 0.79 0.80 0.80 0.84 0.91 0.94 0.98 1.01 1.09 1.17 1.17 1.17 1.20
0.40 0.39 0.40 0.44 0.47 0.51 0.52 0.52 0.55 0.57 0.58 0.57 0.55 0.57 0.57 0.56 0.58 0.60 0.64 0.65 0.66 0.69 0.71 0.78 0.79 0.77 0.75 0.75 0.76 0.78 0.81 0.83 0.85 0.88 0.95 0.99 0.99 0.99 1.04 1.11 1.12 1.13 1.15
0.42 0.43 0.46 0.50 0.49 0.47 0.48 0.50 0.52 0.53 0.55 0.56 0.58 0.60 0.60 0.59 0.60 0.59 0.61 0.63 0.64 0.65 0.67 0.71 0.77 0.79 0.82 0.83 0.84 0.82 0.83 0.89 0.88 0.88 0.98 1.08 1.09 1.06 1.07 1.11 1.11 1.12 1.20
0.49 0.48 0.51 0.54 0.55 0.53 0.50 0.49 0.53 0.56 0.58 0.62 0.65 0.66 0.65 0.65 0.63 0.62 0.61 0.63 0.65 0.66 0.67 0.67 0.72 0.78 0.84 0.89 0.88 0.85 0.96 1.00 0.97 0.90 0.89 1.00 1.06 1.09 1.15 1.18 1.22 1.30 1.42
0.56 0.57 0.59 0.57 0.57 0.58 0.59 0.58 0.58 0.62 0.65 0.67 0.69 0.70 0.71 0.73 0.72 0.71 0.70 0.68 0.67 0.65 0.66 0.70 0.73 0.74 0.78 0.85 0.92 0.98 0.99 0.91 0.92 1.00 0.94 0.95 1.02 1.08 1.21 1.31 1.35 1.46 1.54